[[{"header":{"parameterUnit":"m.s-1","parameterCategory":1,"la1":30.6,"la2":29.2853,"lo1":-89.7004,"lo2":-87.6739,"dy":0.0162,"dx":0.0183,"nx":112,"ny":82,"refTime":"2023-08-10T12:00:00:Z","depth":0,"parameterNumber":2,"parameterNumberName":"U-component_of_WINDS"},"data":[0.0,0.0,0.0,0.0,0.0,0.0,0.0,0.0,0.0,0.0,0.0,0.0,0.0,0.0,0.0,0.0,0.0,0.0,0.0,0.0,0.0,0.0,0.0,0.0,0.0,0.0,0.0,0.0,0.0,0.0,0.0,0.0,0.0,0.0,0.0,0.0,0.0,0.0,0.0,0.0,0.0,0.0,0.0,0.0,0.0,0.0,0.0,0.0,0.0,0.0,0.0,0.0,0.0,0.0,0.0,0.0,0.0,0.0,0.0,0.0,0.0,0.0,0.0,0.0,0.0,0.0,0.0,0.0,0.0,0.0,0.0,0.0,0.0,0.0,0.0,0.0,0.0,0.0,0.0,0.0,0.0,0.0,0.0,0.0,0.0,0.0,0.0,0.0,0.0,0.0,0.0,-5.001,-5.3491,-5.5415,-5.4741,-5.4568,-5.2769,-4.8664,0.0,0.0,0.0,0.0,0.0,0.0,0.0,0.0,0.0,0.0,0.0,0.0,0.0,0.0,0.0,0.0,0.0,0.0,0.0,0.0,0.0,0.0,0.0,0.0,0.0,0.0,0.0,0.0,0.0,0.0,0.0,0.0,0.0,0.0,0.0,0.0,0.0,0.0,0.0,0.0,0.0,0.0,0.0,0.0,0.0,0.0,0.0,0.0,0.0,0.0,0.0,0.0,0.0,0.0,0.0,0.0,0.0,0.0,0.0,0.0,0.0,0.0,0.0,0.0,0.0,0.0,0.0,0.0,0.0,0.0,0.0,0.0,0.0,0.0,0.0,0.0,0.0,0.0,0.0,0.0,0.0,0.0,0.0,0.0,0.0,0.0,0.0,0.0,0.0,0.0,0.0,0.0,0.0,0.0,0.0,0.0,0.0,0.0,0.0,0.0,0.0,0.0,0.0,0.0,-4.8798,-5.3241,-5.4914,-5.5645,-5.553,-5.4895,-5.3157,-5.0,0.0,0.0,0.0,0.0,0.0,0.0,0.0,0.0,0.0,0.0,0.0,0.0,0.0,0.0,0.0,0.0,0.0,0.0,0.0,0.0,0.0,0.0,0.0,0.0,0.0,0.0,0.0,0.0,0.0,0.0,0.0,0.0,0.0,0.0,0.0,0.0,0.0,0.0,0.0,0.0,0.0,0.0,0.0,0.0,0.0,0.0,0.0,0.0,0.0,0.0,0.0,0.0,0.0,0.0,0.0,0.0,0.0,0.0,0.0,0.0,0.0,0.0,0.0,0.0,0.0,0.0,0.0,0.0,0.0,0.0,0.0,0.0,0.0,0.0,0.0,0.0,0.0,0.0,0.0,0.0,0.0,0.0,0.0,0.0,0.0,0.0,0.0,0.0,0.0,0.0,0.0,0.0,0.0,0.0,0.0,0.0,0.0,0.0,0.0,0.0,0.0,0.0,0.0,-4.7684,-4.9822,-5.4635,-5.5472,-5.5703,-5.5703,-5.4953,-5.3231,-5.0286,-4.7589,0.0,0.0,0.0,0.0,0.0,0.0,0.0,0.0,0.0,0.0,0.0,0.0,0.0,0.0,0.0,0.0,0.0,0.0,0.0,0.0,0.0,0.0,0.0,0.0,0.0,0.0,0.0,0.0,0.0,0.0,0.0,0.0,0.0,0.0,0.0,0.0,0.0,0.0,0.0,0.0,0.0,0.0,0.0,0.0,0.0,0.0,0.0,0.0,0.0,0.0,0.0,0.0,0.0,0.0,0.0,0.0,0.0,0.0,0.0,0.0,0.0,0.0,0.0,0.0,0.0,0.0,0.0,0.0,0.0,0.0,0.0,0.0,0.0,0.0,0.0,0.0,0.0,0.0,0.0,0.0,0.0,0.0,0.0,0.0,0.0,0.0,0.0,0.0,0.0,0.0,0.0,0.0,0.0,0.0,0.0,0.0,0.0,0.0,0.0,0.0,0.0,0.0,-4.9984,-5.1333,-5.5019,-5.5415,-5.5415,-5.5415,-5.4299,-5.2598,-5.0248,-4.7148,0.0,0.0,0.0,0.0,0.0,0.0,0.0,0.0,0.0,0.0,0.0,0.0,0.0,0.0,0.0,0.0,0.0,0.0,0.0,0.0,0.0,0.0,0.0,0.0,0.0,0.0,0.0,0.0,0.0,0.0,0.0,0.0,0.0,0.0,0.0,0.0,0.0,0.0,0.0,0.0,0.0,0.0,0.0,0.0,0.0,0.0,0.0,0.0,0.0,0.0,0.0,0.0,0.0,0.0,0.0,0.0,0.0,0.0,0.0,0.0,0.0,0.0,0.0,0.0,0.0,0.0,0.0,0.0,0.0,0.0,0.0,0.0,0.0,0.0,0.0,0.0,0.0,0.0,0.0,0.0,0.0,0.0,0.0,0.0,0.0,0.0,0.0,0.0,0.0,0.0,0.0,0.0,0.0,0.0,0.0,0.0,0.0,0.0,0.0,0.0,0.0,0.0,-5.0971,-5.3336,-5.4453,-5.4587,-5.4587,-5.4587,-5.2356,-5.0717,-5.0133,-4.6293,0.0,0.0,0.0,0.0,0.0,0.0,0.0,0.0,0.0,0.0,0.0,0.0,0.0,0.0,0.0,0.0,0.0,0.0,0.0,0.0,0.0,0.0,0.0,0.0,0.0,0.0,0.0,0.0,0.0,0.0,0.0,0.0,0.0,0.0,0.0,0.0,0.0,0.0,0.0,0.0,0.0,0.0,0.0,0.0,0.0,0.0,0.0,0.0,0.0,0.0,0.0,0.0,0.0,0.0,0.0,0.0,0.0,0.0,0.0,0.0,0.0,0.0,0.0,0.0,0.0,0.0,0.0,0.0,0.0,0.0,0.0,0.0,0.0,0.0,0.0,0.0,0.0,0.0,0.0,0.0,0.0,0.0,0.0,0.0,0.0,0.0,0.0,0.0,0.0,0.0,0.0,0.0,0.0,0.0,0.0,0.0,0.0,0.0,0.0,0.0,0.0,0.0,-4.9901,-5.2141,0.0,-5.4491,-5.428,-5.3741,-5.2818,-5.1114,-4.839,0.0,0.0,0.0,0.0,0.0,0.0,0.0,0.0,0.0,0.0,0.0,0.0,0.0,0.0,0.0,0.0,0.0,0.0,0.0,0.0,0.0,0.0,0.0,0.0,0.0,0.0,0.0,0.0,0.0,0.0,0.0,0.0,0.0,0.0,0.0,0.0,0.0,0.0,0.0,0.0,0.0,0.0,0.0,0.0,0.0,0.0,0.0,0.0,0.0,0.0,0.0,0.0,0.0,0.0,0.0,0.0,0.0,0.0,0.0,0.0,0.0,0.0,0.0,0.0,0.0,0.0,0.0,0.0,0.0,0.0,0.0,0.0,0.0,0.0,0.0,0.0,0.0,0.0,0.0,0.0,0.0,0.0,0.0,0.0,0.0,0.0,0.0,0.0,0.0,0.0,0.0,0.0,0.0,0.0,0.0,0.0,0.0,0.0,0.0,0.0,0.0,0.0,-4.6967,-4.9308,-5.1401,0.0,-5.328,-5.2933,-5.2068,-5.126,-4.9614,-4.6896,0.0,0.0,0.0,0.0,0.0,0.0,0.0,0.0,0.0,0.0,0.0,0.0,0.0,0.0,0.0,0.0,0.0,0.0,0.0,0.0,0.0,0.0,0.0,0.0,0.0,0.0,0.0,0.0,0.0,0.0,0.0,0.0,0.0,0.0,0.0,0.0,0.0,0.0,0.0,0.0,0.0,0.0,0.0,0.0,0.0,0.0,0.0,0.0,0.0,0.0,0.0,0.0,0.0,0.0,0.0,0.0,0.0,0.0,0.0,0.0,0.0,0.0,0.0,0.0,0.0,0.0,0.0,0.0,0.0,0.0,0.0,0.0,0.0,0.0,0.0,0.0,0.0,0.0,0.0,0.0,0.0,0.0,0.0,0.0,0.0,0.0,0.0,0.0,0.0,0.0,0.0,0.0,0.0,0.0,0.0,0.0,0.0,0.0,0.0,0.0,0.0,0.0,-4.6328,-4.9601,-5.1568,-5.0789,-5.0693,-5.0327,-4.9452,-4.7076,-4.5696,0.0,0.0,0.0,0.0,0.0,0.0,0.0,0.0,0.0,0.0,0.0,0.0,0.0,0.0,0.0,0.0,0.0,0.0,0.0,0.0,0.0,0.0,0.0,0.0,0.0,0.0,0.0,0.0,0.0,0.0,0.0,0.0,0.0,0.0,0.0,0.0,0.0,0.0,0.0,0.0,0.0,0.0,0.0,0.0,0.0,0.0,0.0,0.0,0.0,0.0,0.0,0.0,0.0,0.0,0.0,0.0,0.0,0.0,0.0,0.0,0.0,0.0,0.0,0.0,0.0,0.0,0.0,0.0,0.0,0.0,0.0,0.0,0.0,0.0,0.0,0.0,0.0,0.0,0.0,0.0,0.0,0.0,0.0,0.0,0.0,0.0,0.0,0.0,0.0,0.0,0.0,0.0,0.0,0.0,0.0,0.0,0.0,0.0,0.0,0.0,0.0,0.0,0.0,-4.5927,-4.8452,-5.0279,-5.0654,-5.0144,-4.9433,-4.8567,-4.7798,-4.6434,-4.4272,0.0,0.0,0.0,0.0,0.0,0.0,0.0,0.0,0.0,0.0,0.0,0.0,0.0,0.0,0.0,0.0,0.0,0.0,0.0,0.0,0.0,0.0,0.0,0.0,0.0,0.0,0.0,0.0,0.0,0.0,0.0,0.0,0.0,0.0,0.0,0.0,0.0,0.0,0.0,0.0,0.0,0.0,0.0,0.0,0.0,0.0,0.0,0.0,0.0,0.0,0.0,0.0,0.0,0.0,0.0,0.0,0.0,0.0,0.0,0.0,0.0,0.0,0.0,0.0,0.0,0.0,0.0,0.0,0.0,0.0,0.0,0.0,0.0,0.0,0.0,0.0,0.0,0.0,0.0,0.0,0.0,0.0,0.0,0.0,0.0,0.0,0.0,0.0,0.0,0.0,0.0,0.0,0.0,0.0,0.0,0.0,0.0,0.0,0.0,0.0,0.0,0.0,-4.4833,-4.7231,-4.8952,-4.9163,-4.8721,-4.8048,-4.7182,-4.7105,-4.5898,-4.3068,0.0,0.0,0.0,0.0,0.0,0.0,0.0,0.0,0.0,0.0,0.0,0.0,0.0,0.0,0.0,0.0,0.0,0.0,0.0,0.0,0.0,0.0,0.0,0.0,0.0,0.0,0.0,0.0,0.0,0.0,0.0,0.0,0.0,0.0,0.0,0.0,0.0,0.0,0.0,0.0,0.0,0.0,0.0,0.0,0.0,0.0,0.0,0.0,0.0,0.0,0.0,0.0,0.0,0.0,0.0,0.0,0.0,0.0,0.0,0.0,0.0,0.0,0.0,0.0,0.0,0.0,0.0,0.0,0.0,0.0,0.0,0.0,0.0,0.0,0.0,0.0,0.0,0.0,0.0,0.0,0.0,0.0,0.0,0.0,0.0,0.0,0.0,0.0,0.0,0.0,0.0,0.0,0.0,0.0,0.0,0.0,0.0,0.0,0.0,0.0,0.0,0.0,-4.344,-4.6016,-4.7615,-4.6915,-4.678,-4.6415,-4.5617,-4.5559,-4.4566,-4.225,0.0,0.0,0.0,0.0,0.0,0.0,0.0,0.0,0.0,0.0,0.0,0.0,0.0,0.0,0.0,0.0,0.0,0.0,0.0,0.0,0.0,0.0,0.0,0.0,0.0,0.0,0.0,0.0,0.0,0.0,0.0,0.0,0.0,0.0,0.0,0.0,0.0,0.0,0.0,0.0,0.0,0.0,0.0,0.0,0.0,0.0,0.0,0.0,0.0,0.0,0.0,0.0,0.0,0.0,0.0,0.0,0.0,0.0,0.0,0.0,-4.68,0.0,0.0,0.0,0.0,0.0,0.0,0.0,0.0,0.0,0.0,0.0,0.0,0.0,0.0,0.0,0.0,0.0,0.0,0.0,0.0,0.0,0.0,0.0,0.0,0.0,0.0,0.0,0.0,0.0,0.0,0.0,0.0,0.0,0.0,0.0,0.0,0.0,0.0,0.0,0.0,0.0,-4.3364,-4.5003,-4.6205,-4.6409,-4.5861,-4.5422,-4.5231,-4.5211,-4.4309,-4.2238,0.0,0.0,0.0,0.0,0.0,0.0,0.0,0.0,0.0,0.0,0.0,0.0,0.0,0.0,0.0,0.0,0.0,0.0,0.0,0.0,0.0,0.0,0.0,0.0,0.0,0.0,0.0,0.0,0.0,0.0,0.0,0.0,0.0,0.0,0.0,0.0,0.0,0.0,0.0,0.0,0.0,0.0,0.0,0.0,0.0,0.0,0.0,0.0,0.0,0.0,0.0,0.0,0.0,0.0,0.0,0.0,0.0,0.0,0.0,0.0,0.0,-4.7301,0.0,0.0,0.0,0.0,0.0,0.0,0.0,0.0,0.0,0.0,0.0,0.0,0.0,0.0,0.0,0.0,0.0,0.0,0.0,0.0,0.0,0.0,0.0,0.0,0.0,0.0,0.0,0.0,0.0,0.0,0.0,0.0,0.0,0.0,0.0,0.0,0.0,0.0,0.0,0.0,-4.2741,-4.4419,-4.5695,-4.5927,-4.5449,-4.5169,-4.5322,-4.5033,-4.4061,-4.2226,-4.1192,0.0,0.0,0.0,0.0,0.0,0.0,0.0,0.0,0.0,0.0,0.0,0.0,0.0,0.0,0.0,0.0,0.0,0.0,0.0,0.0,0.0,0.0,0.0,0.0,0.0,0.0,0.0,0.0,0.0,0.0,0.0,0.0,0.0,0.0,0.0,0.0,0.0,0.0,0.0,0.0,0.0,0.0,0.0,0.0,0.0,0.0,0.0,0.0,0.0,0.0,0.0,0.0,0.0,0.0,-5.4219,-5.4883,-5.4004,-5.3671,-5.3628,-5.0709,-4.9676,-4.9883,0.0,0.0,0.0,0.0,0.0,0.0,0.0,0.0,0.0,0.0,0.0,0.0,0.0,0.0,0.0,0.0,0.0,0.0,0.0,0.0,0.0,0.0,0.0,0.0,0.0,-4.5056,-4.4297,0.0,0.0,0.0,0.0,0.0,0.0,0.0,0.0,0.0,0.0,0.0,0.0,-4.2172,-4.4131,-4.5495,-4.5429,-4.5118,-4.5022,-4.5303,-4.4818,-4.3798,-4.2115,-4.113,-3.9681,0.0,0.0,0.0,0.0,0.0,0.0,0.0,0.0,0.0,0.0,0.0,0.0,0.0,0.0,0.0,0.0,0.0,0.0,0.0,0.0,0.0,0.0,0.0,0.0,0.0,0.0,0.0,0.0,0.0,0.0,0.0,0.0,-4.5594,-4.5594,0.0,0.0,0.0,0.0,0.0,0.0,0.0,0.0,0.0,0.0,0.0,0.0,0.0,0.0,-5.3496,-5.5117,-5.5976,-5.6094,-5.7617,-5.8398,-5.8476,-5.7617,-5.7532,-5.7936,-5.5214,0.0,-5.0773,-4.8897,0.0,0.0,0.0,0.0,0.0,0.0,0.0,0.0,0.0,0.0,0.0,0.0,0.0,0.0,0.0,0.0,0.0,0.0,0.0,0.0,0.0,0.0,-4.546,-4.5575,-4.5518,-4.519,0.0,-4.3682,-4.2923,-4.1794,0.0,0.0,0.0,0.0,0.0,0.0,0.0,0.0,-4.2508,-4.4069,-4.5044,-4.4757,-4.4387,-4.4157,-4.42,-4.4132,-4.3397,-4.1782,-4.1521,-4.0257,-3.7599,-3.6857,0.0,0.0,0.0,0.0,0.0,0.0,0.0,0.0,0.0,0.0,0.0,0.0,0.0,0.0,0.0,0.0,0.0,0.0,0.0,0.0,0.0,0.0,0.0,0.0,0.0,0.0,0.0,0.0,0.0,-4.6009,-4.6144,-4.5671,-4.6215,-4.6444,0.0,0.0,0.0,0.0,0.0,0.0,0.0,0.0,0.0,-5.4101,-5.4648,-5.5312,-5.6172,-5.7422,-5.8281,-5.873,-5.9512,-6.0137,-6.0586,-5.9707,-5.9425,-5.9505,-5.7268,-5.5622,-5.4264,-5.1009,-4.9602,-4.9356,0.0,0.0,0.0,0.0,0.0,-4.5671,-4.6163,0.0,0.0,0.0,0.0,0.0,0.0,0.0,0.0,0.0,0.0,0.0,0.0,0.0,0.0,-4.5479,-4.5594,-4.5498,-4.5114,-4.4739,-4.4105,0.0,-4.3297,-4.3157,-4.0757,0.0,0.0,0.0,0.0,0.0,-4.3248,-4.4527,-4.5253,-4.4919,-4.4713,-4.4424,-4.392,-4.3535,-4.272,-4.1304,-4.0849,-3.9896,-3.8245,-3.7845,-3.7221,0.0,0.0,0.0,0.0,0.0,0.0,0.0,0.0,0.0,0.0,0.0,0.0,0.0,0.0,0.0,0.0,0.0,0.0,0.0,0.0,0.0,0.0,0.0,0.0,0.0,0.0,0.0,0.0,-4.6528,-4.6817,-4.5729,-4.7146,-4.7684,0.0,0.0,0.0,0.0,0.0,0.0,-5.3594,-5.3691,-5.459,-5.6543,-5.7441,-5.8223,-5.8867,-5.9746,-6.0351,-6.0723,-6.0723,-6.1074,-6.168,-6.1035,-6.0539,-6.0112,-5.8457,-5.7528,-5.6886,-5.2723,-5.101,-5.0741,-4.8202,-4.7077,0.0,-4.6163,-4.5787,-4.5691,-4.6336,-4.6567,-4.6509,-4.6067,0.0,-4.5325,-4.3855,0.0,0.0,0.0,0.0,-4.3547,-4.4143,0.0,-4.4797,-4.546,-4.5594,-4.5594,-4.5594,-4.5594,-4.5171,0.0,-4.4412,-4.4431,-4.1797,0.0,0.0,0.0,0.0,-4.3194,-4.3914,-4.4863,-4.539,-4.5137,-4.4821,-4.4384,-4.3726,-4.2959,-4.1922,-4.0528,-4.0107,-3.935,-3.8138,-3.8083,-3.7422,-3.6009,0.0,0.0,0.0,0.0,0.0,0.0,0.0,0.0,0.0,0.0,0.0,0.0,0.0,0.0,0.0,0.0,0.0,0.0,0.0,0.0,0.0,0.0,0.0,0.0,0.0,0.0,0.0,0.0,0.0,-4.5787,-4.8742,0.0,0.0,0.0,0.0,-5.1269,-5.207,-5.3691,-5.6269,-5.6406,-5.7558,-6.0058,-6.0996,-6.1465,-6.1504,-6.2363,-6.2402,-6.1621,-6.1621,-6.166,-6.1699,-6.164,-6.1105,-6.0132,-5.9085,-5.8098,-5.6925,-5.3311,-5.1846,-5.1596,-4.9029,-4.7567,-4.6885,-4.6846,-4.6317,-4.5614,-4.5652,-4.5671,-4.5787,-4.6586,-4.6278,-4.5441,-4.4509,-4.3701,0.0,0.0,-4.3643,-4.4239,-4.4297,-4.4913,-4.5556,-4.5594,-4.5594,-4.5594,-4.5594,-4.5594,-4.5325,0.0,-4.4316,-4.3978,-4.2736,0.0,-4.2524,-4.2493,-4.3248,-4.3933,-4.4243,-4.4776,-4.5118,-4.5096,-4.4061,-4.3372,-4.3335,-4.2309,-4.0961,-3.9307,-3.9649,-3.8836,-3.6523,-3.6413,-3.5991,-3.5078,-3.4321,0.0,0.0,0.0,0.0,0.0,0.0,0.0,0.0,0.0,0.0,0.0,0.0,0.0,0.0,0.0,0.0,0.0,0.0,0.0,0.0,0.0,0.0,0.0,0.0,0.0,0.0,0.0,0.0,-4.8961,-5.1643,0.0,0.0,-5.2882,-5.4141,-5.4707,-5.5547,-5.7168,-5.9746,-5.9355,-6.0234,-6.2832,-6.2676,-6.2539,-6.2539,-6.2832,-6.2558,-6.1699,-6.1699,-6.1699,-6.1699,-6.1699,-6.1144,-6.0132,-5.9143,-5.8137,-5.7002,-5.4583,-5.3241,-5.2549,-5.0548,-4.926,-4.8375,-4.7298,-4.6701,-4.6355,-4.5787,-4.5594,-4.5652,-4.5951,-4.5845,-4.5537,-4.5229,-4.494,-4.471,-4.471,-4.4921,-4.5152,-4.5152,-4.5364,-4.5594,-4.5594,-4.5594,-4.5594,-4.5594,-4.5594,-4.5518,-4.521,-4.5152,-4.4774,-4.3634,-4.3589,-4.3637,-4.3461,-4.3848,-4.4391,-4.5038,-4.4803,-4.4509,-4.4287,-4.3614,-4.2766,-4.1788,-4.0885,-3.9789,-3.8417,-3.7862,-3.7202,-3.634,-3.6303,-3.5993,-3.5334,-3.4833,-3.441,0.0,0.0,0.0,0.0,0.0,0.0,0.0,0.0,0.0,0.0,0.0,0.0,0.0,0.0,0.0,0.0,0.0,0.0,0.0,0.0,0.0,0.0,0.0,0.0,0.0,0.0,-5.176,-5.1164,-5.4105,-5.5622,-5.4187,-5.5595,-5.6855,-5.7422,-5.8262,-5.9609,-6.1582,-6.1152,-6.1621,-6.3379,-6.3144,-6.2851,-6.2558,-6.2851,-6.2558,-6.1699,-6.1699,-6.1543,-6.1269,-6.1269,-6.0558,-5.9313,-5.8578,-5.769,-5.6635,-5.5123,-5.3991,-5.3068,-5.1645,-5.0414,-4.926,-4.8144,-4.7394,-4.6778,-4.5893,-4.5594,-4.5594,-4.5594,-4.5594,-4.5594,-4.5594,-4.5594,-4.5594,-4.5594,-4.5594,-4.5594,-4.5594,-4.5594,-4.5594,-4.5594,-4.5594,-4.5594,-4.5594,-4.5594,-4.5594,-4.5594,-4.5594,-4.5281,-4.4231,-4.419,-4.4112,-4.3558,-4.3933,-4.4367,-4.4574,-4.4407,-4.4102,-4.3618,-4.3029,-4.2085,-4.0669,-3.9755,-3.8651,-3.7175,-3.6602,-3.6084,-3.562,-3.5768,-3.5606,-3.5063,-3.4753,-3.4428,-3.4068,0.0,0.0,0.0,0.0,0.0,0.0,0.0,0.0,0.0,0.0,0.0,0.0,0.0,0.0,0.0,0.0,0.0,0.0,0.0,0.0,0.0,0.0,0.0,-4.8375,-5.1914,-5.3953,-5.2288,-5.6051,-5.7812,-5.5385,-5.7645,-5.9297,-5.9355,-6.0039,-6.084,-6.1777,-6.1738,-6.1738,-6.1816,-6.2598,-6.2598,-6.1758,-6.2578,-6.2558,-6.1699,-6.168,-6.1211,-6.039,-6.0371,-5.9387,-5.7696,-5.7483,-5.6829,-5.5822,-5.4892,-5.3991,-5.3106,-5.2231,-5.0894,-4.9433,-4.9375,-4.8298,-4.674,-4.5893,-4.5594,-4.5594,-4.5594,-4.5594,-4.5594,-4.5594,-4.5594,-4.5594,-4.5594,-4.5594,-4.5594,-4.5594,-4.5594,-4.5594,-4.5594,-4.5594,-4.5594,-4.5594,-4.5594,-4.5594,-4.5556,-4.5556,-4.5306,-4.447,-4.4316,-4.392,-4.2813,-4.3569,0.0,-4.2765,-4.3559,-4.3912,-4.3135,-4.2261,-4.1294,-4.0158,-3.9012,-3.7544,-3.5639,-3.5969,-3.5625,-3.4262,-3.471,-3.4734,-3.4206,-3.3967,-3.3815,-3.3807,0.0,0.0,0.0,0.0,0.0,0.0,0.0,0.0,0.0,0.0,0.0,0.0,0.0,0.0,0.0,0.0,0.0,0.0,0.0,0.0,0.0,0.0,-5.2068,-5.1837,-5.4395,-5.6357,-5.653,-5.8932,-6.055,-6.0497,-6.0805,-6.1543,-6.2793,-6.1933,-6.2265,-6.4414,-6.2734,-6.2578,-6.4473,-6.3535,-6.2871,-6.2637,-6.2871,-6.2558,-6.1699,-6.1055,-6.0625,-6.0371,-5.9805,-5.886,-5.7696,-5.7483,-5.6829,-5.5822,-5.4892,-5.3991,-5.3106,-5.2231,-5.126,-5.0192,-4.8913,-4.7394,-4.5913,-4.5691,-4.5594,-4.5594,-4.5594,-4.5594,-4.5594,-4.5594,-4.5594,-4.5594,-4.5594,-4.5594,-4.5594,-4.5594,-4.5594,-4.5594,-4.5594,-4.5594,-4.5594,-4.5594,-4.5594,-4.5421,-4.4778,-4.4662,-4.4778,-4.5171,-4.472,-4.4184,-4.3873,0.0,0.0,-4.3009,-4.2687,-4.2315,-4.1839,-4.1065,-4.0241,-3.9426,-3.8009,-3.6857,0.0,-3.5258,-3.4606,-3.4225,-3.457,-3.46,-3.4218,-3.4375,-3.4244,0.0,0.0,0.0,0.0,0.0,0.0,0.0,0.0,0.0,0.0,0.0,0.0,0.0,0.0,0.0,0.0,0.0,0.0,0.0,0.0,0.0,0.0,-5.2818,-5.4626,-5.5684,-5.7107,-5.8393,-5.9329,-6.0538,-6.1804,-6.3093,-6.2633,-6.2656,-6.3672,-6.2812,-6.2754,-6.3906,-6.2539,-6.2402,-6.3926,-6.2988,-6.2461,-6.2461,-6.2461,-6.2012,-6.1152,-6.0644,-6.0039,-5.9336,-5.8867,-5.8118,0.0,-5.7022,-5.6578,-5.5791,-5.455,-5.3716,0.0,0.0,0.0,0.0,0.0,-4.699,-4.6086,-4.5729,-4.5594,-4.5594,-4.5594,-4.5594,-4.5594,-4.5594,-4.5594,-4.5594,-4.5594,-4.5594,-4.5594,-4.5594,-4.5594,-4.5594,-4.5594,-4.5594,-4.5594,-4.5594,-4.5306,-4.4921,-4.4393,0.0,0.0,-4.447,-4.4124,-4.3752,-4.3597,-4.3314,-4.2917,0.0,-4.2027,-4.1541,-4.0874,-4.0387,-3.9697,-3.868,-3.7416,0.0,0.0,0.0,-3.4258,-3.4401,-3.4695,0.0,0.0,0.0,-3.426,0.0,0.0,0.0,0.0,-3.3807,-3.3807,0.0,0.0,0.0,0.0,0.0,0.0,0.0,0.0,0.0,0.0,0.0,0.0,0.0,0.0,0.0,0.0,-5.4895,-5.6838,-5.93,-5.9661,-5.9993,-6.0881,-6.1285,-6.2163,-6.392,-6.3429,-6.3086,-6.3281,-6.3027,-6.2598,-6.2012,0.0,0.0,0.0,0.0,-6.1699,-6.1699,-6.1601,-6.1172,-6.039,-6.0215,-5.9336,-5.789,-5.7793,-5.7258,-5.6408,-5.6408,-5.6159,-5.5633,-5.4053,-5.3207,-5.2837,-5.2058,-5.0741,-4.9067,-4.7586,-4.6932,0.0,0.0,0.0,0.0,-4.5594,-4.5594,-4.5594,-4.5594,-4.5594,-4.5594,-4.5594,-4.5594,-4.5594,-4.5594,-4.5594,-4.5594,-4.5594,-4.5594,-4.5594,-4.5594,-4.4998,-4.4412,-4.4316,-4.372,-4.3239,-4.3239,-4.3085,-4.2883,-4.268,-4.2734,0.0,-4.1485,-4.1517,-4.1253,-4.0206,0.0,0.0,-3.8203,-3.7311,-3.6376,-3.5253,-3.4606,-3.4423,-3.4774,-3.5016,-3.486,-3.4258,-3.4265,-3.4117,-3.3807,-3.3807,-3.3807,-3.3807,-3.3807,-3.3807,0.0,0.0,0.0,0.0,0.0,0.0,0.0,0.0,0.0,0.0,0.0,0.0,0.0,0.0,0.0,-5.4761,-5.6665,-5.8434,-6.0281,-6.0643,-6.0778,-6.0978,-6.1896,-6.2932,-6.4004,-6.3429,-6.3574,-6.498,-6.3144,-6.248,-6.373,-6.2461,0.0,-6.2734,-6.207,-6.1699,-6.1699,-6.0996,-6.0566,-6.0371,0.0,0.0,-5.7871,-5.7168,-5.6691,-5.6408,-5.6408,-5.5833,-5.4847,-5.3828,-5.252,-5.1164,-5.0991,-4.9875,-4.8317,-4.799,-4.7009,-4.5825,-4.5671,-4.5594,-4.5594,-4.5594,-4.5594,-4.5594,-4.5594,-4.5594,0.0,-4.5594,-4.5594,-4.5594,-4.5594,-4.5594,-4.5594,-4.5594,-4.5594,-4.5594,-4.5594,-4.5479,-4.5152,-4.4432,-4.4162,-4.4066,-4.4066,-4.2951,-4.2261,-4.2919,-4.1849,-4.1173,-4.1643,-4.1157,-4.0581,-4.0148,-4.0101,-3.9875,-3.9326,-3.829,-3.7298,-3.6433,-3.5255,-3.4832,-3.532,-3.541,-3.5155,-3.4603,-3.4593,-3.433,-3.3807,-3.3807,-3.3807,-3.3807,-3.3807,-3.3807,0.0,0.0,0.0,0.0,0.0,0.0,0.0,0.0,0.0,0.0,0.0,-4.9279,0.0,0.0,-5.4049,-5.6588,-5.8069,-5.9358,-6.0608,-6.101,-6.1449,-6.2298,-6.225,-6.2867,-6.4672,-6.3728,-6.3359,-6.4238,-6.3086,-6.2539,-6.2988,-6.2168,-6.1894,-6.2344,-6.1933,-6.1484,-6.1055,-6.0625,-5.998,-5.914,-5.8301,-5.7676,-5.7226,-5.6797,-5.6561,-5.651,-5.651,-5.5895,-5.478,-5.3339,-5.1932,-5.0712,-5.0712,-4.9625,-4.8009,-4.7163,-4.6317,-4.5594,-4.5594,-4.5594,-4.5594,-4.5594,-4.5594,-4.5594,-4.5594,-4.5594,-4.5594,-4.5594,-4.5594,-4.5594,-4.5594,-4.5287,-4.5056,-4.5498,-4.5267,-4.5075,-4.5518,-4.5267,-4.4816,-4.4374,-4.397,-4.3701,-4.3701,-4.3008,-4.2874,-4.4162,-4.3239,-4.2412,-4.245,-4.2066,-4.1522,-4.0778,-4.058,-4.0423,-4.0257,-3.8566,-3.7216,-3.6543,-3.5494,-3.5088,-3.5486,-3.55,-3.5258,-3.4704,-3.4694,-3.4398,-3.3807,-3.3807,-3.3807,-3.3807,-3.3807,-3.3807,0.0,0.0,0.0,0.0,0.0,0.0,0.0,0.0,-4.7913,-4.8894,-4.9644,-5.0818,-5.3049,-5.4299,-5.5703,-5.7934,-5.9127,-5.9992,-6.0704,-6.1087,-6.1853,-6.3383,-6.252,-6.2656,-6.4883,-6.3828,-6.3008,-6.3008,-6.2832,-6.2441,-6.1738,-6.1699,-6.1699,-6.1699,-6.1699,-6.1289,-6.041,-6.0234,-5.9394,-5.789,-5.7734,-5.7285,-5.6601,-5.6601,-5.6601,-5.6582,-5.621,-5.5592,-5.468,-5.2686,-5.1427,-5.072,-5.0519,-4.949,-4.7952,-4.6586,-4.5883,-4.5594,-4.5594,-4.5594,-4.5594,-4.5594,-4.5594,-4.5594,-4.5594,-4.5594,-4.5594,-4.5594,-4.5594,-4.5594,-4.5594,-4.5075,-4.472,-4.5441,-4.5056,-4.4739,-4.546,-4.5056,-4.4547,-4.4547,-4.4028,-4.3585,-4.3585,-4.3585,-4.3989,-4.5171,-4.4624,-4.3893,-4.3393,-4.3201,-4.2729,-4.1753,-4.1457,-4.1219,-4.0992,-3.8804,-3.7259,-3.6812,-3.5867,-3.5452,-3.5724,-3.5577,-3.5258,-3.4704,-3.4694,-3.4398,-3.3807,-3.3807,-3.3807,-3.3807,-3.3807,-3.3807,-4.5022,-4.5109,-4.5802,-4.6521,-4.6789,-4.7471,0.0,0.0,-5.0721,-5.2299,-5.2722,-5.3106,-5.4164,-5.5645,-5.708,-5.8127,-5.9627,-6.0685,-6.0781,-6.1087,-6.1659,-6.2618,-6.2786,-6.2949,-6.3262,-6.3105,-6.3008,-6.3008,-6.2285,-6.1797,-6.1719,-6.1699,-6.1699,-6.1699,-6.1699,-6.1289,-6.041,-5.9687,-5.8848,-5.789,-5.7129,-5.6699,-5.6601,-5.6601,-5.6601,-5.6504,-5.4846,-5.4042,-5.3791,-5.1837,-5.0971,-5.0778,-4.9891,-4.8952,-4.8086,-4.7894,-4.6874,-4.5594,-4.5594,-4.5594,-4.5594,-4.5594,-4.5594,-4.5594,-4.5594,-4.5594,-4.5594,-4.5594,-4.5594,-4.5594,-4.5594,-4.5537,-4.5479,-4.5575,-4.5537,-4.5479,-4.5575,-4.5518,-4.546,-4.546,-4.5383,-4.5325,-4.5325,-4.5325,-4.5133,-4.4528,-4.3739,-4.3451,-4.4085,-4.3547,-4.3058,-4.2917,-4.2872,-4.241,-4.1349,-3.9671,-3.8651,-3.8518,-3.705,-3.6302,-3.6551,-3.5885,-3.5258,-3.4704,-3.4694,-3.4398,-3.3807,-3.3807,-3.3807,-3.3807,-3.3807,-3.3807,-4.6186,-4.6483,-4.7144,0.0,-4.8355,-4.9394,-5.0462,-5.1048,-5.1741,-5.2953,-5.3606,-5.4376,-5.5703,-5.6934,-5.803,0.0,-6.0012,-6.08,-6.08,-6.0992,-6.1114,-6.1096,-6.1696,-6.2352,-6.2949,-6.2539,-6.2246,-6.2246,-6.1914,-6.1699,-6.1699,-6.1699,-6.1699,-6.1699,-6.1699,-6.1289,-6.041,-5.9609,-5.8769,-5.789,-5.7012,-5.6601,-5.6601,-5.6601,-5.6328,-5.5762,-5.4488,-5.3575,-5.2938,-5.1616,-5.104,-5.0965,-5.0476,-4.9431,-4.816,-4.7601,-4.6644,-4.5594,-4.5594,-4.5594,-4.5594,-4.5594,-4.5594,-4.5594,-4.5594,-4.5594,-4.5594,-4.5594,-4.5594,-4.5594,-4.5594,-4.5229,-4.4979,-4.5479,-4.521,-4.4979,-4.5498,-4.5594,-4.5594,-4.5594,-4.519,-4.4998,-4.5518,-4.519,-4.4893,-4.5037,-4.4759,-4.4489,-4.4316,-4.4451,-4.4119,-4.2928,-4.2529,-4.1859,-4.0702,-3.9695,-3.912,-3.9084,-3.7961,-3.7118,-3.6712,-3.6385,-3.5725,-3.4723,-3.4694,-3.4398,-3.3807,-3.3807,-3.3807,-3.3807,-3.3807,-3.3807,-4.6887,-4.749,0.0,-4.8394,-4.976,-5.1087,-5.1318,-5.2029,-5.2856,-5.3703,-5.4395,-5.5203,-5.6426,-5.7338,-5.8204,-5.905,-5.9877,-6.0531,-6.0762,-6.0761,-6.0534,-6.0059,-6.0512,-6.1154,-6.1875,-6.1797,-6.1699,-6.1699,-6.1699,-6.1699,-6.1699,-6.1699,-6.1699,-6.1699,-6.1699,-6.1289,-6.041,-5.9609,-5.8769,-5.789,-5.7012,-5.6601,-5.6582,-5.6348,-5.5898,-5.5234,-5.4121,-5.3239,-5.2475,-5.1562,-5.1034,-5.0776,-5.061,-4.9475,-4.7867,-4.7155,-4.6355,-4.5594,-4.5594,-4.5594,-4.5594,-4.5594,-4.5594,-4.5594,-4.5594,-4.5594,-4.5594,-4.5594,-4.5594,-4.5594,-4.5594,-4.5133,-4.4816,-4.546,-4.5133,-4.4836,-4.546,-4.5594,-4.5537,-4.5287,-4.494,-4.4778,-4.5171,-4.4921,-4.4874,-4.5498,-4.5594,-4.5364,-4.4739,-4.521,-4.5033,-4.358,-4.2665,-4.1827,-4.1007,-4.0131,-3.9631,-3.9631,-3.8834,-3.7969,-3.7077,-3.6827,-3.6093,-3.4851,-3.4734,-3.4431,-3.3915,-3.3842,-3.3807,-3.3807,-3.3807,-3.3807,-4.6493,0.0,-4.8298,-4.9144,-5.0625,-5.2077,-5.2933,-5.3799,-5.4645,-5.5453,-5.5645,-5.5684,-5.5722,-5.6464,-5.733,-5.8204,-5.9011,-5.9838,-6.0685,-6.0353,-6.0026,-5.9993,-5.9566,-5.9277,0.0,-6.0762,-6.1699,-6.1699,-6.1699,-6.1699,-6.1699,-6.1699,-6.1699,-6.1699,-6.1699,-6.1289,-6.041,-5.9609,-5.8769,-5.789,-5.7012,-5.6601,-5.6562,-5.5723,-5.5332,-5.5195,-5.3476,-5.2715,-5.2617,-5.1615,-5.0733,-5.0012,-4.9747,-4.8558,-4.704,-4.6934,-4.6355,-4.5594,-4.5594,-4.5594,-4.5594,-4.5594,-4.5594,-4.5594,-4.5594,-4.5594,-4.5594,-4.5594,-4.5594,-4.5594,-4.5594,-4.5575,-4.5575,-4.5594,-4.5575,-4.5575,-4.5594,-4.5594,-4.5344,-4.4489,-4.4998,-4.5306,-4.447,-4.5017,-4.5575,-4.5594,-4.5594,-4.5594,-4.5556,-4.5575,-4.5575,-4.5528,-4.4047,-4.3047,-4.3019,-4.1431,-4.0458,-4.0458,-3.9708,-3.8873,-3.8007,-3.7161,-3.6201,-3.5115,-3.4822,-3.4529,-3.4195,-3.3941,-3.3807,-3.3807,-3.3807,-3.3807,-4.7492,0.0,-5.0827,-5.1702,-5.2779,-5.3837,-5.4664,-5.5088,-5.5222,-5.4953,-5.4434,-5.4049,-5.4049,-5.4741,-5.5607,-5.6434,-5.8223,-5.9608,-5.9896,-6.0273,-6.0186,-5.9257,-5.9489,0.0,0.0,0.0,0.0,-6.084,-6.1367,-6.1699,-6.1699,-6.1699,-6.1699,-6.1699,-6.1699,-6.1289,-6.041,-5.9609,-5.8769,-5.789,-5.7012,-5.6308,-5.5723,-5.543,-5.4668,-5.3535,-5.2949,-5.2363,-5.1777,-5.0895,-5.0385,-5.0069,-4.9289,-4.8285,-4.7245,-4.7132,-4.6526,-4.573,-4.5627,-4.5594,-4.5594,-4.5594,-4.5594,-4.5594,-4.5594,-4.5594,-4.5594,-4.5594,-4.5594,-4.5594,-4.5594,-4.5594,-4.5594,-4.5594,-4.5594,-4.5594,-4.5594,-4.5594,-4.5518,-4.5229,-4.494,-4.4816,-4.5114,-4.494,-4.494,-4.5518,-4.5594,-4.5594,-4.5594,-4.5094,-4.4739,-4.4739,-4.3239,-4.2239,-4.2239,-4.1162,-4.0496,-4.0496,-4.0246,-3.9477,-3.8065,-3.7719,-3.6784,-3.5124,-3.5008,-3.4822,-3.4529,-3.4442,-3.4284,-3.4068,-3.4068,-3.3974,-4.8769,-5.0664,-5.2558,-5.3453,-5.4299,-5.5049,-5.5568,-5.5472,-5.503,-5.4203,-5.3337,-5.2645,-5.2356,-5.276,-5.3606,-5.503,-5.6896,-5.8454,-5.9377,-5.9774,-5.9775,-5.9231,-5.9162,0.0,0.0,0.0,0.0,-6.0371,-6.0918,-6.1367,-6.168,-6.1699,-6.1699,-6.1699,-6.1699,-6.1289,-6.041,-5.9609,-5.8613,-5.7422,-5.6875,-5.6133,-5.5293,-5.498,-5.4043,-5.2676,-5.2363,-5.1758,-5.0937,-5.041,-4.9824,-4.9199,-4.8509,-4.7708,-4.6923,-4.6777,-4.6353,-4.5826,-4.5703,-4.5643,-4.5594,-4.5594,-4.5594,-4.5594,-4.5594,-4.5594,-4.5594,-4.5594,-4.5594,-4.5594,-4.5594,-4.5594,-4.5594,-4.5594,-4.5594,-4.5594,-4.5594,-4.5594,-4.5518,-4.521,-4.4932,-4.4836,-4.5094,-4.494,-4.4951,-4.5518,-4.5594,-4.5594,-4.5594,-4.5114,-4.4759,-4.4759,-4.3258,-4.2258,-4.2258,-4.1181,-4.0496,-4.0496,-4.0496,-3.9746,-3.8065,-3.8007,-3.7122,-3.5277,-3.5138,-3.5027,-3.4832,-3.4763,-3.4582,-3.4379,-3.4379,-3.4295,-5.0354,-5.2145,-5.3645,-5.4434,-5.5203,-5.5742,-5.5665,-5.5011,-5.4164,-5.326,-5.2327,-5.1462,0.0,0.0,-5.1443,-5.3914,-5.5088,-5.6569,-5.9088,-5.8925,-5.8905,0.0,0.0,0.0,0.0,0.0,0.0,-6.0332,0.0,-6.0781,-6.164,-6.1699,-6.168,-6.1621,-6.1621,-6.1191,-6.0273,-5.9473,-5.8242,-5.6601,-5.6601,-5.6113,-5.5215,-5.4375,-5.3496,-5.2598,-5.1758,-5.0937,-5.0195,-5.0156,-4.9121,-4.7578,-4.7401,-4.6837,-4.6087,-4.5974,-4.5916,-4.5894,-4.5838,-4.5725,-4.561,-4.5612,-4.5612,-4.5612,-4.5594,-4.5594,-4.5594,-4.5594,-4.5594,-4.5594,-4.5594,-4.5594,-4.5594,-4.5594,-4.5594,-4.5594,-4.5594,-4.5594,-4.5364,-4.4528,-4.5037,-4.5344,-4.4509,-4.5056,-4.5594,-4.5594,-4.5594,-4.5594,-4.5594,-4.5594,-4.5594,-4.5594,-4.4143,-4.3143,-4.3104,-4.1527,-4.0554,-4.0496,-4.0496,-3.9746,-3.8065,-3.8007,-3.7219,-3.5538,-3.5239,-3.5122,-3.5122,-3.487,-3.4724,-3.4714,-3.4714,-3.4704,-5.3385,-5.5222,-5.6896,-5.6472,-5.6522,-5.6349,-5.5088,-5.4145,-5.3106,-5.1645,-5.0125,-4.8817,0.0,0.0,0.0,-5.1462,-5.3933,0.0,-5.8338,-5.8971,0.0,-5.9937,0.0,-5.9354,-5.9218,-5.9199,0.0,0.0,-6.039,-6.0781,-6.164,-6.1699,-6.1406,-6.0742,-6.0723,-6.0039,-5.8555,-5.7695,-5.7031,-5.6601,-5.6601,-5.5801,-5.4316,-5.4101,-5.3164,-5.1719,-5.1504,-5.0937,-5.0156,-4.9492,-4.8594,-4.7539,-4.6854,-4.6442,-4.6247,-4.6202,-4.6122,-4.6042,-4.6021,-4.5946,-4.5822,-4.5776,-4.5747,-4.5725,-4.5627,-4.5594,-4.5594,-4.5594,-4.5594,-4.5594,-4.5594,-4.5594,-4.5594,-4.5594,-4.5594,-4.5594,-4.5594,-4.5594,-4.5537,-4.5306,-4.546,-4.5537,-4.5306,-4.546,-4.5594,-4.5594,-4.5594,-4.5594,-4.5594,-4.5594,-4.5594,-4.5594,-4.4643,-4.3758,-4.3143,-4.2104,-4.1181,-4.0535,-4.0496,-3.9746,-3.8065,-3.8007,-3.7219,-3.5538,-3.5432,-3.5391,-3.5391,-3.532,-3.5198,-3.499,-3.499,-3.4898,-5.5491,-5.6915,-5.8088,-5.7234,-5.7003,-5.6464,-5.4395,-5.326,-5.1952,-4.9529,-4.7952,0.0,-4.5451,0.0,0.0,0.0,0.0,0.0,-5.7434,-5.8454,-5.9212,0.0,-5.991,0.0,-6.0196,-5.9852,-6.0013,0.0,-6.0625,-6.0781,-6.164,-6.1348,-6.0918,-6.043,-6.0058,-5.9238,-5.791,-5.7031,-5.6601,-5.6601,-5.6211,-5.5312,-5.3984,-5.3594,-5.2695,-5.1387,0.0,-5.0391,-4.9551,-4.8691,-4.7812,-4.6973,-4.6484,-4.6308,-4.6308,-4.6308,-4.6248,-4.6198,-4.6198,-4.6144,-4.6042,-4.5891,-4.5847,-4.5819,-4.5718,-4.5696,-4.568,-4.562,-4.5594,-4.5594,-4.5594,-4.5594,-4.5594,-4.5594,-4.5594,-4.5594,-4.5594,-4.5594,-4.5594,-4.5594,-4.5594,-4.5594,-4.5594,-4.5594,-4.5594,-4.5594,-4.5594,-4.5594,-4.5594,-4.5594,-4.5594,-4.5594,-4.4816,-4.397,-4.3162,-4.2297,-4.1431,-4.0554,-4.0169,-3.9381,-3.8046,-3.7623,-3.6808,-3.5538,-3.55,-3.55,-3.55,-3.55,-3.5424,-3.5281,-3.5281,-3.5198,-5.7137,-5.7973,-5.8396,-5.7426,-5.7099,-5.6299,-5.3626,-5.2173,-5.05,-4.7375,0.0,-4.4825,-4.3374,-4.447,-4.6441,-4.899,0.0,-5.401,-5.6791,-5.7819,-5.8717,-5.9837,-5.996,-6.0376,-6.141,-6.0818,-6.0731,-6.1621,-6.0996,-6.0859,-6.1484,-6.0801,-6.0293,-6.0078,-5.9277,-5.8496,-5.7734,-5.6973,-5.6543,-5.6426,-5.5664,-5.4785,-5.3808,-5.293,-5.2051,-5.1191,0.0,0.0,-4.8672,-4.791,-4.709,-4.6308,-4.6308,-4.6308,-4.6308,-4.6308,-4.6308,-4.6308,-4.6308,-4.6308,-4.6268,-4.6001,-4.5924,-4.5903,-4.5844,-4.5815,-4.5783,-4.5677,-4.5624,-4.5637,-4.5637,-4.5612,-4.5594,-4.5594,-4.5594,-4.5594,-4.5594,-4.5594,-4.5594,-4.5594,-4.5594,-4.5594,-4.5594,-4.5594,-4.5594,-4.5594,-4.5594,-4.5594,-4.5594,-4.5594,-4.5594,-4.5594,-4.4816,-4.397,-4.3162,-4.2297,-4.1431,-4.0554,-3.9842,-3.9015,-3.8046,-3.7276,-3.6442,-3.5519,-3.55,-3.55,-3.55,-3.55,-3.55,-3.55,-3.55,-3.55,-5.9031,-5.9704,-5.9992,-5.8454,-5.753,-5.6135,-5.2865,-5.0385,0.0,0.0,-4.4605,-4.3431,-4.3143,-4.447,-4.6441,-4.899,-5.0933,-5.3519,0.0,0.0,-5.8909,0.0,0.0,0.0,0.0,0.0,0.0,0.0,0.0,0.0,-6.0664,-6.0488,-5.9765,-5.8379,-5.75,-5.6973,-5.6836,-5.668,-5.623,-5.5527,-5.5371,-5.4473,-5.2891,-5.2012,-5.1172,-5.0351,0.0,0.0,-4.7812,-4.7656,-4.709,-4.6308,-4.6308,-4.6308,-4.6308,-4.6308,-4.6308,-4.6308,-4.6308,-4.6308,-4.6269,-4.6117,-4.6072,-4.6039,-4.5927,-4.5886,-4.5881,-4.5842,-4.5807,-4.5775,-4.5775,-4.5669,-4.5594,-4.5594,-4.5594,-4.5594,-4.5594,-4.5594,-4.5594,-4.5594,-4.5594,-4.5594,-4.5594,-4.5594,-4.5594,-4.5594,-4.5594,-4.5594,-4.5594,-4.5594,-4.5594,-4.5594,-4.4816,-4.397,-4.3162,-4.2297,-4.1431,-4.0554,-4.0362,-3.9611,-3.8065,-3.7853,-3.7065,-3.5538,-3.55,-3.55,-3.55,-3.55,-3.55,-3.55,-3.55,-3.55,-6.005,-6.0473,-6.0396,-5.8723,-5.7646,-5.5992,-5.2145,0.0,0.0,0.0,-4.3662,-4.297,-4.2508,-4.4162,0.0,-4.7836,-4.951,0.0,0.0,0.0,0.0,0.0,0.0,0.0,0.0,0.0,0.0,0.0,0.0,0.0,-6.043,-5.957,-5.8515,-5.7265,-5.6816,-5.6601,-5.6601,-5.6152,-5.5703,-5.5293,-5.4375,-5.3262,-5.1992,-5.1152,-5.0312,-4.9473,0.0,0.0,-4.7558,-4.7109,-4.668,-4.6308,-4.6308,-4.6308,-4.6308,-4.6308,-4.6308,-4.6308,-4.6308,-4.6308,-4.6289,-4.6224,-4.6201,-4.6175,-4.6042,-4.5998,-4.5988,-4.5916,-4.5877,-4.5847,-4.5803,-4.5783,-4.5724,-4.5627,-4.5594,-4.5594,-4.5594,-4.5594,-4.5594,-4.5594,-4.5594,-4.5594,-4.5594,-4.5594,-4.5594,-4.5594,-4.5594,-4.5594,-4.5594,-4.5594,-4.5594,-4.5594,-4.4816,-4.397,-4.3162,-4.2297,-4.1431,-4.0554,-3.9688,-3.8834,-3.8027,-3.7161,-3.6327,-3.5519,-3.55,-3.55,-3.55,-3.55,-3.55,-3.55,-3.55,-3.55,-6.0339,-6.0666,-6.0396,-5.8723,-5.7492,-5.5656,-5.1616,-4.9221,0.0,0.0,-4.322,-4.2931,-4.2431,-4.397,-4.572,0.0,-4.8259,-5.0087,0.0,0.0,0.0,0.0,0.0,0.0,0.0,0.0,0.0,0.0,0.0,0.0,0.0,-5.8437,-5.7305,-5.6621,-5.6601,-5.6504,-5.6328,-5.5644,-5.5117,-5.4726,-5.3359,-5.2246,-5.1367,-5.0371,-4.9551,-4.8848,0.0,0.0,0.0,-4.6582,-4.6308,-4.6308,-4.6308,-4.6308,-4.6308,-4.6308,-4.6308,-4.6308,-4.6308,-4.6308,-4.6308,-4.6308,-4.6308,-4.6289,-4.6174,-4.6145,-4.6117,-4.6024,-4.5971,-4.5935,-4.5875,-4.5886,-4.5852,-4.5694,-4.5658,-4.5661,-4.566,-4.5643,-4.5635,-4.5603,-4.5594,-4.5594,-4.5594,-4.5594,-4.5594,-4.5594,-4.5594,-4.5594,-4.5594,-4.5594,-4.5594,-4.5594,-4.4662,-4.3701,-4.2893,-4.2027,-4.1239,-4.0535,-3.9104,-3.818,-3.8007,-3.6558,-3.5673,-3.55,-3.55,-3.55,-3.55,-3.55,-3.55,-3.55,-3.55,-3.55,-5.9608,-6.0204,-6.0396,-5.8723,-5.7049,-5.4914,-5.1481,0.0,0.0,-4.4586,-4.3605,-4.3297,-4.3951,-4.4259,-4.5201,-4.7605,0.0,-4.9394,0.0,0.0,0.0,0.0,0.0,0.0,0.0,0.0,0.0,0.0,0.0,0.0,0.0,-5.7226,-5.668,-5.6601,-5.6601,-5.6211,-5.543,-5.5332,-5.4512,-5.2949,-5.2773,-5.2246,-5.1348,-4.9746,-4.8984,-4.8808,0.0,0.0,0.0,-4.6328,-4.6308,-4.6308,-4.6308,-4.6308,-4.6308,-4.6308,-4.6308,-4.6308,-4.6308,-4.6308,-4.6308,-4.6308,-4.6308,-4.6308,-4.6289,-4.6289,-4.6289,-4.6268,-4.6174,-4.608,-4.6075,-4.5985,-4.5894,-4.5872,-4.5867,-4.5852,-4.579,-4.5776,-4.5747,-4.561,-4.5594,-4.5594,-4.5594,-4.5594,-4.5594,-4.5594,-4.5594,-4.5594,-4.5594,-4.5594,-4.5594,-4.5594,-4.4162,-4.2854,-4.1981,-4.1123,-4.0593,-4.0516,-3.9669,-3.8834,-3.8027,-3.7084,-3.625,-3.5519,-3.55,-3.55,-3.55,-3.55,-3.55,-3.55,-3.55,-3.55,-5.8492,-5.9377,-5.9627,-5.7934,-5.6242,-5.4222,-5.1347,0.0,-4.6413,-4.4662,-4.4047,-4.3912,-4.4239,-4.472,-4.5413,-4.6432,0.0,0.0,-4.9798,0.0,0.0,0.0,0.0,0.0,0.0,0.0,0.0,0.0,0.0,0.0,0.0,-5.6504,-5.6113,-5.5078,-5.5547,-5.539,-5.4531,-5.4004,-5.3398,-5.2695,-5.168,-5.0742,-4.9844,-4.8652,-4.7832,-4.7305,0.0,0.0,0.0,-4.6308,-4.6308,-4.6308,-4.6308,-4.6308,-4.6308,-4.6308,-4.6308,-4.6308,-4.6308,-4.6308,-4.6211,-4.5683,-4.5527,-4.5527,-4.5527,-4.5879,-4.6191,-4.5664,-4.5858,-4.6201,-4.6117,-4.5995,-4.5916,-4.5998,-4.5967,-4.5885,-4.5876,-4.5861,-4.5845,-4.5788,-4.5776,-4.5776,-4.5776,-4.5776,-4.5777,-4.5725,-4.573,-4.5492,-4.49,-4.5287,-4.5017,-4.3489,-4.3181,-4.297,-4.2604,-4.1296,-4.0496,-4.0496,-3.9746,-3.8911,-3.8046,-3.7161,-3.6327,-3.5519,-3.55,-3.55,-3.55,-3.55,-3.55,-3.55,-3.55,-3.55,-5.6838,-5.8146,-5.88,-5.7368,-5.5549,-5.351,0.0,0.0,-4.649,-4.4989,-4.4682,-4.4682,-4.4682,-4.4979,-4.5229,0.0,0.0,-4.572,-4.7163,0.0,0.0,0.0,0.0,0.0,0.0,0.0,0.0,0.0,0.0,0.0,0.0,-5.5263,-5.5164,-5.398,-5.457,-5.4472,-5.357,-5.2988,-5.2441,-5.1953,-5.0762,-4.9746,-4.8867,-4.8008,-4.7266,0.0,0.0,0.0,0.0,-4.6308,-4.6308,-4.6308,-4.6308,-4.6308,-4.6308,-4.6308,-4.6308,-4.6308,-4.6308,-4.6133,-4.5859,-4.5508,-4.5215,-4.4941,-4.4687,-4.5215,-4.584,-4.5488,-4.582,-4.6289,-4.6177,-4.6084,-4.6042,-4.6144,-4.6084,-4.6001,-4.5974,-4.5967,-4.5959,-4.5907,-4.5899,-4.5899,-4.5899,-4.5872,-4.585,-4.5816,-4.5775,-4.5399,-4.4419,-4.4836,-4.4432,-4.2412,-4.2508,-4.2604,-4.2354,-4.1208,-4.0496,-4.0496,-3.9496,-3.8642,-3.8027,-3.6923,-3.6077,-3.5519,-3.55,-3.55,-3.55,-3.55,-3.55,-3.55,-3.55,-3.55,-5.453,-5.6395,-5.8107,-5.7234,-5.5088,-5.2779,0.0,-4.8721,-4.6644,-4.5768,-4.5594,-4.5594,-4.5594,-4.4893,-4.4316,-4.4316,-4.4316,0.0,-4.5498,0.0,0.0,0.0,0.0,0.0,0.0,0.0,0.0,0.0,0.0,0.0,0.0,0.0,-5.3677,-5.3801,-5.394,-5.353,-5.2533,-5.2631,-5.1875,-5.0234,-5.0215,-4.9746,-4.8867,-4.8008,0.0,0.0,0.0,0.0,0.0,-4.6308,-4.6308,-4.6308,-4.6308,-4.6308,-4.6308,-4.6308,-4.6308,-4.6308,-4.6308,-4.5742,-4.5156,-4.6016,-4.5703,-4.4844,-4.3984,-4.4316,-4.5195,-4.6055,-4.6289,-4.6308,-4.6308,-4.6308,-4.6308,-4.6308,-4.6308,-4.6268,-4.614,-4.6108,-4.6069,-4.592,-4.5899,-4.5899,-4.5899,-4.5828,-4.5803,-4.5803,-4.5696,-4.5287,-4.4412,-4.4316,-4.3989,-4.3162,-4.2316,-4.147,-4.0593,-4.0516,-4.0496,-4.0496,-3.8931,-3.8007,-3.8007,-3.6404,-3.5519,-3.55,-3.55,-3.55,-3.55,-3.55,-3.55,-3.55,-3.55,-3.55,-5.1568,-5.2895,-5.3741,-5.2895,-5.1645,-5.0317,-4.9183,-4.7875,-4.6644,-4.5787,-4.5594,-4.5594,-4.5594,-4.5364,-4.519,-4.519,-4.519,0.0,0.0,0.0,0.0,0.0,0.0,0.0,0.0,0.0,0.0,0.0,0.0,0.0,0.0,0.0,-5.1924,-5.2021,-5.2024,-5.1587,-5.0657,-5.0191,-4.9708,-4.9161,-4.865,-4.8281,-4.7988,-4.7109,0.0,0.0,0.0,0.0,0.0,-4.6308,-4.6308,-4.6308,-4.6308,-4.6308,-4.6308,-4.6308,-4.6308,-4.6308,-4.6308,-4.6113,-4.5742,-4.4824,-4.4336,-4.3945,-4.3086,-4.3848,-4.5058,-4.5332,-4.584,-4.6308,-4.6308,-4.6308,-4.6308,-4.6308,-4.6308,-4.6289,-4.6247,-4.6245,-4.6224,-4.6177,-4.6174,-4.6174,-4.6174,-4.6072,-4.578,-4.5138,-4.4924,-4.4291,-4.2794,-4.3104,-4.2931,-4.1477,-4.1604,-4.17,-4.1412,-4.0835,-4.0496,-4.0496,-3.9996,-3.9181,-3.8046,-3.7488,-3.6673,-3.5519,-3.55,-3.55,-3.55,-3.55,-3.55,-3.55,-3.55,-3.55,-4.8625,-5.0337,-5.1337,-5.0827,-4.9798,0.0,-4.8221,-4.7221,-4.6259,-4.571,-4.5594,-4.5498,-4.5171,-4.4863,-4.4547,-4.422,-4.4162,0.0,0.0,0.0,0.0,0.0,0.0,0.0,0.0,0.0,0.0,0.0,0.0,0.0,0.0,0.0,-5.0353,-5.0112,-5.0426,-5.0174,-4.9238,-4.915,-4.8785,-4.8125,-4.7714,-4.7357,-4.7026,0.0,0.0,0.0,0.0,0.0,0.0,-4.6308,-4.6308,-4.6269,-4.5937,-4.6016,-4.6211,-4.5566,-4.5742,-4.6211,-4.5547,-4.5312,-4.5137,-4.4043,-4.3476,-4.3105,-4.2558,-4.3398,-4.457,-4.4902,-4.5391,-4.5898,-4.6211,-4.6308,-4.6308,-4.6308,-4.6308,-4.6308,-4.6308,-4.6308,-4.6308,-4.6308,-4.6308,-4.6308,-4.6308,-4.6198,-4.5902,-4.531,-4.4856,-4.405,-4.2589,-4.2589,-4.2183,-4.0759,-4.11,-4.1402,-4.1391,-4.0843,-4.0496,-4.0496,-4.0227,-3.9438,-3.8065,-3.768,-3.6892,-3.5538,-3.55,-3.55,-3.55,-3.55,-3.55,-3.55,-3.55,-3.55,0.0,-4.8355,-5.0173,-5.0231,0.0,0.0,-4.774,-4.6586,0.0,-4.5518,-4.5556,-4.5344,-4.4528,-4.372,-4.2912,-4.2115,0.0,0.0,0.0,0.0,0.0,0.0,0.0,0.0,0.0,0.0,0.0,0.0,0.0,0.0,0.0,0.0,0.0,-4.8215,-4.9104,-4.9149,-4.8203,-4.9077,-4.8701,-4.7105,-4.7223,-4.6867,-4.6091,0.0,0.0,0.0,0.0,0.0,0.0,-4.623,-4.6211,-4.6113,-4.5254,-4.5391,-4.5918,-4.4297,-4.4726,-4.5879,-4.4258,-4.3691,-4.3691,-4.3633,-4.3027,-4.2305,-4.2305,-4.293,-4.3789,-4.4668,-4.4941,-4.5195,-4.6074,-4.6308,-4.6289,-4.6211,-4.625,-4.6289,-4.6211,-4.6269,-4.6308,-4.6308,-4.6308,-4.6308,-4.6308,-4.6198,-4.6089,-4.6011,-4.5205,-4.4299,-4.3428,-4.2548,-4.1707,-4.0894,-4.0797,-4.0775,-4.0707,-4.0582,-4.0492,-4.0419,-3.9765,-3.8931,-3.795,-3.7199,-3.6385,-3.5519,-3.55,-3.5507,-3.5501,-3.5507,-3.55,-3.55,-3.55,-3.5507,-4.3778,0.0,-4.5028,-4.5643,-4.5028,-4.4278,0.0,-4.4451,-4.4605,-4.4605,-4.5152,-4.5537,-4.5325,-4.4605,-4.3951,-4.3758,0.0,0.0,0.0,0.0,0.0,0.0,0.0,0.0,0.0,0.0,0.0,0.0,0.0,0.0,0.0,0.0,0.0,-4.7223,-4.7455,-4.7475,-4.7223,-4.6899,-4.6525,-4.6137,-4.6216,-4.6193,-4.6108,0.0,0.0,0.0,0.0,0.0,0.0,-4.5586,-4.5312,-4.5215,-4.4355,-4.4121,-4.4258,-4.3848,-4.3965,-4.4258,-4.3848,-4.3691,-4.3594,-4.293,-4.2148,-4.1484,-4.1484,-4.2051,-4.2891,-4.3769,-4.4492,-4.5195,-4.6074,-4.6308,-4.6133,-4.5469,-4.5801,-4.6113,-4.5449,-4.582,-4.6308,-4.6308,-4.6308,-4.6308,-4.6308,-4.6198,-4.5896,-4.5273,-4.4332,-4.3389,-4.2517,-4.1638,-4.1031,-4.0817,-4.0797,-4.0789,-4.0779,-4.0693,-4.0359,-3.9638,-3.9977,-3.9238,-3.7077,-3.745,-3.7007,-3.5538,-3.55,-3.5528,-3.5577,-3.5528,-3.55,-3.55,-3.55,-3.5534,-4.2874,-4.3662,-4.4355,-4.4778,-4.4566,-4.4143,-4.3739,-4.3989,-4.4201,-4.3835,-4.4124,-4.4335,-4.3932,-4.3797,0.0,0.0,0.0,0.0,0.0,0.0,0.0,0.0,0.0,0.0,0.0,0.0,0.0,0.0,0.0,0.0,0.0,0.0,0.0,0.0,-4.6297,-4.6297,-4.6297,-4.6301,-4.6094,-4.5715,-4.5814,-4.5891,-4.5955,0.0,0.0,0.0,0.0,0.0,-4.5558,-4.4745,-4.4394,-4.4316,-4.3437,-4.3359,-4.3613,-4.2832,-4.3047,-4.3594,-4.2812,-4.2558,-4.248,-4.1992,-4.1543,-4.1191,-4.1191,-4.1504,-4.2012,-4.2871,-4.3437,-4.4101,-4.5371,-4.5703,-4.5683,-4.5605,-4.5957,-4.6172,-4.5703,-4.5976,-4.6308,-4.6308,-4.6308,-4.6308,-4.6308,-4.5914,-4.5457,-4.5009,-4.38,-4.2765,-4.2299,-4.1497,-4.0988,-4.0988,-4.0988,-4.0957,-4.0905,-4.0855,-4.0582,-4.002,-4.0395,-3.9679,-3.7525,-3.7898,-3.7337,-3.5629,-3.559,-3.5611,-3.5657,-3.5611,-3.559,-3.559,-3.559,-3.5611,-4.2816,-4.4316,-4.5402,-4.5402,-4.5306,-4.4998,-4.4124,-4.4028,-4.3893,-4.3066,-4.3008,-4.2874,0.0,-4.2604,0.0,0.0,0.0,0.0,0.0,0.0,0.0,0.0,0.0,0.0,0.0,0.0,0.0,0.0,0.0,0.0,0.0,0.0,0.0,0.0,-4.5594,-4.5594,-4.5594,-4.6336,-4.6336,-4.5594,-4.5723,-4.5718,-4.559,-4.5666,0.0,0.0,0.0,0.0,-4.4538,-4.3781,-4.3495,-4.3398,-4.2558,-4.2676,-4.3144,-4.1719,-4.2109,-4.3125,-4.1699,-4.1191,-4.1191,-4.1191,-4.1191,-4.1191,-4.1191,-4.1191,-4.1348,-4.2012,-4.2402,-4.2949,-4.4414,-4.4902,-4.5156,-4.5762,-4.5996,-4.6094,-4.6094,-4.6094,-4.6094,-4.6094,-4.6094,-4.6094,-4.6094,-4.5605,-4.5156,-4.5019,-4.3633,-4.2558,-4.2422,-4.1699,-4.1191,-4.1191,-4.1191,-4.115,-4.1049,-4.0909,-4.0773,-4.0672,-4.0641,-3.9863,-3.8171,-3.796,-3.7212,-3.5762,-3.5713,-3.5713,-3.5723,-3.5713,-3.5707,-3.5707,-3.5707,-3.5713,-4.3662,-4.4297,-4.4489,-4.4489,-4.3989,-4.3258,-4.2393,-4.2758,-4.3047,-4.2181,0.0,0.0,0.0,-4.3008,-4.3066,0.0,0.0,0.0,0.0,0.0,0.0,0.0,0.0,0.0,0.0,0.0,0.0,0.0,0.0,0.0,0.0,0.0,0.0,0.0,0.0,-4.5594,-4.5594,-4.5729,-4.5729,-4.5594,-4.5629,-4.5299,-4.4699,-4.4704,-4.4364,0.0,0.0,0.0,-4.3571,-4.2824,-4.2511,-4.2437,-4.1678,-4.1465,-4.1543,-4.1289,-4.1367,-4.1543,-4.1289,-4.1191,-4.1191,-4.1191,-4.1191,-4.1191,-4.1191,-4.1191,-4.123,-4.1348,-4.2402,-4.3555,-4.3828,-4.4453,-4.4844,-4.4238,-4.4668,-4.5195,-4.5195,-4.5195,-4.5195,-4.5195,-4.5195,-4.5195,-4.5195,-4.5703,-4.5859,-4.5117,-4.4141,-4.3223,-4.248,-4.1699,-4.1191,-4.1191,-4.1191,-4.1191,-4.1171,-4.0487,-4.0057,-4.0036,-3.9884,-3.9004,-3.7272,-3.6482,-3.603,-3.5871,-3.5761,-3.5758,-3.5871,-3.5758,-3.5707,-3.5707,-3.5707,-3.5761,-4.2629,-4.2951,-4.3162,-4.4066,-4.4374,-4.422,-4.3355,-4.3451,-4.3508,-4.2681,0.0,0.0,0.0,0.0,-4.3393,0.0,0.0,0.0,0.0,0.0,0.0,0.0,0.0,0.0,0.0,0.0,0.0,0.0,0.0,0.0,0.0,0.0,0.0,0.0,0.0,0.0,-4.4239,-4.4239,-4.447,-4.4893,-4.4893,-4.449,-4.3735,-4.3735,-4.3554,0.0,0.0,-4.2636,-4.2587,-4.1804,-4.149,-4.1457,-4.1205,-4.1082,-4.1103,-4.1171,-4.1191,-4.1191,-4.1191,-4.1191,-4.1191,-4.1191,-4.1191,-4.1191,-4.1191,-4.1191,-4.1191,-4.1191,-4.1758,-4.2441,-4.2871,-4.3281,-4.3613,-4.3672,-4.4004,-4.4433,-4.4902,-4.5,-4.5,-4.5,-4.5,-4.4844,-4.4375,-4.4238,-4.4062,-4.3652,-4.2871,-4.2207,-4.1797,-4.1426,-4.1191,-4.1191,-4.1191,-4.1191,-4.1191,-4.0391,-3.9707,-3.9238,-3.8677,-3.7993,-3.7196,-3.6337,-3.5897,-3.5949,-3.5899,-3.5897,-3.5949,-3.5897,-3.5851,-3.5851,-3.5851,-3.5899,-4.1923,-4.1963,-4.22,-4.3874,-4.4662,-4.4902,-4.4412,-4.4143,-4.3835,-4.3239,0.0,0.0,0.0,-4.297,0.0,0.0,0.0,0.0,0.0,0.0,0.0,0.0,0.0,0.0,0.0,0.0,0.0,0.0,0.0,0.0,0.0,0.0,0.0,0.0,0.0,0.0,-4.3104,-4.3104,-4.3412,-4.4028,-4.4028,-4.3585,-4.2797,-4.2797,-4.2681,-4.2439,-4.1684,-4.1377,-4.1313,-4.0728,-4.0472,-4.05,-4.083,-4.0955,-4.0942,-4.0862,-4.0952,-4.115,-4.115,-4.115,-4.115,-4.115,-4.1128,-4.1104,-4.1104,-4.1104,-4.1104,-4.1104,-4.1104,-4.1263,-4.1933,-4.2266,-4.2578,-4.3242,-4.3398,-4.3633,-4.4512,-4.4531,-4.4394,-4.4394,-4.4394,-4.418,-4.3516,-4.3008,-4.2637,-4.2422,-4.1875,-4.1406,-4.1211,-4.1191,-4.1191,-4.1191,-4.1191,-4.1035,-4.0625,-3.9785,-3.8926,-3.8047,-3.7363,-3.6992,-3.6992,-3.6348,-3.5996,-3.5996,-3.5996,-3.5996,-3.5996,-3.5996,-3.5996,-3.5996,-3.5996,-3.5996,-4.2886,-4.2454,-4.22,-4.3874,-4.3797,-4.3451,-4.4143,-4.372,-4.3162,-4.3104,0.0,0.0,0.0,0.0,0.0,0.0,0.0,0.0,0.0,0.0,0.0,0.0,0.0,0.0,0.0,0.0,0.0,0.0,0.0,0.0,0.0,0.0,0.0,0.0,0.0,0.0,-4.3104,-4.3104,-4.3124,-4.3181,-4.3181,-4.2739,-4.1885,-4.1885,-4.145,-4.0631,-3.9838,-3.9499,-3.9495,-3.9501,-3.9492,-3.958,-4.0481,-4.0809,-4.0735,-3.9986,-4.0273,-4.1002,-4.1002,-4.1002,-4.1002,-4.1002,-4.0925,-4.082,-4.082,-4.082,-4.082,-4.082,-4.082,-4.0899,-4.1207,-4.1836,-4.2422,-4.248,-4.248,-4.2734,-4.3613,-4.3164,-4.2598,-4.2598,-4.2598,-4.2578,-4.25,-4.3105,-4.332,-4.2519,-4.2344,-4.2031,-4.1308,-4.1191,-4.1191,-4.1191,-4.1191,-4.0547,-3.8926,-3.7988,-3.7129,-3.623,-3.6133,-3.6094,-3.6094,-3.6035,-3.5996,-3.5996,-3.5996,-3.5996,-3.5996,-3.5996,-3.5996,-3.5996,-3.5996,-3.5996,-4.1602,-4.177,-4.2063,-4.2618,-4.2527,-4.2643,-4.3989,-4.4066,-4.3989,-4.4528,-4.422,0.0,0.0,0.0,0.0,0.0,0.0,0.0,0.0,0.0,0.0,0.0,0.0,0.0,0.0,0.0,0.0,0.0,0.0,0.0,0.0,0.0,0.0,0.0,0.0,0.0,0.0,-4.02,-3.9931,-3.995,-4.1527,-4.1835,-4.0969,-4.0469,-4.0065,-3.9708,-3.8854,-3.8488,-3.8496,-3.8516,-3.8524,-3.8563,-3.9018,-3.9216,-3.9217,-3.8909,-3.9358,-4.0123,-4.0139,-4.0136,-4.0136,-4.012,-4.0098,-4.0046,-4.0046,-4.0392,-4.0797,-4.0797,-4.0797,-4.0816,-4.0922,-4.1236,-4.1527,-4.1527,-4.1598,-4.1875,-4.2715,-4.2637,-4.2402,-4.2402,-4.2402,-4.2246,-4.1738,-4.1933,-4.2031,-4.1699,-4.1641,-4.1543,-4.123,-4.1191,-4.1191,-4.1191,-4.0723,-3.9687,-3.7949,-3.748,-3.6934,-3.6055,-3.5996,-3.5996,-3.5996,-3.5996,-3.5996,-3.5996,-3.5996,-3.5996,-3.5996,-3.5996,-3.5996,-3.5996,-3.5996,-3.5996,-4.084,-4.1123,-4.1498,-4.1405,-4.1604,-4.2181,-4.3605,-4.3912,-4.4239,-4.5364,-4.4701,-4.3758,-4.3201,0.0,0.0,0.0,0.0,0.0,0.0,0.0,0.0,0.0,0.0,0.0,0.0,0.0,0.0,0.0,0.0,0.0,0.0,0.0,0.0,0.0,0.0,0.0,0.0,-3.8296,-3.8007,-3.8027,-3.9777,-4.0296,-3.9688,-3.915,-3.8892,-3.8834,-3.7969,-3.7584,-3.7584,-3.7584,-3.7757,-3.7983,-3.781,-3.7926,-3.8166,-3.7894,-3.8363,-3.9151,-3.9166,-3.9166,-3.9166,-3.917,-3.912,-3.9083,-3.9083,-3.9471,-3.9971,-4.0242,-4.0126,-3.9971,-4.0242,-4.063,-4.0947,-4.0947,-4.1017,-4.1215,-4.1781,-4.1898,-4.1898,-4.1898,-4.1898,-4.1726,-4.1226,-4.1148,-4.1052,-4.082,-4.0781,-4.0684,-4.041,-4.0625,-4.0781,-4.0781,-3.9766,-3.8594,-3.7402,-3.7051,-3.6641,-3.6035,-3.5996,-3.5996,-3.5996,-3.5996,-3.5996,-3.5996,-3.5996,-3.5996,-3.5996,-3.5996,-3.5996,-3.5996,-3.5996,-3.5996,-4.1035,-4.0651,-4.0523,-4.0516,-4.1162,-4.2038,-4.2912,-4.3104,-4.3585,-4.5267,-4.4259,-4.3104,-4.3104,0.0,0.0,0.0,0.0,0.0,0.0,0.0,0.0,0.0,0.0,0.0,0.0,0.0,0.0,0.0,0.0,0.0,0.0,0.0,0.0,0.0,0.0,0.0,0.0,-3.7988,-3.7988,-3.7988,-3.7988,-3.7988,-3.8007,-3.7988,-3.7988,-3.795,-3.7065,-3.6692,-3.6692,-3.6692,-3.7199,-3.7892,-3.7026,-3.7219,-3.7873,-3.7,-3.7321,-3.8183,-3.8183,-3.8183,-3.8183,-3.8183,-3.8106,-3.7988,-3.7988,-3.7988,-3.818,-3.9034,-3.8661,-3.82,-3.9073,-4.0026,-4.0778,-4.0778,-4.0778,-4.0797,-4.0797,-4.0797,-4.0797,-4.0797,-4.0797,-4.0831,-4.0947,-4.0975,-4.0737,-3.9999,-3.9883,-3.957,-3.8711,-3.9355,-3.9883,-3.9863,-3.832,-3.7285,-3.7285,-3.6504,-3.5996,-3.5996,-3.5996,-3.5996,-3.5996,-3.5996,-3.5996,-3.5996,-3.5996,-3.5996,-3.5996,-3.5996,-3.5996,-3.5996,-3.5996,-3.5996,-4.1196,-4.1276,-4.1618,-4.1564,-4.2128,-4.2931,-4.3758,-4.3932,0.0,0.0,-4.4259,-4.3104,-4.3104,0.0,0.0,0.0,0.0,0.0,0.0,0.0,0.0,0.0,0.0,0.0,0.0,0.0,0.0,0.0,0.0,0.0,0.0,0.0,0.0,0.0,0.0,0.0,0.0,0.0,-3.6231,-3.6231,-3.6231,-3.6873,-3.7988,-3.7373,-3.7084,-3.7038,-3.6212,-3.5865,-3.5865,-3.5865,-3.6,-3.6212,-3.5962,-3.6,-3.6212,-3.5942,-3.6407,-3.7135,-3.7135,-3.7135,-3.7135,-3.7135,-3.7114,-3.7084,-3.7084,-3.7507,-3.8046,-3.8315,-3.82,-3.8065,-3.8315,-3.8612,-3.8844,-3.8956,-3.9473,-3.9953,-3.9968,-4.0392,-4.0626,-4.0069,-4.0416,-4.0443,-3.9292,-3.9607,-3.9733,-3.89,-3.8766,-3.8688,-3.8415,-3.9153,-3.9212,-3.7983,-3.7398,-3.6885,-3.6367,-3.6076,-3.5939,-3.5939,-3.5939,-3.5948,-3.5996,-3.5996,-3.5996,-3.5996,-3.5996,-3.5996,-3.5996,-3.5996,-3.5996,-3.5996,-3.5996,-3.5996,-4.1571,-4.1776,-4.2043,-4.2013,-4.279,-4.3701,-4.4182,0.0,0.0,0.0,0.0,-4.2585,0.0,0.0,0.0,0.0,0.0,0.0,0.0,0.0,0.0,0.0,0.0,0.0,0.0,0.0,0.0,0.0,0.0,0.0,0.0,0.0,0.0,0.0,0.0,0.0,0.0,0.0,0.0,-3.55,-3.55,-3.5846,-3.6469,-3.6295,-3.6212,-3.6192,-3.5712,-3.5308,-3.4988,-3.4988,-3.4988,-3.4949,-3.4596,-3.468,-3.4988,-3.4988,-3.55,-3.6212,-3.6212,-3.6212,-3.6212,-3.6212,-3.6212,-3.6212,-3.6212,-3.6596,-3.7065,-3.7392,-3.7257,-3.7084,-3.7411,-3.7257,-3.7189,-3.7945,-3.8548,-3.8961,-3.8956,-3.9339,-3.9533,-3.9058,-3.9363,-3.9379,-3.8434,-3.8691,-3.8766,-3.7913,-3.7488,-3.7391,-3.7744,-3.7936,-3.7776,-3.7076,-3.6687,-3.6177,-3.5403,-3.5636,-3.5675,-3.5366,-3.5636,-3.5847,-3.5876,-3.5878,-3.5878,-3.5878,-3.5878,-3.5878,-3.5878,-3.5567,-3.5391,-3.5391,-3.5041,-3.4886,-4.2096,-4.2167,-4.205,-4.2212,-4.3287,-4.4278,-4.4201,-4.4124,-4.4085,-4.4162,0.0,0.0,0.0,0.0,0.0,0.0,0.0,0.0,0.0,0.0,0.0,0.0,0.0,0.0,0.0,0.0,0.0,0.0,0.0,0.0,0.0,0.0,0.0,0.0,0.0,0.0,0.0,0.0,0.0,0.0,-3.5385,-3.493,-3.4109,-3.4988,-3.5346,-3.525,-3.525,-3.4814,-3.409,-3.409,-3.409,-3.3994,-3.3218,-3.3372,-3.409,-3.409,-3.4584,-3.525,-3.525,-3.525,-3.5288,-3.5365,-3.5385,-3.5404,-3.5481,-3.55,-3.5654,-3.6385,-3.6058,-3.5654,-3.6288,-3.5981,-3.5865,-3.7315,-3.7777,-3.7873,-3.7873,-3.795,-3.7988,-3.7892,-3.795,-3.7987,-3.7965,-3.8006,-3.7797,-3.6977,-3.6246,-3.6013,-3.6662,-3.611,-3.5916,-3.6565,-3.5919,-3.5141,-3.4435,-3.5113,-3.5269,-3.4533,-3.5249,-3.5689,-3.5678,-3.5696,-3.5707,-3.5707,-3.5707,-3.5668,-3.559,-3.4854,-3.4468,-3.4351,-3.3579,-3.3251,-4.2323,-4.2318,-4.2539,-4.3795,-4.4215,-4.4124,-4.3508,-4.2835,-4.2527,-4.322,0.0,0.0,0.0,0.0,0.0,0.0,0.0,0.0,0.0,0.0,0.0,0.0,0.0,0.0,0.0,0.0,0.0,0.0,0.0,0.0,0.0,0.0,0.0,0.0,0.0,0.0,-3.55,-3.55,-3.5154,0.0,-3.4468,-3.4026,-3.3218,-3.4083,-3.4103,-3.3468,-3.3468,-3.3353,-3.3179,-3.3179,-3.3179,-3.316,-3.2968,-3.3006,-3.3179,-3.3179,-3.3295,-3.3468,-3.3468,-3.3468,-3.3564,-3.4257,-3.4468,-3.4603,-3.5288,-3.55,-3.5538,-3.5712,-3.5635,-3.5385,-3.4872,-3.5122,-3.5423,-3.5084,-3.6026,-3.6981,-3.6981,-3.7526,-3.7796,-3.7123,-3.7526,-3.7599,-3.6292,-3.6607,-3.6755,-3.5945,-3.6196,-3.608,-3.4953,-3.5237,-3.5096,-3.3911,-3.3602,-3.3478,-3.3415,-3.4132,-3.453,-3.436,-3.5151,-3.5605,-3.554,-3.5638,-3.5707,-3.5707,-3.5707,-3.5395,-3.476,-3.4585,-3.416,-3.3481,-3.3287,-3.3579,-4.2793,-4.2978,-4.3292,-4.4837,0.0,-4.3624,-4.3201,-4.2104,-4.12,0.0,0.0,0.0,0.0,0.0,0.0,0.0,0.0,0.0,0.0,0.0,0.0,0.0,0.0,0.0,0.0,0.0,0.0,0.0,0.0,0.0,0.0,0.0,0.0,0.0,0.0,0.0,-3.5304,-3.4515,-3.4143,-3.4186,-3.3782,-3.3064,-3.2177,-3.3147,-3.3122,-3.2352,-3.2737,-3.2679,-3.2333,-3.2333,-3.2333,-3.2275,-3.1872,-3.1968,-3.2333,-3.2333,-3.2564,-3.2891,-3.2891,-3.2891,-3.2968,-3.343,-3.3583,-3.366,-3.4122,-3.425,-3.425,-3.425,-3.425,-3.4257,-3.4205,-3.4545,-3.4872,-3.4834,-3.5488,-3.6135,-3.6135,-3.6481,-3.6673,-3.6212,-3.6481,-3.6519,-3.5654,-3.5846,-3.5981,-3.5558,-3.5507,-3.518,-3.4321,-3.4237,-3.391,-3.3006,-3.2891,-3.2774,-3.2461,-3.3175,-3.3465,-3.3079,-3.3845,-3.4293,-3.4257,-3.4328,-3.4754,-3.5596,-3.5195,-3.4986,-3.4982,-3.456,-3.3906,-3.3058,-3.2651,-3.2729,-4.2851,-4.3426,-4.3849,-4.4902,-4.4121,0.0,-4.2555,-4.1335,-4.0054,0.0,0.0,0.0,0.0,0.0,0.0,0.0,0.0,0.0,0.0,0.0,0.0,0.0,0.0,0.0,0.0,0.0,0.0,0.0,0.0,0.0,0.0,0.0,0.0,0.0,0.0,-3.3658,-3.4596,-3.3223,-3.2917,-3.3637,-3.2767,-3.1886,-3.1043,-3.1931,-3.1994,-3.1444,-3.2167,-3.2083,-3.1487,-3.1487,-3.1487,-3.141,-3.0673,-3.0846,-3.1487,-3.1487,-3.191,-3.2468,-3.2468,-3.2468,-3.2487,-3.2641,-3.2699,-3.2718,-3.2852,-3.3006,-3.3083,-3.2949,-3.3006,-3.3218,-3.3667,-3.3878,-3.4122,-3.4712,-3.5077,-3.5327,-3.5462,-3.5385,-3.5327,-3.5462,-3.55,-3.55,-3.55,-3.5385,-3.5269,-3.5269,-3.4526,-3.3936,-3.3801,-3.3141,-3.2641,-3.2487,-3.2468,-3.2199,-3.1525,-3.2218,-3.241,-3.1737,-3.2468,-3.2891,-3.2891,-3.2776,-3.3449,-3.5019,-3.4334,-3.4257,-3.4846,-3.4122,-3.3391,-3.2679,-3.2006,-3.1852,-4.1269,0.0,-4.3434,0.0,-4.2886,-4.2595,0.0,0.0,0.0,0.0,0.0,0.0,0.0,0.0,0.0,0.0,0.0,0.0,0.0,0.0,0.0,0.0,0.0,0.0,0.0,0.0,0.0,0.0,0.0,0.0,0.0,0.0,-3.3572,-3.3572,-3.2779,0.0,-3.2589,-3.2362,-3.1973,-3.1423,-3.0534,-3.0047,-2.9926,-3.0055,-3.017,-3.0247,-3.0593,-3.0673,-3.0577,-3.0577,-3.0577,-3.0558,-3.0442,-3.0462,-3.0577,-3.0577,-3.0635,-3.0731,-3.0731,-3.0731,-3.0865,-3.1621,-3.1852,-3.1987,-3.2699,-3.343,-3.3878,-3.3103,-3.343,-3.3725,-3.2372,-3.2545,-3.2929,-3.2352,-3.3314,-3.4584,-3.5346,-3.4911,-3.4603,-3.5346,-3.55,-3.55,-3.55,-3.4872,-3.4379,-3.4379,-3.3622,-3.2814,-3.2122,-3.1929,-3.1564,-3.0808,-3.0731,-3.0692,-3.0577,-3.1365,-3.1814,-3.1718,-3.2468,-3.2891,-3.2891,-3.2237,-3.2295,-3.3237,-3.3122,-3.2795,-3.2218,-3.2083,-3.1968,-3.1852,-3.1756,-3.2487,-4.1504,-4.2352,-4.2995,0.0,-4.3062,-4.2099,-4.0456,0.0,0.0,0.0,0.0,0.0,0.0,0.0,0.0,0.0,0.0,0.0,0.0,0.0,0.0,0.0,0.0,0.0,0.0,0.0,0.0,0.0,0.0,0.0,0.0,-3.3166,-3.275,-3.2296,-3.1496,0.0,-3.1972,-3.108,-3.05,-3.0269,-2.9875,-2.9634,-2.9542,-2.9643,-2.9756,-2.9837,-2.9969,-3.0073,-3.0182,-3.0182,-3.026,-3.0404,-3.0404,-3.0404,-3.0404,-3.0404,-3.0404,-3.0404,-3.0404,-3.0404,-3.0462,-3.0846,-3.0962,-3.1038,-3.1385,-3.1775,-3.1987,-3.1615,-3.1775,-3.2006,-3.1756,-3.1968,-3.2256,-3.2352,-3.2474,-3.2807,-3.3695,-3.4419,-3.5045,-3.5423,-3.4712,-3.4199,-3.4699,-3.4045,-3.3468,-3.3468,-3.2756,-3.2102,-3.1756,-3.1269,-3.0827,-3.0442,-3.0404,-3.0404,-3.0404,-3.075,-3.0962,-3.0962,-3.1288,-3.15,-3.15,-3.1027,-3.0917,-3.1268,-3.1898,-3.2212,-3.2213,-3.2659,-3.2639,-3.2213,-3.2659,-3.3348,0.0,0.0,-4.1709,-4.3142,-4.2626,-4.1514,0.0,0.0,0.0,0.0,0.0,0.0,0.0,0.0,0.0,0.0,0.0,0.0,0.0,0.0,0.0,0.0,0.0,0.0,0.0,0.0,0.0,0.0,0.0,0.0,-3.2619,-3.2197,-3.1733,-3.1109,-3.032,-3.0272,-3.1076,-2.9903,-2.9365,-2.9514,-2.9514,-2.9436,-2.931,-2.9446,-2.9514,-2.9523,-2.9652,-2.978,-2.9924,-2.9924,-3.0032,-3.0221,-3.0221,-3.0248,-3.0299,-3.0235,-3.0248,-3.0299,-3.0235,-3.0221,-3.0221,-3.0221,-3.0221,-3.0221,-3.0221,-3.0375,-3.0515,-3.035,-3.0427,-3.0656,-3.1143,-3.1238,-3.1339,-3.194,-3.1641,-3.1401,-3.2056,-3.3643,-3.491,-3.4699,-3.3779,-3.3166,-3.3614,-3.2982,-3.2433,-3.2499,-3.1749,-3.1199,-3.1264,-3.065,-3.0221,-3.0221,-3.0221,-3.0221,-3.0221,-3.0221,-3.0221,-3.0221,-3.0221,-3.0221,-3.0221,-3.0025,-2.9924,-2.9924,-3.0765,-3.141,-3.1865,-3.2477,-3.2553,-3.2208,-3.301,-3.3606,0.0,-3.8164,0.0,-3.9776,-4.0502,0.0,0.0,0.0,0.0,0.0,0.0,0.0,0.0,0.0,0.0,0.0,0.0,0.0,0.0,0.0,0.0,0.0,0.0,0.0,0.0,0.0,0.0,0.0,0.0,0.0,-3.2601,-3.1152,-3.032,-3.0265,-2.9482,-2.909,-2.9138,-2.9065,-2.904,-2.9033,-2.9033,-2.9021,-2.9028,-2.9021,-2.9033,-2.9067,-2.9504,-2.9713,-2.9722,-2.9722,-2.9731,-2.9739,-2.9739,-2.9845,-2.9999,-2.9815,-2.9853,-2.9991,-2.9796,-2.9739,-2.9739,-2.9739,-2.9739,-2.9739,-2.9739,-3.0304,-3.0829,-3.0198,-3.0481,-3.0837,-3.0243,-2.9953,-2.9815,-2.9853,-3.0447,-3.1022,-3.106,-3.2363,-3.328,-3.2523,-3.2911,-3.3148,-3.2428,-3.1635,-3.1166,-3.1348,-3.0476,-2.9872,-3.0056,-2.9891,-2.9739,-2.9739,-2.9739,-2.9739,-2.9739,-2.9739,-2.9739,-2.9739,-2.9739,-2.9739,-2.9739,-2.9731,-2.9722,-2.9722,-2.9769,-2.9815,-2.9854,-2.9892,-3.0325,-3.1098,-3.192,-3.2704,0.0,0.0,0.0,-3.9489,-4.0001,-3.98,0.0,0.0,0.0,0.0,0.0,0.0,0.0,0.0,0.0,0.0,0.0,0.0,0.0,0.0,0.0,0.0,0.0,0.0,0.0,0.0,0.0,0.0,0.0,0.0,-3.1861,-3.0797,-2.9971,-2.9445,-2.9152,-2.9005,-2.9005,-2.9005,-2.9005,-2.9005,-2.9005,-2.9005,-2.9005,-2.9005,-2.9005,-2.9017,-2.9174,-2.9345,-2.9504,-2.9504,-2.9579,-2.9705,-2.9705,-2.9738,-2.9796,-2.9731,-2.9756,-2.9796,-2.9712,-2.9705,-2.9705,-2.9705,-2.9705,-2.9705,-2.9705,-2.9921,-3.0127,-2.9883,-2.9981,-3.0108,-2.9864,-2.9746,-2.967,-2.9542,-2.9738,-2.9933,-2.975,-3.0854,-3.1939,-3.2165,-3.1552,-3.11,-3.1391,-3.0731,-3.0193,-3.0259,-2.9954,-2.9731,-2.9796,-2.9738,-2.9705,-2.9705,-2.9705,-2.9705,-2.9705,-2.9705,-2.9705,-2.9705,-2.9705,-2.9705,-2.9705,-2.957,-2.9504,-2.9504,-2.9334,-2.9334,-2.9504,-3.0027,-3.043,-3.0788,-3.2088,-3.296,-3.7402,0.0,0.0,0.0,0.0,-3.8456,0.0,0.0,0.0,0.0,0.0,0.0,0.0,0.0,0.0,0.0,0.0,0.0,0.0,0.0,0.0,0.0,0.0,0.0,0.0,0.0,0.0,0.0,0.0,0.0,-3.1017,-3.0228,-2.9537,-2.9023,-2.9005,-2.9005,-2.9005,-2.9005,-2.9005,-2.9005,-2.9005,-2.9005,-2.9005,-2.9005,-2.9005,-2.8987,-2.8712,-2.8843,-2.9249,-2.8971,-2.9103,-2.9438,-2.9167,-2.927,-2.9589,-2.9504,-2.9533,-2.9589,-2.9504,-2.9288,-2.9055,-2.9055,-2.8867,-2.8708,-2.898,-2.9055,-2.9148,-2.9504,-2.9523,-2.9494,-2.9579,-2.9542,-2.9426,-2.931,-2.9267,-2.9232,-2.9051,-2.9911,-3.0806,-3.1069,-3.044,-2.9961,-3.0272,-2.984,-2.9504,-2.9589,-2.9514,-2.9504,-2.9589,-2.9523,-2.9475,-2.9475,-2.9475,-2.9475,-2.9475,-2.9475,-2.9475,-2.9475,-2.9475,-2.9475,-2.9475,-2.9343,-2.9267,-2.9267,-2.9089,-2.9078,-2.9267,-2.9805,-3.0057,-3.0097,-3.144,-3.2296,0.0,0.0,0.0,0.0,0.0,0.0,0.0,0.0,0.0,0.0,0.0,0.0,0.0,0.0,0.0,0.0,0.0,0.0,0.0,0.0,0.0,0.0,0.0,0.0,0.0,0.0,0.0,0.0,0.0,-3.021,-3.021,-2.9445,-2.9005,-2.9005,-2.9005,-2.9005,-2.9005,-2.9005,-2.9005,-2.9005,-2.9005,-2.9005,-2.9005,-2.9005,-2.8987,-2.8932,-2.8154,-2.8264,-2.8895,-2.8117,-2.8264,-2.8895,-2.8099,-2.8421,-2.9287,-2.9027,-2.9123,-2.9314,-2.9034,-2.8418,-2.7798,-2.778,-2.7236,-2.6759,-2.753,-2.775,-2.7981,-2.9023,-2.9137,-2.9,-2.9283,-2.9181,-2.9005,-2.9005,-2.9005,-2.9005,-2.9005,-2.961,-2.9934,-2.9152,-2.9629,-2.9916,-2.9097,-2.8987,-2.9089,-2.9314,-2.916,-2.9089,-2.9361,-2.9167,-2.9005,-2.9005,-2.9005,-2.9005,-2.9005,-2.9005,-2.9005,-2.9005,-2.9005,-2.9005,-2.9005,-2.9005,-2.9005,-2.9005,-2.9005,-2.9005,-2.9005,-2.9005,-2.9005,-2.9023,-2.9831,-3.0632,-3.5996,0.0,0.0,0.0,0.0,0.0,0.0,0.0,0.0,0.0,0.0,0.0,0.0,0.0,0.0,0.0,0.0,0.0,0.0,0.0,0.0,0.0,0.0,0.0,0.0,0.0,0.0,0.0,0.0,-3.021,-3.021,-2.9445,-2.9005,-2.9005,-2.9005,-2.9005,-2.9005,-2.9005,-2.9005,-2.9005,-2.9005,-2.9005,-2.9005,-2.9005,-2.8675,-2.8154,-2.851,-2.8455,-2.8117,-2.7879,-2.7934,-2.8117,-2.7879,-2.7639,-2.7361,-2.7295,-2.7676,-2.8154,-2.7497,-2.7512,-2.7695,-2.7126,-2.6778,-2.6638,-2.6869,-2.6924,-2.699,-2.7296,-2.7308,-2.7412,-2.8069,-2.8614,-2.9005,-2.9005,-2.9005,-2.9005,-2.9005,-2.917,-2.9262,-2.9042,-2.9189,-2.9078,-2.8264,-2.8601,-2.8826,-2.8319,-2.8676,-2.904,-2.91,-2.9051,-2.9005,-2.9005,-2.9005,-2.9005,-2.9005,-2.9005,-2.9005,-2.9005,-2.9005,-2.9005,-2.9005,-2.9005,-2.9005,-2.9005,-2.9005,-2.9005,-2.9005,-2.9005,-2.9005,-2.9023,-2.9831,-3.0632,-3.605,-3.5951,0.0,0.0,0.0,0.0,-3.597,-3.5639,0.0,0.0,0.0,0.0,0.0,0.0,0.0,0.0,0.0,0.0,0.0,0.0,0.0,0.0,0.0,0.0,0.0,0.0,0.0,0.0,-3.0418,-2.9702,-2.9702,-2.9244,-2.9005,-2.9005,-2.9005,-2.9005,-2.9005,-2.9005,-2.9005,-2.9005,-2.9005,-2.9005,-2.9005,-2.9005,-2.8565,-2.7835,-2.8301,-2.8044,-2.7291,-2.7291,-2.7493,-2.7725,-2.7064,-2.6722,-2.6602,-2.6602,-2.6906,-2.7236,-2.6759,-2.6686,-2.6715,-2.6245,-2.5878,-2.5658,-2.6007,-2.6098,-2.6172,-2.6521,-2.6851,-2.7218,-2.7677,-2.8411,-2.9005,-2.9005,-2.9005,-2.9005,-2.9005,-2.873,-2.8503,-2.8503,-2.8503,-2.8246,-2.7438,-2.7684,-2.7831,-2.7365,-2.7703,-2.8124,-2.8455,-2.8503,-2.862,-2.8968,-2.9005,-2.9005,-2.9005,-2.9005,-2.9005,-2.9005,-2.9005,-2.8929,-2.8761,-2.8749,-2.8688,-2.8533,-2.8533,-2.8533,-2.8533,-2.8688,-2.8688,-2.8551,-2.9173,-2.9628,-3.6264,-3.6034,-3.6369,0.0,0.0,0.0,-3.7041,-3.5421,-3.3732,0.0,0.0,0.0,0.0,0.0,0.0,0.0,0.0,0.0,0.0,0.0,0.0,0.0,0.0,0.0,0.0,0.0,0.0,-3.0215,-2.9445,-2.9005,-2.9005,-2.9005,-2.9005,-2.9005,-2.9005,-2.9005,-2.9005,-2.9005,-2.9005,-2.9005,-2.9005,-2.9005,-2.9005,-2.9005,-2.851,-2.7658,-2.775,-2.7291,-2.6465,-2.6465,-2.6888,-2.7394,-2.5962,-2.5778,-2.6327,-2.6327,-2.6392,-2.6447,-2.6374,-2.5915,-2.5393,-2.5301,-2.4787,-2.4318,-2.5044,-2.5264,-2.5411,-2.6135,-2.6906,-2.7541,-2.7541,-2.8136,-2.873,-2.873,-2.873,-2.873,-2.873,-2.8172,-2.7651,-2.7559,-2.7614,-2.7402,-2.6612,-2.6539,-2.6565,-2.6442,-2.6486,-2.6797,-2.7471,-2.7624,-2.7972,-2.8692,-2.8827,-2.8881,-2.8881,-2.8881,-2.8881,-2.8881,-2.8881,-2.8713,-2.8368,-2.8337,-2.821,-2.7911,-2.7897,-2.7883,-2.784,-2.8183,-2.8197,-2.7911,-2.821,-2.8183,0.0,0.0,0.0,0.0,0.0,0.0,-3.4588,-3.4982,-3.5309,0.0,0.0,0.0,0.0,0.0,0.0,0.0,0.0,0.0,0.0,0.0,0.0,0.0,0.0,0.0,0.0,0.0,-3.0487,-3.0215,-2.9445,-2.9005,-2.9005,-2.9005,-2.9005,-2.9005,-2.9005,-2.9005,-2.9005,-2.9005,-2.9005,-2.9005,-2.9005,-2.9005,-2.9005,-2.9005,-2.8216,-2.6869,-2.7512,-2.699,-2.5631,-2.5631,-2.5723,-2.5833,-2.5521,-2.5099,-2.4667,-2.4667,-2.5081,-2.554,-2.4887,-2.4989,-2.5283,-2.464,-2.4318,-2.4226,-2.4401,-2.4428,-2.4465,-2.4612,-2.5246,-2.587,-2.587,-2.6465,-2.706,-2.706,-2.706,-2.706,-2.706,-2.6932,-2.6649,-2.5999,-2.6392,-2.6576,-2.5778,-2.6172,-2.63,-2.5379,-2.578,-2.6146,-2.6043,-2.6588,-2.7058,-2.7201,-2.7759,-2.812,-2.812,-2.812,-2.812,-2.812,-2.812,-2.8079,-2.7992,-2.801,-2.7968,-2.7897,-2.7897,-2.7754,-2.7409,-2.7808,-2.795,-2.7897,-2.7968,-2.795,0.0,0.0,0.0,-3.7255,0.0,0.0,0.0,-3.4795,-3.4449,0.0,0.0,0.0,0.0,0.0,0.0,0.0,0.0,0.0,0.0,0.0,0.0,0.0,0.0,0.0,0.0,0.0,-2.9901,-2.9616,-2.9225,-2.9005,-2.9005,-2.9005,-2.9005,-2.9005,-2.9005,-2.9005,-2.9005,-2.9005,-2.9005,-2.9005,-2.9005,-2.9005,-2.8987,-2.8583,-2.775,-2.662,-2.7034,-2.6282,-2.4824,-2.5227,-2.5154,-2.4805,-2.4805,-2.4566,-2.419,-2.419,-2.4456,-2.475,-2.4337,-2.4447,-2.475,-2.4318,-2.419,-2.419,-2.419,-2.4084,-2.3937,-2.3937,-2.4407,-2.4906,-2.4906,-2.5495,-2.6091,-2.6091,-2.6091,-2.6091,-2.6091,-2.5784,-2.5375,-2.4978,-2.4906,-2.4824,-2.4582,-2.4894,-2.4907,-2.4156,-2.439,-2.4748,-2.4963,-2.5351,-2.5759,-2.6158,-2.6894,-2.7345,-2.7345,-2.7699,-2.7897,-2.7897,-2.7897,-2.7811,-2.7604,-2.7589,-2.7517,-2.7319,-2.7303,-2.721,-2.6987,-2.721,-2.7303,-2.7319,-2.7517,-2.7485,0.0,0.0,0.0,0.0,0.0,-3.5757,0.0,0.0,0.0,-3.366,0.0,0.0,0.0,0.0,0.0,0.0,0.0,0.0,0.0,0.0,0.0,0.0,0.0,0.0,0.0,0.0,-2.9225,-2.9017,-2.9005,-2.9005,-2.9005,-2.9005,-2.9005,-2.9005,-2.9005,-2.9005,-2.9005,-2.9005,-2.9005,-2.9005,-2.9005,-2.9005,-2.8987,-2.8338,-2.746,-2.6519,-2.6562,-2.5646,-2.4158,-2.4877,-2.4787,-2.419,-2.419,-2.419,-2.419,-2.419,-2.419,-2.419,-2.419,-2.419,-2.419,-2.419,-2.4161,-2.4094,-2.4026,-2.3816,-2.3599,-2.3599,-2.3879,-2.4169,-2.4169,-2.4655,-2.5141,-2.5141,-2.5141,-2.5141,-2.5141,-2.4637,-2.4169,-2.4169,-2.3643,-2.3288,-2.3555,-2.3599,-2.35,-2.3153,-2.3105,-2.331,-2.3912,-2.4123,-2.447,-2.5108,-2.6001,-2.6567,-2.6567,-2.7238,-2.7663,-2.7663,-2.7663,-2.7515,-2.721,-2.7194,-2.7019,-2.6708,-2.6691,-2.6691,-2.6691,-2.6691,-2.6691,-2.6708,-2.7035,-2.7003,0.0,0.0,0.0,0.0,-3.9488,0.0,0.0,0.0,-3.4596,-3.2429,0.0,0.0,0.0,0.0,0.0,0.0,0.0,0.0,0.0,0.0,0.0,0.0,0.0,0.0,0.0,0.0,0.0,-2.9005,-2.9005,-2.9005,-2.9005,-2.9005,-2.9005,-2.9005,-2.9005,-2.9005,-2.9005,-2.9005,-2.9005,-2.9005,-2.9005,-2.9005,-2.9005,-2.8913,-2.7871,-2.6179,-2.6469,-2.5523,-2.3785,-2.4175,-2.4281,-2.419,-2.419,-2.419,-2.419,-2.419,-2.419,-2.419,-2.419,-2.419,-2.419,-2.419,-2.3996,-2.3703,-2.3403,-2.3288,-2.3265,-2.3265,-2.3295,-2.3342,-2.3342,-2.3395,-2.3466,-2.3466,-2.3466,-2.3466,-2.3466,-2.3395,-2.3342,-2.3342,-2.3271,-2.32,-2.3247,-2.3265,-2.3141,-2.281,-2.2759,-2.2695,-2.2562,-2.3099,-2.3556,-2.3641,-2.49,-2.5735,-2.5735,-2.6416,-2.6841,-2.6841,-2.6841,-2.6825,-2.6775,-2.6775,-2.6741,-2.6691,-2.6691,-2.6691,-2.6691,-2.6691,-2.6691,-2.6691,-2.6741,-2.6741,0.0,0.0,0.0,0.0,0.0,0.0,-3.6142,0.0,-3.4449,0.0,0.0,0.0,0.0,0.0,0.0,0.0,0.0,0.0,0.0,0.0,0.0,0.0,0.0,0.0,0.0,0.0,0.0,0.0,0.0,-2.9005,-2.9005,-2.9005,-2.9005,-2.9005,-2.9005,-2.9005,-2.9005,-2.9005,-2.9005,-2.9005,-2.9005,-2.9005,-2.8975,-2.8269,-2.7284,-2.6073,-2.5511,-2.4562,-2.3414,-2.3555,-2.361,-2.361,-2.361,-2.3735,-2.3886,-2.3692,-2.361,-2.361,-2.361,-2.361,-2.361,-2.361,-2.3533,-2.338,-2.3236,-2.3069,-2.291,-2.291,-2.2807,-2.2673,-2.2673,-2.2673,-2.2673,-2.2673,-2.2673,-2.2673,-2.2673,-2.2673,-2.2673,-2.2673,-2.2673,-2.2673,-2.2673,-2.2819,-2.2815,-2.2514,-2.2463,-2.2426,-2.2307,-2.2567,-2.2767,-2.2767,-2.4086,-2.4965,-2.4965,-2.6015,-2.6691,-2.6691,-2.6691,-2.6691,-2.6691,-2.6436,-2.6297,-2.6297,-2.5603,-2.5249,-2.5249,-2.5249,-2.5249,-2.5265,-2.6252,-2.6691,-3.5945,0.0,0.0,0.0,0.0,0.0,0.0,0.0,0.0,0.0,0.0,0.0,0.0,0.0,0.0,0.0,0.0,0.0,0.0,0.0,0.0,0.0,0.0,0.0,0.0,0.0,0.0,0.0,-2.8345,0.0,-2.8656,-2.8675,-2.8767,-2.8987,-2.9005,-2.9005,-2.9005,-2.9005,-2.9005,-2.9005,-2.9005,-2.894,-2.8791,-2.7719,-2.6818,-2.6052,-2.485,-2.3982,-2.3374,-2.3242,-2.32,-2.3189,-2.3105,-2.32,-2.3403,-2.3265,-2.32,-2.32,-2.32,-2.32,-2.3177,-2.3093,-2.3069,-2.3045,-2.2977,-2.2781,-2.2586,-2.2586,-2.245,-2.2296,-2.2296,-2.2296,-2.2296,-2.2296,-2.2296,-2.2296,-2.2296,-2.2296,-2.2296,-2.2296,-2.2296,-2.2296,-2.2296,-2.2463,-2.251,-2.2321,-2.2296,-2.2296,-2.2296,-2.2296,-2.2296,-2.2296,-2.3613,-2.4491,-2.4491,-2.5862,-2.6641,-2.6521,-2.6505,-2.6436,-2.6281,-2.5944,-2.5699,-2.5502,-2.4638,-2.412,-2.3945,-2.3945,-2.3945,-2.3979,-2.5692,-2.6505,0.0,0.0,0.0,-3.6942,0.0,0.0,0.0,0.0,-3.6161,0.0,0.0,0.0,0.0,0.0,-3.2564,-3.1775,0.0,0.0,0.0,0.0,0.0,0.0,0.0,0.0,0.0,0.0,0.0,0.0,-2.6675,0.0,-2.7798,-2.7842,-2.8191,-2.8987,-2.9005,-2.9005,-2.9005,-2.9005,-2.9005,-2.9005,-2.9005,-2.8803,-2.8384,-2.764,-2.6889,-2.6129,-2.4918,-2.4198,-2.3848,-2.3392,-2.32,-2.3165,-2.2848,-2.2721,-2.2772,-2.3081,-2.32,-2.32,-2.32,-2.32,-2.3141,-2.2822,-2.2721,-2.2673,-2.2415,-2.2324,-2.2307,-2.2307,-2.231,-2.2296,-2.2296,-2.2296,-2.2296,-2.2296,-2.2296,-2.2296,-2.2296,-2.2296,-2.2296,-2.2296,-2.2296,-2.2296,-2.2296,-2.231,-2.231,-2.2296,-2.2296,-2.2296,-2.2296,-2.2296,-2.2296,-2.2296,-2.3613,-2.4491,-2.4491,-2.5862,-2.6505,-2.6049,-2.6015,-2.5781,-2.5278,-2.524,-2.4919,-2.4266,-2.4216,-2.3881,-2.3224,-2.3224,-2.3224,-2.3274,-2.5144,-2.6015,0.0,0.0,-3.6942,-3.6115,0.0,0.0,0.0,0.0,0.0,0.0,0.0,0.0,0.0,0.0,-3.2641,-3.1833,-3.1698,-3.1006,0.0,0.0,0.0,0.0,0.0,0.0,0.0,0.0,0.0,-2.6657,-2.6602,-2.6961,0.0,-2.7798,-2.8172,-2.8968,-2.8749,-2.8737,-2.8994,-2.8525,-2.8373,-2.859,-2.8373,-2.8201,-2.8061,-2.754,-2.6909,-2.614,-2.4971,-2.4122,-2.3528,-2.2867,-2.2611,-2.2598,-2.2477,-2.244,-2.2453,-2.2558,-2.2611,-2.2611,-2.2611,-2.2611,-2.2584,-2.2463,-2.244,-2.2426,-2.2321,-2.2296,-2.2296,-2.2296,-2.2296,-2.2296,-2.2296,-2.2296,-2.2296,-2.2296,-2.2296,-2.2296,-2.2296,-2.2296,-2.2296,-2.2296,-2.2046,-2.184,-2.184,-2.1615,-2.1646,-2.2209,-2.2032,-2.184,-2.184,-2.1598,-2.1447,-2.1447,-2.272,-2.3569,-2.3569,-2.4469,-2.5167,-2.5435,-2.4648,-2.4252,-2.4534,-2.3771,-2.3236,-2.3019,-2.2279,-2.1768,-2.1556,-2.1556,-2.1556,-2.1572,-2.2959,-2.4047,-3.55,-3.5885,0.0,0.0,-3.5745,0.0,-3.5476,0.0,0.0,0.0,0.0,0.0,0.0,0.0,-3.2682,-3.2366,-3.1881,-3.0785,0.0,-2.8549,0.0,0.0,0.0,0.0,0.0,0.0,-2.6733,-2.6209,-2.5915,-2.6227,0.0,0.0,-2.7879,-2.8968,-2.8602,-2.8509,-2.8773,-2.8201,-2.8006,-2.8224,-2.7992,-2.7826,-2.7663,-2.7148,-2.6707,-2.6294,-2.4783,-2.4,-2.3712,-2.2716,-2.2296,-2.2296,-2.2296,-2.2296,-2.2296,-2.2296,-2.2296,-2.2296,-2.2296,-2.2296,-2.2296,-2.2296,-2.2296,-2.2296,-2.2296,-2.2296,-2.2296,-2.2296,-2.2296,-2.2296,-2.2296,-2.2296,-2.2296,-2.2296,-2.2296,-2.2296,-2.2296,-2.2296,-2.2237,-2.2092,-2.1809,-2.1552,-2.1414,-2.1166,-2.1197,-2.1751,-2.1568,-2.1384,-2.1384,-2.115,-2.0991,-2.0991,-2.2047,-2.2848,-2.3106,-2.3574,-2.3951,-2.4192,-2.3401,-2.3027,-2.3296,-2.2551,-2.2145,-2.2145,-2.1193,-2.0703,-2.0703,-2.0468,-2.0348,-2.0363,-2.1337,-2.2334]},{"header":{"parameterUnit":"m.s-1","parameterCategory":1,"la1":30.6,"la2":29.2853,"lo1":-89.7004,"lo2":-87.6739,"dy":0.0162,"dx":0.0183,"nx":112,"ny":82,"refTime":"2023-08-10T12:00:00:Z","depth":0,"parameterNumber":3,"parameterNumberName":"V-component_of_WINDS"},"data":[0.0,0.0,0.0,0.0,0.0,0.0,0.0,0.0,0.0,0.0,0.0,0.0,0.0,0.0,0.0,0.0,0.0,0.0,0.0,0.0,0.0,0.0,0.0,0.0,0.0,0.0,0.0,0.0,0.0,0.0,0.0,0.0,0.0,0.0,0.0,0.0,0.0,0.0,0.0,0.0,0.0,0.0,0.0,0.0,0.0,0.0,0.0,0.0,0.0,0.0,0.0,0.0,0.0,0.0,0.0,0.0,0.0,0.0,0.0,0.0,0.0,0.0,0.0,0.0,0.0,0.0,0.0,0.0,0.0,0.0,0.0,0.0,0.0,0.0,0.0,0.0,0.0,0.0,0.0,0.0,0.0,0.0,0.0,0.0,0.0,0.0,0.0,0.0,0.0,0.0,0.0,-0.8818,-0.9432,-0.9771,-0.9652,-0.9622,-0.9364,-0.891,0.0,0.0,0.0,0.0,0.0,0.0,0.0,0.0,0.0,0.0,0.0,0.0,0.0,0.0,0.0,0.0,0.0,0.0,0.0,0.0,0.0,0.0,0.0,0.0,0.0,0.0,0.0,0.0,0.0,0.0,0.0,0.0,0.0,0.0,0.0,0.0,0.0,0.0,0.0,0.0,0.0,0.0,0.0,0.0,0.0,0.0,0.0,0.0,0.0,0.0,0.0,0.0,0.0,0.0,0.0,0.0,0.0,0.0,0.0,0.0,0.0,0.0,0.0,0.0,0.0,0.0,0.0,0.0,0.0,0.0,0.0,0.0,0.0,0.0,0.0,0.0,0.0,0.0,0.0,0.0,0.0,0.0,0.0,0.0,0.0,0.0,0.0,0.0,0.0,0.0,0.0,0.0,0.0,0.0,0.0,0.0,0.0,0.0,0.0,0.0,0.0,0.0,0.0,0.0,-0.8604,-0.9388,-0.9683,-0.9812,-0.9791,-0.968,-0.9852,-1.0514,0.0,0.0,0.0,0.0,0.0,0.0,0.0,0.0,0.0,0.0,0.0,0.0,0.0,0.0,0.0,0.0,0.0,0.0,0.0,0.0,0.0,0.0,0.0,0.0,0.0,0.0,0.0,0.0,0.0,0.0,0.0,0.0,0.0,0.0,0.0,0.0,0.0,0.0,0.0,0.0,0.0,0.0,0.0,0.0,0.0,0.0,0.0,0.0,0.0,0.0,0.0,0.0,0.0,0.0,0.0,0.0,0.0,0.0,0.0,0.0,0.0,0.0,0.0,0.0,0.0,0.0,0.0,0.0,0.0,0.0,0.0,0.0,0.0,0.0,0.0,0.0,0.0,0.0,0.0,0.0,0.0,0.0,0.0,0.0,0.0,0.0,0.0,0.0,0.0,0.0,0.0,0.0,0.0,0.0,0.0,0.0,0.0,0.0,0.0,0.0,0.0,0.0,0.0,-0.8945,-0.9515,-0.9695,-0.9781,-0.9822,-0.9822,-0.969,-0.9986,-1.0861,-1.0932,0.0,0.0,0.0,0.0,0.0,0.0,0.0,0.0,0.0,0.0,0.0,0.0,0.0,0.0,0.0,0.0,0.0,0.0,0.0,0.0,0.0,0.0,0.0,0.0,0.0,0.0,0.0,0.0,0.0,0.0,0.0,0.0,0.0,0.0,0.0,0.0,0.0,0.0,0.0,0.0,0.0,0.0,0.0,0.0,0.0,0.0,0.0,0.0,0.0,0.0,0.0,0.0,0.0,0.0,0.0,0.0,0.0,0.0,0.0,0.0,0.0,0.0,0.0,0.0,0.0,0.0,0.0,0.0,0.0,0.0,0.0,0.0,0.0,0.0,0.0,0.0,0.0,0.0,0.0,0.0,0.0,0.0,0.0,0.0,0.0,0.0,0.0,0.0,0.0,0.0,0.0,0.0,0.0,0.0,0.0,0.0,0.0,0.0,0.0,0.0,0.0,0.0,-0.9603,-1.0036,-0.9763,-0.9771,-0.9771,-0.9771,-0.9574,-0.9867,-1.0852,-1.1102,0.0,0.0,0.0,0.0,0.0,0.0,0.0,0.0,0.0,0.0,0.0,0.0,0.0,0.0,0.0,0.0,0.0,0.0,0.0,0.0,0.0,0.0,0.0,0.0,0.0,0.0,0.0,0.0,0.0,0.0,0.0,0.0,0.0,0.0,0.0,0.0,0.0,0.0,0.0,0.0,0.0,0.0,0.0,0.0,0.0,0.0,0.0,0.0,0.0,0.0,0.0,0.0,0.0,0.0,0.0,0.0,0.0,0.0,0.0,0.0,0.0,0.0,0.0,0.0,0.0,0.0,0.0,0.0,0.0,0.0,0.0,0.0,0.0,0.0,0.0,0.0,0.0,0.0,0.0,0.0,0.0,0.0,0.0,0.0,0.0,0.0,0.0,0.0,0.0,0.0,0.0,0.0,0.0,0.0,0.0,0.0,0.0,0.0,0.0,0.0,0.0,0.0,-0.9102,-0.9525,-0.9602,-0.9625,-0.9625,-0.9625,-0.9232,-0.9514,-1.0828,-1.0104,0.0,0.0,0.0,0.0,0.0,0.0,0.0,0.0,0.0,0.0,0.0,0.0,0.0,0.0,0.0,0.0,0.0,0.0,0.0,0.0,0.0,0.0,0.0,0.0,0.0,0.0,0.0,0.0,0.0,0.0,0.0,0.0,0.0,0.0,0.0,0.0,0.0,0.0,0.0,0.0,0.0,0.0,0.0,0.0,0.0,0.0,0.0,0.0,0.0,0.0,0.0,0.0,0.0,0.0,0.0,0.0,0.0,0.0,0.0,0.0,0.0,0.0,0.0,0.0,0.0,0.0,0.0,0.0,0.0,0.0,0.0,0.0,0.0,0.0,0.0,0.0,0.0,0.0,0.0,0.0,0.0,0.0,0.0,0.0,0.0,0.0,0.0,0.0,0.0,0.0,0.0,0.0,0.0,0.0,0.0,0.0,0.0,0.0,0.0,0.0,0.0,0.0,-0.9926,-1.0076,0.0,-0.9608,-0.9571,-0.9476,-0.9313,-0.9935,-1.1618,0.0,0.0,0.0,0.0,0.0,0.0,0.0,0.0,0.0,0.0,0.0,0.0,0.0,0.0,0.0,0.0,0.0,0.0,0.0,0.0,0.0,0.0,0.0,0.0,0.0,0.0,0.0,0.0,0.0,0.0,0.0,0.0,0.0,0.0,0.0,0.0,0.0,0.0,0.0,0.0,0.0,0.0,0.0,0.0,0.0,0.0,0.0,0.0,0.0,0.0,0.0,0.0,0.0,0.0,0.0,0.0,0.0,0.0,0.0,0.0,0.0,0.0,0.0,0.0,0.0,0.0,0.0,0.0,0.0,0.0,0.0,0.0,0.0,0.0,0.0,0.0,0.0,0.0,0.0,0.0,0.0,0.0,0.0,0.0,0.0,0.0,0.0,0.0,0.0,0.0,0.0,0.0,0.0,0.0,0.0,0.0,0.0,0.0,0.0,0.0,0.0,0.0,-1.0037,-1.02,-0.9991,0.0,-0.9395,-0.9334,-0.9181,-0.9039,-0.9869,-1.1965,0.0,0.0,0.0,0.0,0.0,0.0,0.0,0.0,0.0,0.0,0.0,0.0,0.0,0.0,0.0,0.0,0.0,0.0,0.0,0.0,0.0,0.0,0.0,0.0,0.0,0.0,0.0,0.0,0.0,0.0,0.0,0.0,0.0,0.0,0.0,0.0,0.0,0.0,0.0,0.0,0.0,0.0,0.0,0.0,0.0,0.0,0.0,0.0,0.0,0.0,0.0,0.0,0.0,0.0,0.0,0.0,0.0,0.0,0.0,0.0,0.0,0.0,0.0,0.0,0.0,0.0,0.0,0.0,0.0,0.0,0.0,0.0,0.0,0.0,0.0,0.0,0.0,0.0,0.0,0.0,0.0,0.0,0.0,0.0,0.0,0.0,0.0,0.0,0.0,0.0,0.0,0.0,0.0,0.0,0.0,0.0,0.0,0.0,0.0,0.0,0.0,0.0,-0.9847,-0.9529,-0.9093,-0.8898,-0.8881,-0.8817,-0.872,-0.8248,-0.9141,0.0,0.0,0.0,0.0,0.0,0.0,0.0,0.0,0.0,0.0,0.0,0.0,0.0,0.0,0.0,0.0,0.0,0.0,0.0,0.0,0.0,0.0,0.0,0.0,0.0,0.0,0.0,0.0,0.0,0.0,0.0,0.0,0.0,0.0,0.0,0.0,0.0,0.0,0.0,0.0,0.0,0.0,0.0,0.0,0.0,0.0,0.0,0.0,0.0,0.0,0.0,0.0,0.0,0.0,0.0,0.0,0.0,0.0,0.0,0.0,0.0,0.0,0.0,0.0,0.0,0.0,0.0,0.0,0.0,0.0,0.0,0.0,0.0,0.0,0.0,0.0,0.0,0.0,0.0,0.0,0.0,0.0,0.0,0.0,0.0,0.0,0.0,0.0,0.0,0.0,0.0,0.0,0.0,0.0,0.0,0.0,0.0,0.0,0.0,0.0,0.0,0.0,0.0,-1.092,-0.9803,-0.8866,-0.8875,-0.8842,-0.8716,-0.8564,-0.8428,-0.9236,-1.1347,0.0,0.0,0.0,0.0,0.0,0.0,0.0,0.0,0.0,0.0,0.0,0.0,0.0,0.0,0.0,0.0,0.0,0.0,0.0,0.0,0.0,0.0,0.0,0.0,0.0,0.0,0.0,0.0,0.0,0.0,0.0,0.0,0.0,0.0,0.0,0.0,0.0,0.0,0.0,0.0,0.0,0.0,0.0,0.0,0.0,0.0,0.0,0.0,0.0,0.0,0.0,0.0,0.0,0.0,0.0,0.0,0.0,0.0,0.0,0.0,0.0,0.0,0.0,0.0,0.0,0.0,0.0,0.0,0.0,0.0,0.0,0.0,0.0,0.0,0.0,0.0,0.0,0.0,0.0,0.0,0.0,0.0,0.0,0.0,0.0,0.0,0.0,0.0,0.0,0.0,0.0,0.0,0.0,0.0,0.0,0.0,0.0,0.0,0.0,0.0,0.0,0.0,-1.1282,-0.9824,-0.8632,-0.8669,-0.8591,-0.8472,-0.8319,-0.8306,-0.913,-1.1088,0.0,0.0,0.0,0.0,0.0,0.0,0.0,0.0,0.0,0.0,0.0,0.0,0.0,0.0,0.0,0.0,0.0,0.0,0.0,0.0,0.0,0.0,0.0,0.0,0.0,0.0,0.0,0.0,0.0,0.0,0.0,0.0,0.0,0.0,0.0,0.0,0.0,0.0,0.0,0.0,0.0,0.0,0.0,0.0,0.0,0.0,0.0,0.0,0.0,0.0,0.0,0.0,0.0,0.0,0.0,0.0,0.0,0.0,0.0,0.0,0.0,0.0,0.0,0.0,0.0,0.0,0.0,0.0,0.0,0.0,0.0,0.0,0.0,0.0,0.0,0.0,0.0,0.0,0.0,0.0,0.0,0.0,0.0,0.0,0.0,0.0,0.0,0.0,0.0,0.0,0.0,0.0,0.0,0.0,0.0,0.0,0.0,0.0,0.0,0.0,0.0,0.0,-1.1133,-0.9624,-0.8449,-0.8484,-0.8459,-0.8393,-0.8197,-0.8187,-0.9016,-1.0976,0.0,0.0,0.0,0.0,0.0,0.0,0.0,0.0,0.0,0.0,0.0,0.0,0.0,0.0,0.0,0.0,0.0,0.0,0.0,0.0,0.0,0.0,0.0,0.0,0.0,0.0,0.0,0.0,0.0,0.0,0.0,0.0,0.0,0.0,0.0,0.0,0.0,0.0,0.0,0.0,0.0,0.0,0.0,0.0,0.0,0.0,0.0,0.0,0.0,0.0,0.0,0.0,0.0,0.0,0.0,0.0,0.0,0.0,0.0,0.0,-0.3273,0.0,0.0,0.0,0.0,0.0,0.0,0.0,0.0,0.0,0.0,0.0,0.0,0.0,0.0,0.0,0.0,0.0,0.0,0.0,0.0,0.0,0.0,0.0,0.0,0.0,0.0,0.0,0.0,0.0,0.0,0.0,0.0,0.0,0.0,0.0,0.0,0.0,0.0,0.0,0.0,0.0,-1.1114,-0.9412,-0.8564,-0.9653,-0.9696,-0.9603,-0.9562,-0.9558,-1.0026,-1.1022,0.0,0.0,0.0,0.0,0.0,0.0,0.0,0.0,0.0,0.0,0.0,0.0,0.0,0.0,0.0,0.0,0.0,0.0,0.0,0.0,0.0,0.0,0.0,0.0,0.0,0.0,0.0,0.0,0.0,0.0,0.0,0.0,0.0,0.0,0.0,0.0,0.0,0.0,0.0,0.0,0.0,0.0,0.0,0.0,0.0,0.0,0.0,0.0,0.0,0.0,0.0,0.0,0.0,0.0,0.0,0.0,0.0,0.0,0.0,0.0,0.0,-0.5128,0.0,0.0,0.0,0.0,0.0,0.0,0.0,0.0,0.0,0.0,0.0,0.0,0.0,0.0,0.0,0.0,0.0,0.0,0.0,0.0,0.0,0.0,0.0,0.0,0.0,0.0,0.0,0.0,0.0,0.0,0.0,0.0,0.0,0.0,0.0,0.0,0.0,0.0,0.0,0.0,-1.1103,-0.934,-0.8314,-0.9083,-0.9661,-0.9756,-0.9118,-1.019,-1.0986,-1.1068,-1.1375,0.0,0.0,0.0,0.0,0.0,0.0,0.0,0.0,0.0,0.0,0.0,0.0,0.0,0.0,0.0,0.0,0.0,0.0,0.0,0.0,0.0,0.0,0.0,0.0,0.0,0.0,0.0,0.0,0.0,0.0,0.0,0.0,0.0,0.0,0.0,0.0,0.0,0.0,0.0,0.0,0.0,0.0,0.0,0.0,0.0,0.0,0.0,0.0,0.0,0.0,0.0,0.0,0.0,0.0,0.0,0.0,0.0,-0.0176,-0.0702,-0.4381,-0.5331,-0.4419,0.0,0.0,0.0,0.0,0.0,0.0,0.0,0.0,0.0,0.0,0.0,0.0,0.0,0.0,0.0,0.0,0.0,0.0,0.0,0.0,0.0,0.0,0.0,0.0,0.0,-0.7894,-0.7811,0.0,0.0,0.0,0.0,0.0,0.0,0.0,0.0,0.0,0.0,0.0,0.0,-1.0808,-0.938,-0.8432,-0.8676,-0.9899,-1.0239,-0.9114,-1.1019,-1.1992,-1.1482,-1.2232,-1.2941,0.0,0.0,0.0,0.0,0.0,0.0,0.0,0.0,0.0,0.0,0.0,0.0,0.0,0.0,0.0,0.0,0.0,0.0,0.0,0.0,0.0,0.0,0.0,0.0,0.0,0.0,0.0,0.0,0.0,0.0,0.0,0.0,0.7988,0.7988,0.0,0.0,0.0,0.0,0.0,0.0,0.0,0.0,0.0,0.0,0.0,0.0,0.0,0.0,0.0,0.0,0.0,0.0,0.0,0.0,0.0,0.0,-0.0879,-0.2466,-0.4164,0.0,-0.4554,-0.6112,0.0,0.0,0.0,0.0,0.0,0.0,0.0,0.0,0.0,0.0,0.0,0.0,0.0,0.0,0.0,0.0,0.0,0.0,0.0,0.0,0.0,0.0,-0.7965,-0.7985,-0.7975,-0.7917,0.0,-0.7702,-0.7617,-0.7605,0.0,0.0,0.0,0.0,0.0,0.0,0.0,0.0,-0.9667,-0.9669,-1.0141,-1.1263,-1.2571,-1.329,-1.3145,-1.344,-1.3371,-1.2774,-1.2893,-1.3129,-1.3592,-1.3233,0.0,0.0,0.0,0.0,0.0,0.0,0.0,0.0,0.0,0.0,0.0,0.0,0.0,0.0,0.0,0.0,0.0,0.0,0.0,0.0,0.0,0.0,0.0,0.0,0.0,0.0,0.0,0.0,0.0,0.8113,0.8136,0.8002,0.5675,0.4063,0.0,0.0,0.0,0.0,0.0,0.0,0.0,0.0,0.0,0.0,0.0,0.0,0.0,0.0,0.0,0.0,0.0,0.0,0.0,0.0,-0.0972,-0.2793,-0.4193,-0.5356,-0.6303,-0.7396,-0.8189,-0.8703,0.0,0.0,0.0,0.0,0.0,-0.8002,-0.814,0.0,0.0,0.0,0.0,0.0,0.0,0.0,0.0,0.0,0.0,0.0,0.0,0.0,0.0,-0.7968,-0.7988,-0.7971,-0.7904,-0.7889,-0.7777,0.0,-0.7634,-0.8389,-1.0351,0.0,0.0,0.0,0.0,0.0,-0.9489,-0.911,-0.9361,-1.0681,-1.1356,-1.1696,-1.1614,-1.2844,-1.3112,-1.1844,-1.3076,-1.3835,-1.3873,-1.3774,-1.3547,0.0,0.0,0.0,0.0,0.0,0.0,0.0,0.0,0.0,0.0,0.0,0.0,0.0,0.0,0.0,0.0,0.0,0.0,0.0,0.0,0.0,0.0,0.0,0.0,0.0,0.0,0.0,0.0,0.8204,0.8255,0.8012,0.5789,0.4224,0.0,0.0,0.0,0.0,0.0,0.0,0.0,0.0,0.0,0.0,0.0,0.0,0.0,0.0,0.0,0.0,0.0,0.0,0.0,0.0,-0.0991,-0.2756,-0.428,-0.592,-0.7679,-0.8587,-0.8994,-0.8947,-0.8499,-0.8354,0.0,-0.814,-0.8022,-0.8005,-0.817,-0.8211,-0.8201,-0.8123,0.0,-0.7941,-0.7733,0.0,0.0,0.0,0.0,-0.7678,-0.7784,0.0,-0.7899,-0.7965,-0.7988,-0.7988,-0.7988,-0.7988,-0.7914,0.0,-0.7831,-0.8486,-1.0131,0.0,0.0,0.0,0.0,-0.928,-0.9084,-0.8721,-0.8874,-0.9903,-1.0245,-1.04,-1.0296,-1.2166,-1.2717,-1.1287,-1.3274,-1.4322,-1.3881,-1.3861,-1.3621,-1.3106,0.0,0.0,0.0,0.0,0.0,0.0,0.0,0.0,0.0,0.0,0.0,0.0,0.0,0.0,0.0,0.0,0.0,0.0,0.0,0.0,0.0,0.0,0.0,0.0,0.0,0.0,0.0,0.0,0.0,0.8022,0.5931,0.0,0.0,0.0,0.0,0.0,0.0,0.0,0.0,0.0,0.0,0.0,0.0,0.0,0.0,0.0,0.0,0.0,0.0,0.0,0.0,0.0,-0.1,-0.2757,-0.4261,-0.5914,-0.7684,-0.8742,-0.92,-0.9156,-0.8645,-0.8387,-0.832,-0.8313,-0.8167,-0.7992,-0.7998,-0.8002,-0.8022,-0.8214,-0.816,-0.7961,-0.7848,-0.7706,0.0,0.0,-0.7695,-0.7801,-0.7811,-0.7919,-0.7982,-0.7988,-0.7988,-0.7988,-0.7988,-0.7988,-0.7941,0.0,-0.7814,-0.8151,-0.9181,0.0,-0.933,-0.9469,-0.9489,-0.9088,-0.8,-0.9059,-0.9899,-0.9998,-1.0986,-1.1622,-1.1611,-1.2583,-1.2915,-1.2252,-1.3652,-1.4135,-1.3293,-1.3253,-1.31,-1.2811,-1.2492,0.0,0.0,0.0,0.0,0.0,0.0,0.0,0.0,0.0,0.0,0.0,0.0,0.0,0.0,0.0,0.0,0.0,0.0,0.0,0.0,0.0,0.0,0.0,0.0,0.0,0.0,0.0,0.0,0.8578,0.6341,0.0,0.0,0.1731,0.0,0.0,0.0,0.0,0.0,0.0,0.0,0.0,0.0,0.0,0.0,0.0,0.0,0.0,0.0,0.0,0.0,0.0,-0.1001,-0.2757,-0.4265,-0.5918,-0.7694,-0.8951,-0.9388,-0.9266,-0.8913,-0.8686,-0.853,-0.834,-0.8235,-0.8174,-0.8022,-0.7988,-0.7998,-0.8102,-0.8032,-0.7978,-0.7924,-0.7874,-0.7833,-0.7833,-0.787,-0.7911,-0.7911,-0.7948,-0.7988,-0.7988,-0.7988,-0.7988,-0.7988,-0.7988,-0.7975,-0.7921,-0.7911,-0.8248,-0.9275,-0.8819,-0.8581,-0.9337,-0.8821,-0.8277,-0.7992,-0.8304,-0.8904,-0.9768,-0.937,-0.9677,-1.1197,-1.1387,-1.1598,-1.2021,-1.3083,-1.354,-1.3227,-1.3213,-1.2746,-1.178,-1.2335,-1.2185,0.0,0.0,0.0,0.0,0.0,0.0,0.0,0.0,0.0,0.0,0.0,0.0,0.0,0.0,0.0,0.0,0.0,0.0,0.0,0.0,0.0,0.0,0.0,0.0,0.0,0.0,0.9127,0.9022,0.6643,0.4927,0.4741,0.182,0.0,0.0,0.0,0.0,0.0,0.0,0.0,0.0,0.0,0.0,0.0,0.0,0.0,0.0,0.0,0.0,0.0,0.0,-0.0991,-0.2719,-0.4225,-0.5873,-0.7645,-0.9039,-0.952,-0.9357,-0.9106,-0.8889,-0.8686,-0.8489,-0.8357,-0.8248,-0.8092,-0.7988,-0.7988,-0.7988,-0.7988,-0.7988,-0.7988,-0.7988,-0.7988,-0.7988,-0.7988,-0.7988,-0.7988,-0.7988,-0.7988,-0.7988,-0.7988,-0.7988,-0.7988,-0.7988,-0.7988,-0.7988,-0.7988,-0.8188,-0.8798,-0.829,-0.8176,-0.9259,-0.849,-0.7973,-0.8362,-0.808,-0.8124,-0.8973,-0.8121,-0.8276,-1.014,-1.0328,-1.0673,-1.1543,-1.2603,-1.2956,-1.2395,-1.2798,-1.2434,-1.1097,-1.2094,-1.2192,-1.1316,0.0,0.0,0.0,0.0,0.0,0.0,0.0,0.0,0.0,0.0,0.0,0.0,0.0,0.0,0.0,0.0,0.0,0.0,0.0,0.0,0.0,0.0,0.0,0.853,0.9154,0.9513,0.9279,0.682,0.4994,0.4724,0.1887,0.0,0.0,0.0,0.0,0.0,0.0,0.0,0.0,0.0,0.0,0.0,0.0,0.0,0.0,0.0,0.0,0.0,0.0,-0.0907,-0.2582,-0.4209,-0.5848,-0.7535,-0.9001,-0.952,-0.9364,-0.9268,-0.8974,-0.8716,-0.8706,-0.8516,-0.8241,-0.8092,-0.7988,-0.7988,-0.7988,-0.7988,-0.7988,-0.7988,-0.7988,-0.7988,-0.7988,-0.7988,-0.7988,-0.7988,-0.7988,-0.7988,-0.7988,-0.7988,-0.7988,-0.7988,-0.7988,-0.7988,-0.7982,-0.7982,-0.7938,-0.7841,-0.7814,-0.814,-0.91,-0.842,0.0,-0.9139,-0.8368,-0.7743,-0.7654,-0.7547,-0.784,-0.8719,-0.9682,-1.05,-1.1023,-1.2341,-1.2441,-1.0844,-1.2037,-1.2087,-1.0826,-1.1737,-1.2224,-1.2305,0.0,0.0,0.0,0.0,0.0,0.0,0.0,0.0,0.0,0.0,0.0,0.0,0.0,0.0,0.0,0.0,0.0,0.0,0.0,0.0,0.0,0.0,0.9181,0.914,0.9591,0.9937,0.9968,0.7236,0.5297,0.5226,0.2057,0.0,0.0,0.0,0.0,0.0,0.0,0.0,0.0,0.0,0.0,0.0,0.0,0.0,0.0,0.0,0.0,0.0,0.0,-0.0899,-0.2582,-0.4209,-0.5848,-0.7535,-0.9001,-0.952,-0.9364,-0.9268,-0.9039,-0.8794,-0.8625,-0.8357,-0.8096,-0.8005,-0.7988,-0.7988,-0.7988,-0.7988,-0.7988,-0.7988,-0.7988,-0.7988,-0.7988,-0.7988,-0.7988,-0.7988,-0.7988,-0.7988,-0.7988,-0.7988,-0.7988,-0.7988,-0.7988,-0.7958,-0.7896,-0.7875,-0.7896,-0.7914,-0.7885,-0.789,-0.8181,0.0,0.0,-0.802,-0.7719,-0.7795,-0.8607,-0.8588,-0.9244,-1.1166,-1.1214,-1.1577,0.0,-1.1883,-1.1244,-1.0832,-1.0445,-1.0413,-1.0789,-1.0346,-1.0838,0.0,0.0,0.0,0.0,0.0,0.0,0.0,0.0,0.0,0.0,0.0,0.0,0.0,0.0,0.0,0.0,0.0,0.0,0.0,0.0,0.0,0.0,0.9313,0.9632,0.9819,1.007,0.9968,0.9331,0.6964,0.5068,0.4343,0.1708,0.0,0.0,0.0,0.0,0.0,0.0,0.0,0.0,0.0,0.0,0.0,0.0,0.0,0.0,0.0,0.0,0.0,0.0,-0.0888,0.0,-0.3488,-0.5199,-0.7469,-0.8153,-0.8808,0.0,0.0,0.0,0.0,0.0,-0.8286,-0.8126,-0.8012,-0.7988,-0.7988,-0.7988,-0.7988,-0.7988,-0.7988,-0.7988,-0.7988,-0.7988,-0.7988,-0.7988,-0.7988,-0.7988,-0.7988,-0.7988,-0.7988,-0.7988,-0.7988,-0.7938,-0.787,-0.7828,0.0,0.0,-0.7841,-0.778,-0.7862,-0.8376,-0.7979,-0.7761,0.0,-0.7742,-0.7793,-0.8921,-0.8953,-0.976,-1.1964,-1.1752,0.0,0.0,0.0,-1.0596,-1.019,-0.9216,0.0,0.0,0.0,-1.072,0.0,0.0,0.0,0.0,-1.2305,-1.2305,0.0,0.0,0.0,0.0,0.0,0.0,0.0,0.0,0.0,0.0,0.0,0.0,0.0,0.0,0.0,0.0,0.968,1.0022,1.0456,1.0319,0.9636,0.8015,0.6239,0.4483,0.2861,0.1038,0.0,0.0,0.0,0.0,0.0,0.0,0.0,0.0,0.0,0.0,0.0,0.0,0.0,0.0,0.0,0.0,0.0,0.0,-0.0937,-0.2524,-0.2524,-0.4358,-0.7324,-0.7056,-0.7892,-0.9317,-0.9238,-0.8947,-0.8652,-0.8391,-0.8275,0.0,0.0,0.0,0.0,-0.7988,-0.7988,-0.7988,-0.7988,-0.7988,-0.7988,-0.7988,-0.7988,-0.7988,-0.7988,-0.7988,-0.7988,-0.7988,-0.7988,-0.7988,-0.7988,-0.7884,-0.7831,-0.7814,-0.7709,-0.7624,-0.7624,-0.7597,-0.7948,-0.8975,-0.821,0.0,-0.8771,-0.8023,-0.7739,-0.8775,0.0,0.0,-1.1589,-1.163,-1.1863,-1.2614,-1.1369,-1.0115,-0.8993,-0.8084,-0.8571,-1.0596,-1.064,-1.1168,-1.2305,-1.2305,-1.2305,-1.2305,-1.2305,-1.2305,0.0,0.0,0.0,0.0,0.0,0.0,0.0,0.0,0.0,0.0,0.0,0.0,0.0,0.0,0.0,0.9656,0.9992,1.0304,1.0629,0.9402,0.8339,0.8028,0.5143,0.3092,0.2725,0.1038,0.0,0.0,0.0,0.0,0.0,0.0,0.0,0.0,0.0,0.0,0.0,0.0,0.0,0.0,0.0,0.0,0.0,0.0,-0.0928,-0.2524,-0.2524,-0.4272,-0.716,-0.6967,-0.7732,-0.9022,-0.8991,-0.8794,-0.852,-0.8462,-0.8289,-0.8029,-0.8002,-0.7988,-0.7988,-0.7988,-0.7988,-0.7988,-0.7988,-0.7988,0.0,-0.7988,-0.7988,-0.7988,-0.7988,-0.7988,-0.7988,-0.7988,-0.7988,-0.7988,-0.7988,-0.7968,-0.7911,-0.7834,-0.7787,-0.777,-0.777,-0.7573,-0.7547,-0.7858,-0.752,-0.7306,-0.7671,-0.7396,-0.7613,-0.8763,-0.889,-0.9435,-1.0722,-1.1433,-1.1805,-1.175,-1.0401,-0.8765,-0.6945,-0.6683,-0.7553,-0.9556,-0.9593,-1.0496,-1.2305,-1.2305,-1.2305,-1.2305,-1.2305,-1.2305,0.0,0.0,0.0,0.0,0.0,0.0,0.0,0.0,0.0,0.0,0.0,0.8689,0.0,0.0,0.953,0.9978,1.0239,1.0466,1.0687,0.8371,0.673,0.6685,0.4353,0.2333,0.1411,0.0556,0.0,0.0,0.0,0.0,0.0,0.0,0.0,0.0,0.0,0.0,0.0,0.0,0.0,0.0,0.0,0.0,0.0,0.0,-0.0432,-0.1233,-0.1233,-0.2624,-0.4913,-0.6313,-0.7703,-0.8885,-0.8885,-0.875,-0.8465,-0.8316,-0.8167,-0.7988,-0.7988,-0.7988,-0.7988,-0.7988,-0.7988,-0.7988,-0.7988,-0.7988,-0.7988,-0.7988,-0.7988,-0.7988,-0.7988,-0.7934,-0.7894,-0.7971,-0.7931,-0.7897,-0.7975,-0.7931,-0.7902,-0.7824,-0.7753,-0.7706,-0.7706,-0.7584,-0.756,-0.7787,-0.7624,-0.7478,-0.7485,-0.7417,-0.7789,-0.89,-0.9509,-1.0078,-1.0646,-1.0831,-1.0584,-0.9792,-0.9014,-0.7859,-0.6377,-0.63,-0.7253,-0.9258,-0.9296,-1.0271,-1.2305,-1.2305,-1.2305,-1.2305,-1.2305,-1.2305,0.0,0.0,0.0,0.0,0.0,0.0,0.0,0.0,0.8448,0.8621,0.8754,0.896,0.9354,0.9574,0.9822,1.0215,1.0426,1.0578,1.0704,0.7636,0.5411,0.5406,0.3482,0.1572,0.0142,0.0,0.0,0.0,0.0,0.0,0.0,0.0,0.0,0.0,0.0,0.0,0.0,0.0,0.0,0.0,0.0,0.0,0.0,0.0,0.0,0.0,-0.0307,-0.1213,-0.2686,-0.5654,-0.7514,-0.8488,-0.8738,-0.8726,-0.8455,-0.8214,-0.8039,-0.7988,-0.7988,-0.7988,-0.7988,-0.7988,-0.7988,-0.7988,-0.7988,-0.7988,-0.7988,-0.7988,-0.7988,-0.7988,-0.7988,-0.7897,-0.7885,-0.7961,-0.7894,-0.7889,-0.7965,-0.7894,-0.7855,-0.7855,-0.7763,-0.7685,-0.7685,-0.7685,-0.7756,-0.7914,-0.7868,-0.774,-0.7651,-0.7617,-0.7919,-0.8732,-0.9619,-1.0277,-1.0458,-0.9945,-0.9203,-0.8203,-0.7952,-0.7374,-0.6379,-0.6313,-0.7253,-0.9258,-0.9296,-1.0271,-1.2305,-1.2305,-1.2305,-1.2305,-1.2305,-1.2305,1.133,1.0207,0.8489,0.8465,0.8408,0.837,0.0,0.0,0.8944,0.9222,0.9296,0.9364,0.9551,0.9812,1.0,1.0249,1.0514,1.07,1.0717,0.7636,0.5394,0.541,0.2398,0.0206,0.0,0.0,0.0,0.0,0.0,0.0,0.0,0.0,0.0,0.0,0.0,0.0,0.0,0.0,0.0,0.0,0.0,0.0,0.0,0.0,0.0,-0.0062,-0.1376,-0.2064,-0.2466,-0.5505,-0.6824,-0.708,-0.8237,-0.8632,-0.8479,-0.8445,-0.8265,-0.7988,-0.7988,-0.7988,-0.7988,-0.7988,-0.7988,-0.7988,-0.7988,-0.7988,-0.7988,-0.7988,-0.7988,-0.7988,-0.7988,-0.7978,-0.7968,-0.7985,-0.7978,-0.7968,-0.7985,-0.7975,-0.7965,-0.7965,-0.7951,-0.7941,-0.7941,-0.7941,-0.7907,-0.7851,-0.7712,-0.7662,-0.7773,-0.7678,-0.7641,-0.7761,-0.7898,-0.834,-0.9214,-0.884,-0.8569,-0.8627,-0.8214,-0.7509,-0.6527,-0.6368,-0.7253,-0.9258,-0.9296,-1.0271,-1.2305,-1.2305,-1.2305,-1.2305,-1.2305,-1.2305,0.9764,0.9088,0.8313,0.0,0.8526,0.871,0.8841,0.9001,0.9123,0.9337,0.9452,0.9588,0.9822,1.0039,1.0232,0.0,1.0582,1.0721,1.0721,0.8504,0.6558,0.5547,0.3166,0.1156,0.0069,0.0,0.0,0.0,0.0,0.0,0.0,0.0,0.0,0.0,0.0,0.0,0.0,0.0,0.0,0.0,0.0,0.0,0.0,0.0,0.0,-0.0061,-0.0654,-0.1403,-0.2311,-0.3553,-0.4634,-0.5582,-0.6982,-0.7388,-0.7305,-0.8073,-0.8225,-0.7988,-0.7988,-0.7988,-0.7988,-0.7988,-0.7988,-0.7988,-0.7988,-0.7988,-0.7988,-0.7988,-0.7988,-0.7988,-0.7988,-0.7924,-0.788,-0.7968,-0.7921,-0.788,-0.7971,-0.7988,-0.7988,-0.7988,-0.7917,-0.7884,-0.7975,-0.7917,-0.7916,-0.7891,-0.7892,-0.7845,-0.7814,-0.7838,-0.8028,-0.8539,-0.793,-0.79,-0.8884,-0.8076,-0.756,-0.7641,-0.7379,-0.7005,-0.6515,-0.6457,-0.7309,-0.9263,-0.9296,-1.0271,-1.2305,-1.2305,-1.2305,-1.2305,-1.2305,-1.2305,0.8743,0.8374,0.0,0.8533,0.8774,0.9008,0.9049,0.9174,0.932,0.9469,0.9591,0.9734,0.9886,1.011,1.0263,1.0412,1.0558,1.0673,1.0714,0.8742,0.683,0.5519,0.337,0.1468,0.0135,0.0,0.0,0.0,0.0,0.0,0.0,0.0,0.0,0.0,0.0,0.0,0.0,0.0,0.0,0.0,0.0,0.0,0.0,0.0,0.0,0.0,0.0,-0.0581,-0.1603,-0.2026,-0.2842,-0.4052,-0.5934,-0.6514,-0.6461,-0.7785,-0.8174,-0.7988,-0.7988,-0.7988,-0.7988,-0.7988,-0.7988,-0.7988,-0.7988,-0.7988,-0.7988,-0.7988,-0.7988,-0.7988,-0.7988,-0.7907,-0.7902,-0.7965,-0.7907,-0.7906,-0.7965,-0.7988,-0.7978,-0.7934,-0.7874,-0.7896,-0.7914,-0.787,-0.7913,-0.7971,-0.7988,-0.7948,-0.7889,-0.7921,-0.8245,-0.8866,-0.8052,-0.7752,-0.8483,-0.7574,-0.6943,-0.6943,-0.6848,-0.6695,-0.6579,-0.6535,-0.7261,-0.8851,-0.9145,-1.0158,-1.1885,-1.215,-1.2305,-1.2305,-1.2305,-1.2305,0.8932,0.0,0.8516,0.8665,0.8927,0.9241,0.9334,0.9486,0.9635,0.9778,0.9812,0.9819,0.9825,0.9893,1.0044,1.0263,1.0405,1.0551,1.07,0.7678,0.545,0.5381,0.2275,0.0065,0.0,0.0,0.0,0.0,0.0,0.0,0.0,0.0,0.0,0.0,0.0,0.0,0.0,0.0,0.0,0.0,0.0,0.0,0.0,0.0,0.0,0.0,0.0,0.0,-0.0172,-0.1633,-0.2215,-0.2566,-0.5393,-0.6447,-0.6454,-0.7801,-0.8174,-0.7988,-0.7988,-0.7988,-0.7988,-0.7988,-0.7988,-0.7988,-0.7988,-0.7988,-0.7988,-0.7988,-0.7988,-0.7988,-0.7988,-0.7985,-0.7985,-0.7988,-0.7985,-0.7985,-0.7988,-0.7988,-0.7944,-0.7845,-0.7884,-0.7938,-0.7841,-0.7887,-0.7985,-0.7988,-0.7988,-0.7988,-0.7982,-0.7985,-0.7985,-0.8028,-0.7767,-0.759,-0.7634,-0.7305,-0.7088,-0.7088,-0.6957,-0.6854,-0.6702,-0.6552,-0.6914,-0.7825,-0.8803,-0.982,-1.0864,-1.1811,-1.2305,-1.2305,-1.2305,-1.2305,0.8909,0.0,0.9019,0.9117,0.9306,0.9493,0.9639,0.9713,0.9737,0.969,0.9598,0.953,0.953,0.9652,0.9805,0.9951,1.0266,1.051,1.0561,0.9614,0.8057,0.5706,0.4356,0.0,0.0,0.0,0.0,0.0,0.0,0.0,0.0,0.0,0.0,0.0,0.0,0.0,0.0,0.0,0.0,0.0,0.0,0.0,0.0,0.0,0.0,0.0,0.0,0.0,-0.0056,-0.0555,-0.0715,-0.0929,-0.2907,-0.3588,-0.3615,-0.5058,-0.6022,-0.6783,-0.7686,-0.7988,-0.7988,-0.7988,-0.7988,-0.7988,-0.7988,-0.7988,-0.7988,-0.7988,-0.7988,-0.7988,-0.7988,-0.7988,-0.7988,-0.7988,-0.7988,-0.7988,-0.7988,-0.7988,-0.7975,-0.7924,-0.7874,-0.7902,-0.7904,-0.7874,-0.7874,-0.7975,-0.7988,-0.7988,-0.7988,-0.7901,-0.7889,-0.7889,-0.7624,-0.7448,-0.7448,-0.7258,-0.7095,-0.7095,-0.7051,-0.6916,-0.6712,-0.6651,-0.6984,-0.7787,-0.8122,-0.8803,-0.982,-1.0121,-1.0645,-1.1316,-1.1316,-1.1657,0.8984,0.8933,0.9326,0.9425,0.9574,0.9707,0.9798,0.9781,0.9703,0.9557,0.9405,0.9283,0.9232,0.9303,0.9452,0.9703,1.0032,1.0307,1.047,1.0003,0.86,0.5769,0.4786,0.0,0.0,0.0,0.0,0.0,0.0,0.0,0.0,0.0,0.0,0.0,0.0,0.0,0.0,0.0,0.0,0.0,0.0,0.0,0.0,0.0,0.0,0.0,0.0,0.0,0.0,0.0,0.0,-0.0161,-0.1588,-0.2083,-0.2151,-0.3579,-0.4616,-0.5475,-0.683,-0.7587,-0.7988,-0.7988,-0.7988,-0.7988,-0.7988,-0.7988,-0.7988,-0.7988,-0.7988,-0.7988,-0.7988,-0.7988,-0.7988,-0.7988,-0.7988,-0.7988,-0.7988,-0.7988,-0.7975,-0.7921,-0.7923,-0.7906,-0.7901,-0.7874,-0.7926,-0.7975,-0.7988,-0.7988,-0.7988,-0.7904,-0.7892,-0.7892,-0.7628,-0.7451,-0.7451,-0.7261,-0.7095,-0.7095,-0.7095,-0.6964,-0.6712,-0.6702,-0.688,-0.7257,-0.7629,-0.8127,-0.8765,-0.9112,-0.9631,-1.0265,-1.0265,-1.0608,0.9219,0.9195,0.9459,0.9598,0.9734,0.9829,0.9815,0.97,0.9551,0.9391,0.9286,0.9132,0.0,0.0,0.9013,0.9507,0.9713,0.9975,1.0419,0.9004,0.7298,0.0,0.0,0.0,0.0,0.0,0.0,0.0,0.0,0.0,0.0,0.0,0.0,0.0,0.0,0.0,0.0,0.0,0.0,0.0,0.0,0.0,0.0,0.0,0.0,0.0,0.0,0.0,0.0,0.0,0.0,-0.0104,-0.1396,-0.1891,-0.2063,-0.3316,-0.3815,-0.4066,-0.5375,-0.6681,-0.7786,-0.7889,-0.7889,-0.7889,-0.7988,-0.7988,-0.7988,-0.7988,-0.7988,-0.7988,-0.7988,-0.7988,-0.7988,-0.7988,-0.7988,-0.7988,-0.7988,-0.7988,-0.7948,-0.7851,-0.7891,-0.7944,-0.7848,-0.7894,-0.7988,-0.7988,-0.7988,-0.7988,-0.7988,-0.7988,-0.7988,-0.7988,-0.7784,-0.7607,-0.76,-0.7322,-0.7105,-0.7095,-0.7095,-0.6964,-0.6712,-0.6702,-0.6563,-0.6306,-0.7249,-0.7706,-0.7706,-0.8694,-0.9183,-0.9221,-0.9221,-0.9258,0.9473,0.9737,1.0032,0.9958,0.9903,0.9872,0.9713,0.9547,0.9364,0.9106,0.8838,0.8608,0.0,0.0,0.0,0.9016,0.951,0.0,1.0287,1.0067,0.0,0.5771,0.0,0.3435,0.0323,0.0,0.0,0.0,0.0,0.0,0.0,0.0,0.0,0.0,0.0,0.0,0.0,0.0,0.0,0.0,0.0,0.0,0.0,0.0,0.0,0.0,0.0,0.0,0.0,0.0,0.0,-0.0052,-0.0358,-0.0507,-0.0555,-0.0907,-0.1661,-0.2564,-0.2916,-0.3919,-0.517,-0.6179,-0.6531,-0.6681,-0.7686,-0.7988,-0.7988,-0.7988,-0.7988,-0.7988,-0.7988,-0.7988,-0.7988,-0.7988,-0.7988,-0.7988,-0.7988,-0.7988,-0.7978,-0.7938,-0.7965,-0.7978,-0.7938,-0.7965,-0.7988,-0.7988,-0.7988,-0.7988,-0.7988,-0.7988,-0.7988,-0.7988,-0.7872,-0.7716,-0.7607,-0.7424,-0.7261,-0.7102,-0.7095,-0.6964,-0.6712,-0.6702,-0.6563,-0.6306,-0.6567,-0.6679,-0.6679,-0.6945,-0.7442,-0.8199,-0.8199,-0.858,0.9785,1.0036,1.0243,1.0027,0.9987,0.9893,0.9591,0.9391,0.9161,0.8733,0.8455,0.0,0.8014,0.0,0.0,0.0,0.0,0.0,1.0127,1.0307,0.9445,0.0,0.6429,0.0,0.1511,0.1175,0.0851,0.0,0.0,0.0,0.0,0.0,0.0,0.0,0.0,0.0,0.0,0.0,0.0,0.0,0.0,0.0,0.0,0.0,0.0,0.0,0.0,0.0,0.0,0.0,0.0,0.0,0.0,0.0,0.0,0.0,-0.0454,-0.1109,-0.1109,-0.1611,-0.2564,-0.452,-0.5122,-0.5372,-0.6731,-0.7135,-0.7235,-0.7839,-0.7988,-0.7988,-0.7988,-0.7988,-0.7988,-0.7988,-0.7988,-0.7988,-0.7988,-0.7988,-0.7988,-0.7988,-0.7988,-0.7988,-0.7988,-0.7988,-0.7988,-0.7988,-0.7988,-0.7988,-0.7988,-0.7988,-0.7988,-0.7988,-0.7902,-0.7753,-0.7611,-0.7458,-0.7305,-0.7105,-0.7038,-0.69,-0.6709,-0.6634,-0.6532,-0.6306,-0.63,-0.63,-0.63,-0.63,-0.6606,-0.7138,-0.7138,-0.7442,1.0011,1.0222,1.0297,1.0061,1.0004,0.9927,0.9456,0.9258,0.8961,0.8353,0.0,0.7853,0.7648,0.7841,0.8137,0.8638,0.0,0.9523,0.995,1.0195,0.9694,0.8011,0.7827,0.6479,0.3017,0.2722,0.1922,0.0134,0.0,0.0,0.0,0.0,0.0,0.0,0.0,0.0,0.0,0.0,0.0,0.0,0.0,0.0,0.0,0.0,0.0,0.0,0.0,0.0,0.0,0.0,0.0,0.0,0.0,0.0,0.0,0.0,0.0,0.0,0.0,0.0,-0.0404,-0.2914,-0.3715,-0.3966,-0.5325,-0.5727,-0.5977,-0.7132,-0.7584,-0.7739,-0.7739,-0.7889,-0.7988,-0.7988,-0.7988,-0.7988,-0.7988,-0.7988,-0.7988,-0.7988,-0.7988,-0.7988,-0.7988,-0.7988,-0.7988,-0.7988,-0.7988,-0.7988,-0.7988,-0.7988,-0.7988,-0.7988,-0.7902,-0.7753,-0.7611,-0.7458,-0.7305,-0.7105,-0.698,-0.6836,-0.6709,-0.6573,-0.6467,-0.6303,-0.63,-0.63,-0.63,-0.63,-0.63,-0.63,-0.63,-0.63,1.0409,1.0527,1.0578,1.0307,1.0144,0.9961,0.9381,0.8941,0.0,0.0,0.7865,0.7658,0.7607,0.7841,0.8137,0.8638,0.8981,0.9497,0.0,0.0,0.9726,0.0,0.0,0.0,0.0,0.0,0.0,0.0,0.0,0.0,0.0,0.0,0.0,0.0,0.0,0.0,0.0,0.0,0.0,0.0,0.0,0.0,0.0,0.0,0.0,0.0,0.0,0.0,0.0,0.0,0.0,0.0,0.0,0.0,0.0,0.0,0.0,0.0,0.0,0.0,-0.0252,-0.1812,-0.2364,-0.2614,-0.3917,-0.4368,-0.4418,-0.4616,-0.5472,-0.6331,-0.6331,-0.7182,-0.7988,-0.7988,-0.7988,-0.7988,-0.7988,-0.7988,-0.7988,-0.7988,-0.7988,-0.7988,-0.7988,-0.7988,-0.7988,-0.7988,-0.7988,-0.7988,-0.7988,-0.7988,-0.7988,-0.7988,-0.7902,-0.7753,-0.7611,-0.7458,-0.7305,-0.7105,-0.7071,-0.694,-0.6712,-0.6675,-0.6536,-0.6306,-0.63,-0.63,-0.63,-0.63,-0.63,-0.63,-0.63,-0.63,1.0588,1.0663,1.0649,1.0354,1.0164,0.9873,0.9195,0.0,0.0,0.0,0.7699,0.7577,0.7495,0.7787,0.0,0.8435,0.873,0.0,0.0,0.0,0.0,0.0,0.0,0.0,0.0,0.0,0.0,0.0,0.0,0.0,0.0,0.0,0.0,0.0,0.0,0.0,0.0,0.0,0.0,0.0,0.0,0.0,0.0,0.0,0.0,0.0,0.0,0.0,0.0,0.0,0.0,0.0,0.0,0.0,0.0,0.0,0.0,0.0,0.0,0.0,-0.0101,-0.0756,-0.0958,-0.1209,-0.2564,-0.2964,-0.3115,-0.3815,-0.4468,-0.5122,-0.5827,-0.5977,-0.6274,-0.7686,-0.7988,-0.7988,-0.7988,-0.7988,-0.7988,-0.7988,-0.7988,-0.7988,-0.7988,-0.7988,-0.7988,-0.7988,-0.7988,-0.7988,-0.7988,-0.7988,-0.7988,-0.7988,-0.7902,-0.7753,-0.7611,-0.7458,-0.7305,-0.7105,-0.6953,-0.6848,-0.6705,-0.6552,-0.6446,-0.6303,-0.63,-0.63,-0.63,-0.63,-0.63,-0.63,-0.63,-0.63,1.0639,1.0697,1.0649,1.0354,1.0137,0.9751,0.9043,0.8679,0.0,0.0,0.7621,0.757,0.7482,0.7753,0.8062,0.0,0.8509,0.8832,0.0,0.0,0.0,0.0,0.0,0.0,0.0,0.0,0.0,0.0,0.0,0.0,0.0,0.0,0.0,0.0,0.0,0.0,0.0,0.0,0.0,0.0,0.0,0.0,0.0,0.0,0.0,0.0,0.0,0.0,0.0,0.0,0.0,0.0,0.0,0.0,0.0,0.0,0.0,0.0,0.0,0.0,0.0,0.0,0.0,-0.0202,-0.126,-0.1561,-0.1812,-0.2865,-0.3366,-0.3817,-0.4872,-0.457,-0.4516,-0.6625,-0.7129,-0.7232,-0.7487,-0.7587,-0.7637,-0.7939,-0.7988,-0.7988,-0.7988,-0.7988,-0.7988,-0.7988,-0.7988,-0.7988,-0.7988,-0.7988,-0.7988,-0.7988,-0.7875,-0.7706,-0.7563,-0.7411,-0.7272,-0.7102,-0.6895,-0.6732,-0.6702,-0.6487,-0.633,-0.63,-0.63,-0.63,-0.63,-0.63,-0.63,-0.63,-0.63,-0.63,1.051,1.0616,1.0649,1.0354,1.0059,0.9683,0.902,0.0,0.0,0.7862,0.7689,0.7634,0.775,0.7804,0.797,0.8394,0.0,0.871,0.0,0.0,0.0,0.0,0.0,0.0,0.0,0.0,0.0,0.0,0.0,0.0,0.0,0.0,0.0,0.0,0.0,0.0,0.0,0.0,0.0,0.0,0.0,0.0,0.0,0.0,0.0,0.0,0.0,0.0,0.0,0.0,0.0,0.0,0.0,0.0,0.0,0.0,0.0,0.0,0.0,0.0,0.0,0.0,0.0,0.0,-0.0151,-0.0202,-0.0202,-0.0353,-0.126,-0.2213,-0.2314,-0.3165,-0.4066,-0.4316,-0.4366,-0.4718,-0.5927,-0.6179,-0.6531,-0.7786,-0.7988,-0.7988,-0.7988,-0.7988,-0.7988,-0.7988,-0.7988,-0.7988,-0.7988,-0.7988,-0.7988,-0.7988,-0.7787,-0.7556,-0.745,-0.7251,-0.7112,-0.7098,-0.695,-0.6848,-0.6705,-0.6539,-0.6433,-0.6303,-0.63,-0.63,-0.63,-0.63,-0.63,-0.63,-0.63,-0.63,1.0314,1.047,1.0514,1.0215,0.9917,0.9561,0.8996,0.0,0.8184,0.7875,0.7767,0.7743,0.7801,0.7885,0.8007,0.8187,0.0,0.0,0.8781,0.0,0.0,0.0,0.0,0.0,0.0,0.0,0.0,0.0,0.0,0.0,0.0,0.0,0.0,0.0,0.0,0.0,0.0,0.0,0.0,0.0,0.0,0.0,0.0,0.0,0.0,0.0,0.0,0.0,0.0,0.0,0.0,0.0,0.0,0.0,0.0,0.0,0.0,0.0,0.0,0.0,0.0,0.0,0.0,0.0,0.0,0.0,0.0,0.0,-0.04,-0.0958,-0.1812,-0.3015,-0.3815,-0.2964,-0.3416,-0.4166,-0.467,-0.482,-0.497,-0.547,-0.557,-0.557,-0.557,-0.557,-0.5874,-0.6681,-0.6783,-0.7053,-0.7766,-0.7934,-0.7887,-0.7668,-0.7614,-0.7577,-0.7512,-0.7282,-0.7095,-0.7095,-0.6964,-0.6861,-0.6709,-0.6552,-0.6446,-0.6303,-0.63,-0.63,-0.63,-0.63,-0.63,-0.63,-0.63,-0.63,1.0022,1.0253,1.0368,1.0051,0.9795,0.9435,0.0,0.0,0.8197,0.7933,0.7879,0.7879,0.7879,0.788,0.7924,0.0,0.0,0.8062,0.8316,0.0,0.0,0.0,0.0,0.0,0.0,0.0,0.0,0.0,0.0,0.0,0.0,0.1085,0.1143,0.0648,0.0238,0.0238,0.0643,0.0231,0.0,0.0,0.0,0.0,0.0,0.0,0.0,0.0,0.0,0.0,0.0,0.0,0.0,0.0,0.0,0.0,0.0,0.0,0.0,0.0,0.0,0.0,0.0,0.0,0.0,0.0,0.0,0.0,0.0,0.0,0.0,-0.0202,-0.1159,-0.2113,-0.2564,-0.1611,-0.2113,-0.2914,-0.3316,-0.3416,-0.3516,-0.3915,-0.4016,-0.4016,-0.4016,-0.4316,-0.492,-0.5879,-0.6331,-0.6886,-0.7682,-0.7906,-0.7834,-0.7478,-0.7495,-0.7512,-0.7468,-0.722,-0.7095,-0.7095,-0.692,-0.6814,-0.6705,-0.6552,-0.6402,-0.6303,-0.63,-0.63,-0.63,-0.63,-0.63,-0.63,-0.63,-0.63,0.9615,0.9944,1.0246,1.0027,0.9713,0.9306,0.0,0.8591,0.8225,0.8019,0.7988,0.7988,0.7988,0.7916,0.7814,0.7814,0.7814,0.0,0.7971,0.0,0.0,0.0,0.0,0.0,0.0,0.0,0.0,0.0,0.0,0.0,0.0,0.0,0.3753,0.2231,0.0765,0.0701,0.2179,0.0746,0.0,0.0,0.0,0.0,0.0,0.0,0.0,0.0,0.0,0.0,0.0,0.0,0.0,0.0,0.0,0.0,0.0,0.0,0.0,0.0,0.0,0.0,0.0,0.0,0.0,0.0,0.0,0.0,0.0,0.0,0.0,0.0,0.0,-0.0051,-0.0051,0.0,-0.0051,-0.0404,-0.1712,-0.2013,-0.2414,-0.3765,-0.4016,-0.4016,-0.4016,-0.512,-0.5979,-0.5979,-0.7135,-0.7934,-0.7831,-0.7814,-0.7756,-0.7611,-0.7461,-0.7312,-0.7112,-0.7098,-0.7095,-0.7095,-0.6865,-0.6702,-0.6702,-0.646,-0.6303,-0.63,-0.63,-0.63,-0.63,-0.63,-0.63,-0.63,-0.63,-0.63,0.9093,0.9327,0.9476,0.9327,0.9106,0.8872,0.8672,0.8442,0.8225,0.8022,0.7988,0.7988,0.7988,0.7948,0.7917,0.7917,0.7917,0.0,0.0,0.0,0.0,0.0,0.0,0.0,0.0,0.0,0.0,0.0,0.0,0.0,0.0,0.0,0.3631,0.2271,0.2613,0.3099,0.3542,0.2082,0.1356,0.1341,0.0425,0.0,0.0,0.0,0.0,0.0,0.0,0.0,0.0,0.0,0.0,0.0,0.0,0.0,0.0,0.0,0.0,0.0,0.0,0.0,0.0,0.0,0.0,0.0,0.0,0.0,0.0,0.0,0.0,0.0,0.0,0.0,0.0,0.0,0.0,-0.0101,-0.0555,-0.0656,-0.0756,-0.1159,-0.126,-0.126,-0.126,-0.2364,-0.3553,-0.4396,-0.5615,-0.6768,-0.7449,-0.76,-0.757,-0.7267,-0.7336,-0.7353,-0.7302,-0.72,-0.7095,-0.7095,-0.7007,-0.6909,-0.6709,-0.661,-0.6508,-0.6303,-0.63,-0.63,-0.63,-0.63,-0.63,-0.63,-0.63,-0.63,0.8574,0.8876,0.9052,0.8905,0.8781,0.0,0.8503,0.8326,0.8157,0.8008,0.7988,0.7971,0.7914,0.786,0.7855,0.7797,0.7787,0.0,0.0,0.0,0.0,0.0,0.0,0.0,0.0,0.0,0.0,0.0,0.0,0.0,0.0,0.0,0.5237,0.3779,0.4024,0.4445,0.5012,0.3545,0.2824,0.2733,0.1406,0.0775,0.0718,0.0,0.0,0.0,0.0,0.0,0.0,0.0,0.0,0.0,0.0,0.0,0.0,0.0,0.0,0.0,0.0,0.0,0.0,0.0,0.0,0.0,0.0,0.0,0.0,0.0,0.0,0.0,0.0,0.0,0.0,0.0,0.0,0.0,0.0,0.0,0.0,0.0,0.0,0.0,0.0,-0.1109,-0.2255,-0.3019,-0.427,-0.536,-0.5986,-0.6128,-0.6069,-0.5819,-0.5913,-0.6141,-0.6602,-0.6926,-0.7095,-0.7095,-0.7048,-0.691,-0.6712,-0.6644,-0.6505,-0.6306,-0.63,-0.63,-0.63,-0.63,-0.63,-0.63,-0.63,-0.63,0.0,0.8526,0.879,0.8801,0.0,0.0,0.8418,0.8214,0.0,0.7975,0.7982,0.7944,0.7851,0.7709,0.7567,0.7473,0.0,0.0,0.0,0.0,0.0,0.0,0.0,0.0,0.0,0.0,0.0,0.0,0.0,0.0,0.0,0.0,0.0,0.6508,0.5161,0.5112,0.6453,0.505,0.4261,0.4121,0.2785,0.2097,0.1962,0.0,0.0,0.0,0.0,0.0,0.0,0.0,0.0,0.0,0.0,0.0,0.0,0.0,0.0,0.0,0.0,0.0,0.0,0.0,0.0,0.0,0.0,0.0,0.0,0.0,0.0,0.0,0.0,0.0,0.0,0.0,0.0,0.0,0.0,0.0,0.0,0.0,0.0,0.0,0.0,-0.1109,-0.2012,-0.2009,-0.3112,-0.3924,-0.3799,-0.3769,-0.3741,-0.3623,-0.3614,-0.4061,-0.5179,-0.6337,-0.7003,-0.7082,-0.6967,-0.6865,-0.6692,-0.6559,-0.6457,-0.6303,-0.63,-0.6261,-0.618,-0.6261,-0.63,-0.63,-0.63,-0.6261,0.7719,0.0,0.794,0.8048,0.794,0.7807,0.0,0.7838,0.7865,0.7865,0.7911,0.7978,0.7941,0.7865,0.775,0.7716,0.0,0.0,0.0,0.0,0.0,0.0,0.0,0.0,0.0,0.0,0.0,0.0,0.0,0.0,0.0,0.0,0.0,0.7849,0.7516,0.7519,0.7849,0.6331,0.5558,0.5512,0.4196,0.2977,0.2013,0.0,0.0,0.0,0.0,0.0,0.0,0.0,0.0,0.0,0.0,0.0,0.0,0.0,0.0,0.0,0.0,0.0,0.0,0.0,0.0,0.0,0.0,0.0,0.0,0.0,0.0,0.0,0.0,0.0,0.0,0.0,0.0,0.0,0.0,0.0,0.0,0.0,0.0,0.0,0.0,-0.1109,-0.1954,-0.1878,-0.3003,-0.3796,-0.3673,-0.3643,-0.3635,-0.3616,-0.3614,-0.3703,-0.4016,-0.5132,-0.6122,-0.69,-0.7004,-0.6919,-0.6579,-0.6603,-0.6525,-0.6306,-0.63,-0.5906,-0.5079,-0.5906,-0.63,-0.63,-0.63,-0.5867,0.756,0.7699,0.7821,0.7896,0.7858,0.7784,0.7712,0.7756,0.7794,0.7729,0.778,0.7818,0.7746,0.7723,0.0,0.0,0.0,0.0,0.0,0.0,0.0,0.0,0.0,0.0,0.0,0.0,0.0,0.0,0.0,0.0,0.0,0.0,0.0,0.0,0.8163,0.8163,0.8163,0.7437,0.6992,0.6883,0.5575,0.452,0.3819,0.0,0.0,0.0,0.0,0.0,0.0895,0.0244,0.0,0.0,0.0,0.0,0.0,0.0,0.0,0.0,0.0,0.0,0.0,0.0,0.0,0.0,0.0,0.0,0.0,0.0,0.0,0.0,0.0,0.0,0.0,0.0,0.0,0.0,0.0,0.0,0.0,0.0,0.0,0.0,0.0,-0.0601,-0.1041,-0.0982,-0.1577,-0.2007,-0.1939,-0.1948,-0.1969,-0.1969,-0.1969,-0.2191,-0.2726,-0.3395,-0.4221,-0.5313,-0.5453,-0.5356,-0.5107,-0.5116,-0.504,-0.4849,-0.4844,-0.453,-0.3984,-0.453,-0.4844,-0.4844,-0.4844,-0.453,0.755,0.7814,0.7955,0.7955,0.7938,0.7884,0.778,0.7763,0.774,0.7594,0.7584,0.756,0.0,0.7512,0.0,0.0,0.0,0.0,0.0,0.0,0.0,0.0,0.0,0.0,0.0,0.0,0.0,0.0,0.0,0.0,0.0,0.0,0.0,0.0,0.7988,0.7988,0.7988,0.817,0.817,0.7988,0.6833,0.6171,0.5951,0.48,0.0,0.0,0.0,0.0,0.2139,0.0812,0.0285,0.0237,0.0093,0.0,0.0,0.0,0.0,0.0,0.0,0.0,0.0,0.0,0.0,0.0,0.0,0.0,0.0,0.0,0.0,0.0,0.0,0.0,0.0,0.0,0.0,0.0,0.0,0.0,0.0,0.0,0.0,0.0,0.0,0.0,0.0,0.0,0.0,0.0,0.0,0.0,0.0,0.0,0.0,-0.0404,-0.1433,-0.1518,-0.1958,-0.2978,-0.3377,-0.3531,-0.3381,-0.3321,-0.3133,-0.2893,-0.3007,-0.3007,-0.289,-0.3007,-0.3085,-0.3085,-0.3085,-0.3007,0.7699,0.7811,0.7845,0.7845,0.7756,0.7628,0.7475,0.7539,0.759,0.7438,0.0,0.0,0.0,0.7584,0.7594,0.0,0.0,0.0,0.0,0.0,0.0,0.0,0.0,0.0,0.0,0.0,0.0,0.0,0.0,0.0,0.0,0.0,0.0,0.0,0.0,0.7988,0.7988,0.8012,0.8012,0.7988,0.7789,0.7023,0.5835,0.5638,0.4859,0.0,0.0,0.0,0.3238,0.201,0.1531,0.1436,0.0409,0.0,0.0,0.0,0.0,0.0,0.0,0.0,0.0,0.0,0.0,0.0,0.0,0.0,0.0,0.0,0.0,0.0,0.0,0.0,0.0,0.0,0.0,0.0,0.0,0.0,0.0,0.0,0.0,0.0,0.0,0.0,0.0,0.0,0.0,0.0,0.0,0.0,0.0,0.0,0.0,-0.009,-0.0269,-0.0265,-0.035,-0.0524,-0.2483,-0.3498,-0.3343,-0.3192,-0.2717,-0.1841,-0.2657,-0.2696,-0.1841,-0.2696,-0.3085,-0.3085,-0.3085,-0.2657,0.7373,0.7573,0.7611,0.777,0.7824,0.7797,0.7645,0.7662,0.7672,0.7526,0.0,0.0,0.0,0.0,0.7651,0.0,0.0,0.0,0.0,0.0,0.0,0.0,0.0,0.0,0.0,0.0,0.0,0.0,0.0,0.0,0.0,0.0,0.0,0.0,0.0,0.0,0.7801,0.7801,0.7841,0.7916,0.7916,0.7495,0.678,0.678,0.6412,0.0,0.0,0.4669,0.457,0.329,0.2765,0.2672,0.1439,0.0986,0.0897,0.0225,0.0,0.0,0.0,0.0,0.0,0.0,0.0,0.0,0.0,0.0,0.0,0.0,0.0,0.0,0.0,0.0,0.0,0.0,0.0,0.0,0.0,0.0,0.0,0.0,0.0,0.0,0.0,0.0,0.0,0.0,0.0,0.0,0.0,0.0,0.0,0.0,0.0,0.0,0.0,0.0,0.0,0.0,-0.1055,-0.1617,-0.1502,-0.1467,-0.1214,-0.0745,-0.1175,-0.1214,-0.0745,-0.1214,-0.1409,-0.1409,-0.1409,-0.1175,0.6734,0.7211,0.7441,0.7736,0.7875,0.7867,0.7831,0.7784,0.7729,0.7624,0.0,0.0,0.0,0.7577,0.0,0.0,0.0,0.0,0.0,0.0,0.0,0.0,0.0,0.0,0.0,0.0,0.0,0.0,0.0,0.0,0.0,0.0,0.0,0.0,0.0,0.0,0.76,0.76,0.7655,0.7763,0.7763,0.7685,0.7546,0.7546,0.7526,0.7435,0.6369,0.5907,0.5806,0.4505,0.3942,0.3855,0.2676,0.2236,0.2101,0.1159,0.0625,0.0404,0.0404,0.0404,0.0404,0.0404,0.0628,0.0852,0.0852,0.0852,0.0852,0.0852,0.0852,0.072,0.0137,0.0,0.0,0.0,0.0,0.0,0.0,0.0,0.0,0.0,0.0,0.0,0.0,0.0,0.0,0.0,0.0,0.0,0.0,0.0,0.0,0.0,0.0,0.0,0.0,0.0,0.0,0.0,0.0,0.0,0.0,0.0,0.0,0.0,0.0,0.0,0.0,0.0,0.0,0.0,0.0,0.0,0.5837,0.6629,0.7441,0.7736,0.7723,0.7662,0.7784,0.7709,0.7611,0.76,0.0,0.0,0.0,0.0,0.0,0.0,0.0,0.0,0.0,0.0,0.0,0.0,0.0,0.0,0.0,0.0,0.0,0.0,0.0,0.0,0.0,0.0,0.0,0.0,0.0,0.0,0.76,0.76,0.7604,0.7614,0.7614,0.7536,0.7433,0.7433,0.7309,0.7119,0.689,0.6787,0.6698,0.5508,0.498,0.4904,0.3853,0.3481,0.343,0.3235,0.2507,0.1656,0.1656,0.1656,0.1656,0.1656,0.2413,0.3347,0.3347,0.3347,0.3347,0.3347,0.3347,0.2815,0.0584,0.0,0.0,0.0,0.0,0.0,0.0,0.0,0.0,0.0,0.0,0.0,0.0,0.0,0.0,0.0,0.0,0.0,0.0,0.0,0.0,0.0,0.0,0.0,0.0,0.0,0.0,0.0,0.0,0.0,0.0,0.0,0.0,0.0,0.0,0.0,0.0,0.0,0.0,0.0,0.0,0.0,0.5108,0.5917,0.6474,0.7323,0.7499,0.7519,0.7756,0.777,0.7756,0.7851,0.7797,0.0,0.0,0.0,0.0,0.0,0.0,0.0,0.0,0.0,0.0,0.0,0.0,0.0,0.0,0.0,0.0,0.0,0.0,0.0,0.0,0.0,0.0,0.0,0.0,0.0,0.0,0.7088,0.7041,0.7044,0.7322,0.7377,0.7224,0.7136,0.7065,0.6957,0.6851,0.6787,0.6745,0.6273,0.6102,0.5978,0.4834,0.3949,0.3302,0.3233,0.3011,0.2718,0.2763,0.2807,0.2807,0.2761,0.3068,0.346,0.346,0.3534,0.3614,0.3614,0.3614,0.3392,0.2458,0.1665,0.1133,0.1133,0.0545,0.0,0.0,0.0,0.0,0.0,0.0,0.0,0.0,0.0,0.0,0.0,0.0,0.0,0.0,0.0,0.0,0.0,0.0,0.0,0.0,0.0,0.0,0.0,0.0,0.0,0.0,0.0,0.0,0.0,0.0,0.0,0.0,0.0,0.0,0.0,0.0,0.0,0.4383,0.546,0.6294,0.7115,0.7336,0.7438,0.7689,0.7743,0.7801,0.7948,0.7882,0.7716,0.7617,0.0,0.0,0.0,0.0,0.0,0.0,0.0,0.0,0.0,0.0,0.0,0.0,0.0,0.0,0.0,0.0,0.0,0.0,0.0,0.0,0.0,0.0,0.0,0.0,0.6753,0.6702,0.6705,0.7014,0.7105,0.6953,0.6859,0.6858,0.6848,0.6695,0.6627,0.6627,0.6627,0.6658,0.6612,0.5735,0.4909,0.4222,0.4192,0.4032,0.3813,0.3858,0.3858,0.3858,0.3815,0.4112,0.4453,0.4453,0.4497,0.4598,0.463,0.4616,0.4598,0.463,0.351,0.237,0.237,0.1746,0.1124,0.114,0.1143,0.1143,0.1143,0.1143,0.1002,0.063,0.0584,0.0448,0.0045,0.0,0.0,0.0,0.0,0.0,0.0,0.0,0.0,0.0,0.0,0.0,0.0,0.0,0.0,0.0,0.0,0.0,0.0,0.0,0.0,0.0,0.0,0.0,0.0,0.0,0.0,0.359,0.5307,0.7054,0.7098,0.7258,0.746,0.7567,0.76,0.7685,0.7931,0.7804,0.76,0.76,0.0,0.0,0.0,0.0,0.0,0.0,0.0,0.0,0.0,0.0,0.0,0.0,0.0,0.0,0.0,0.0,0.0,0.0,0.0,0.0,0.0,0.0,0.0,0.0,0.6698,0.6698,0.6698,0.6698,0.6698,0.6702,0.6698,0.6698,0.6692,0.6536,0.6511,0.6511,0.6511,0.6559,0.6681,0.6529,0.6563,0.6678,0.6566,0.5828,0.49,0.49,0.49,0.49,0.49,0.5737,0.6698,0.6698,0.6698,0.6732,0.6839,0.6817,0.6736,0.6846,0.5269,0.3612,0.3612,0.3612,0.3614,0.3614,0.3614,0.3614,0.3614,0.3614,0.3213,0.2012,0.1834,0.1423,0.0218,0.0044,0.0043,0.0042,0.0043,0.0044,0.0043,0.0042,0.0041,0.0,0.0,0.0,0.0,0.0,0.0,0.0,0.0,0.0,0.0,0.0,0.0,0.0,0.0,0.0,0.0,0.0,0.0,0.2114,0.352,0.4972,0.5841,0.6814,0.757,0.7716,0.7746,0.0,0.0,0.7804,0.76,0.76,0.0,0.0,0.0,0.0,0.0,0.0,0.0,0.0,0.0,0.0,0.0,0.0,0.0,0.0,0.0,0.0,0.0,0.0,0.0,0.0,0.0,0.0,0.0,0.0,0.0,0.6429,0.6429,0.6429,0.6502,0.6698,0.659,0.6539,0.6573,0.6426,0.6364,0.6364,0.6364,0.6388,0.6426,0.6381,0.6388,0.6426,0.6378,0.6215,0.6006,0.6006,0.6006,0.6006,0.6006,0.6252,0.6539,0.6539,0.6614,0.6709,0.6756,0.6736,0.6712,0.6756,0.6288,0.5546,0.4697,0.3931,0.3408,0.3453,0.3534,0.3554,0.3418,0.3492,0.3405,0.2834,0.2813,0.2691,0.2251,0.2201,0.2197,0.2181,0.2266,0.227,0.2198,0.2165,0.1893,0.1191,0.1142,0.1137,0.1137,0.1137,0.0784,0.0039,0.0,0.0,0.0,0.0,0.0,0.0,0.0,0.0,0.0,0.0,0.0,0.1588,0.315,0.4697,0.5438,0.6634,0.7706,0.779,0.0,0.0,0.0,0.0,0.7509,0.0,0.0,0.0,0.0,0.0,0.0,0.0,0.0,0.0,0.0,0.0,0.0,0.0,0.0,0.0,0.0,0.0,0.0,0.0,0.0,0.0,0.0,0.0,0.0,0.0,0.0,0.0,0.63,0.63,0.6361,0.643,0.64,0.6426,0.6422,0.6337,0.6265,0.6169,0.6169,0.6169,0.6162,0.6139,0.6115,0.6169,0.6169,0.63,0.6426,0.6426,0.6426,0.6426,0.6426,0.6426,0.6426,0.6426,0.6494,0.6536,0.6593,0.6569,0.6539,0.6597,0.6569,0.639,0.5756,0.5118,0.4654,0.4697,0.4787,0.481,0.4666,0.4746,0.4617,0.3912,0.3896,0.3733,0.3192,0.3115,0.3107,0.3095,0.3152,0.318,0.3121,0.3089,0.2847,0.2165,0.218,0.2182,0.2124,0.218,0.1918,0.1253,0.1214,0.1214,0.1214,0.1214,0.1214,0.1214,0.1164,0.1159,0.1159,0.1109,0.1066,0.1654,0.3411,0.5303,0.5417,0.6614,0.7807,0.7794,0.778,0.7773,0.7787,0.0,0.0,0.0,0.0,0.0,0.0,0.0,0.0,0.0,0.0,0.0,0.0,0.0,0.0,0.0,0.0,0.0,0.0,0.0,0.0,0.0,0.0,0.0,0.0,0.0,0.0,0.0,0.0,0.0,0.0,0.6279,0.6159,0.5976,0.6169,0.6272,0.6255,0.6255,0.6139,0.5973,0.5973,0.5973,0.5956,0.5857,0.5884,0.5973,0.5973,0.6098,0.6255,0.6255,0.6255,0.6262,0.6276,0.6279,0.6282,0.6296,0.63,0.6327,0.6457,0.6399,0.6327,0.6439,0.6385,0.6364,0.658,0.6661,0.6678,0.6678,0.6692,0.6698,0.6681,0.6692,0.6357,0.5209,0.5046,0.4683,0.3561,0.341,0.3388,0.3369,0.3398,0.3379,0.336,0.334,0.3268,0.3051,0.3149,0.3163,0.3059,0.3161,0.3279,0.3396,0.3202,0.3085,0.3085,0.3085,0.3081,0.3075,0.2973,0.2902,0.2892,0.2753,0.269,0.0369,0.1478,0.2881,0.4072,0.6066,0.778,0.7672,0.7553,0.7499,0.7621,0.0,0.0,0.0,0.0,0.0,0.0,0.0,0.0,0.0,0.0,0.0,0.0,0.0,0.0,0.0,0.0,0.0,0.0,0.0,0.0,0.0,0.0,0.0,0.0,0.0,0.0,0.63,0.63,0.6238,0.0,0.6078,0.6,0.5857,0.601,0.6013,0.5901,0.5901,0.5881,0.585,0.585,0.585,0.5847,0.5813,0.582,0.585,0.585,0.5871,0.5901,0.5901,0.5901,0.5918,0.604,0.6078,0.6101,0.6262,0.63,0.6306,0.6337,0.6323,0.6279,0.6149,0.6193,0.6286,0.6186,0.6352,0.6562,0.6562,0.6617,0.6664,0.6546,0.6617,0.6545,0.6073,0.6085,0.6027,0.5653,0.5692,0.5674,0.5419,0.5502,0.5519,0.5257,0.5209,0.4854,0.3992,0.4078,0.4202,0.4143,0.4277,0.4727,0.5589,0.3982,0.3085,0.3085,0.3085,0.3058,0.2926,0.2912,0.2838,0.2745,0.2729,0.2753,0.0,0.0938,0.2411,0.4465,0.0,0.7692,0.7617,0.7424,0.7265,0.0,0.0,0.0,0.0,0.0,0.0,0.0,0.0,0.0,0.0,0.0,0.0,0.0,0.0,0.0,0.0,0.0,0.0,0.0,0.0,0.0,0.0,0.0,0.0,0.0,0.0,0.0,0.7022,0.6787,0.6444,0.599,0.5919,0.6053,0.6327,0.6031,0.584,0.5705,0.5772,0.5762,0.5701,0.5701,0.5701,0.5691,0.562,0.5637,0.5701,0.5701,0.5742,0.58,0.58,0.58,0.5813,0.5895,0.5922,0.5935,0.6017,0.6078,0.6078,0.6078,0.6078,0.604,0.5993,0.6091,0.6149,0.6142,0.6257,0.6412,0.6412,0.6474,0.6508,0.6426,0.6474,0.648,0.6327,0.6361,0.6385,0.631,0.6261,0.6203,0.6013,0.6037,0.5979,0.582,0.58,0.5558,0.4924,0.5032,0.5076,0.5017,0.5172,0.547,0.604,0.4977,0.446,0.4647,0.4555,0.449,0.4528,0.4435,0.4313,0.4169,0.4118,0.4127,0.0,0.0995,0.2586,0.4967,0.6446,0.0,0.7456,0.7288,0.7018,0.0,0.0,0.0,0.0,0.0,0.0,0.0,0.0,0.0,0.0,0.0,0.0,0.0,0.0,0.0,0.0,0.0,0.0,0.0,0.0,0.0,0.0,0.0,0.0,0.0,0.0,0.847,0.7908,0.7517,0.6997,0.6386,0.6258,0.6487,0.706,0.646,0.6038,0.5792,0.5744,0.5657,0.5552,0.5552,0.5552,0.5538,0.5443,0.5474,0.5552,0.5552,0.5627,0.5725,0.5725,0.5725,0.5728,0.5755,0.5766,0.5769,0.5793,0.582,0.5833,0.581,0.582,0.5857,0.5899,0.5936,0.6017,0.616,0.6224,0.6269,0.6293,0.6279,0.6269,0.6293,0.63,0.63,0.63,0.6279,0.6259,0.6259,0.6088,0.5946,0.5922,0.5844,0.5755,0.5728,0.5725,0.5677,0.5559,0.5681,0.5715,0.5596,0.5725,0.58,0.58,0.5779,0.5898,0.6214,0.6054,0.604,0.6184,0.6017,0.5888,0.5762,0.5644,0.5616,0.0,0.0,0.2324,0.0,0.4886,0.6081,0.0,0.0,0.0,0.0,0.0,0.0,0.0,0.0,0.0,0.0,0.0,0.0,0.0,0.0,0.0,0.0,0.0,0.0,0.0,0.0,0.0,0.0,0.0,0.0,0.0,0.0,0.8878,0.8878,0.8592,0.0,0.8314,0.8256,0.812,0.7907,0.7755,0.7771,0.7844,0.7738,0.7278,0.6498,0.5774,0.5443,0.5426,0.5426,0.5426,0.5423,0.5402,0.5405,0.5426,0.5426,0.5436,0.5453,0.5453,0.5453,0.5477,0.5576,0.5616,0.564,0.5766,0.5895,0.5936,0.5837,0.5895,0.5909,0.5708,0.5739,0.5806,0.5705,0.5874,0.6098,0.6272,0.6156,0.6101,0.6272,0.63,0.63,0.63,0.6149,0.6023,0.6023,0.5928,0.5786,0.5664,0.563,0.5566,0.5467,0.5453,0.5446,0.5426,0.5566,0.561,0.5593,0.5725,0.58,0.58,0.5684,0.5694,0.5861,0.584,0.5783,0.5681,0.5657,0.5637,0.5616,0.5599,0.5728,0.0,0.097,0.2112,0.0,0.4146,0.5683,0.6001,0.0,0.0,0.0,0.0,0.0,0.0,0.0,0.0,0.0,0.0,0.0,0.0,0.0,0.0,0.0,0.0,0.0,0.0,0.0,0.0,0.0,0.0,0.0,0.0,1.0617,1.0444,1.026,1.0006,0.0,0.9243,0.9022,0.8638,0.8075,0.804,0.8253,0.8716,0.8221,0.78,0.7405,0.7022,0.6564,0.6141,0.6141,0.5848,0.5395,0.5395,0.5395,0.5395,0.5395,0.5395,0.5395,0.5395,0.5395,0.5405,0.5474,0.5494,0.5508,0.5569,0.5603,0.564,0.561,0.5603,0.5644,0.5599,0.5637,0.5688,0.5705,0.6129,0.6563,0.6702,0.6457,0.6179,0.6286,0.616,0.603,0.6118,0.6003,0.5901,0.5901,0.5776,0.5661,0.5599,0.5549,0.547,0.5402,0.5395,0.5395,0.5395,0.5457,0.5494,0.5494,0.5552,0.559,0.559,0.5996,0.6255,0.6291,0.5912,0.5934,0.6444,0.6607,0.6603,0.6444,0.6607,0.6444,0.0,0.0,0.1548,0.1884,0.3308,0.4684,0.0,0.0,0.0,0.0,0.0,0.0,0.0,0.0,0.0,0.0,0.0,0.0,0.0,0.0,0.0,0.0,0.0,0.0,0.0,0.0,0.0,0.0,0.0,0.0,1.1913,1.1759,1.155,1.1323,1.1035,1.0646,1.0097,0.9788,0.9294,0.8672,0.8672,0.9,0.9594,0.8967,0.8672,0.864,0.8188,0.7632,0.7046,0.7046,0.6658,0.6046,0.6046,0.5914,0.5752,0.598,0.5914,0.5752,0.598,0.6046,0.6046,0.6046,0.6046,0.6046,0.6046,0.6076,0.607,0.5796,0.5914,0.6063,0.5913,0.6037,0.6234,0.6317,0.6798,0.7249,0.7364,0.7151,0.6904,0.6863,0.6681,0.656,0.661,0.6486,0.6341,0.6097,0.6171,0.6135,0.59,0.5992,0.6046,0.6046,0.6046,0.6046,0.6046,0.6046,0.6046,0.6046,0.6046,0.6046,0.6046,0.6691,0.7046,0.7046,0.6504,0.6569,0.732,0.7535,0.7553,0.7399,0.7659,0.7412,0.0,0.0042,0.0,0.1519,0.1901,0.0,0.0,0.0,0.0,0.0,0.0,0.0,0.0,0.0,0.0,0.0,0.0,0.0,0.0,0.0,0.0,0.0,0.0,0.0,0.0,0.0,0.0,0.0,0.0,0.0,1.1906,1.1377,1.1035,1.1015,1.0767,1.0588,1.0569,1.0543,1.0498,1.046,1.046,1.0491,1.053,1.0491,1.046,1.0364,0.8705,0.7962,0.7929,0.7929,0.7897,0.7864,0.7864,0.7372,0.6719,0.7572,0.734,0.6752,0.7567,0.7864,0.7864,0.7864,0.7864,0.7864,0.7864,0.7943,0.7865,0.6902,0.7318,0.7832,0.6878,0.726,0.7884,0.7894,0.8016,0.8131,0.8141,0.8407,0.8607,0.8335,0.8473,0.8573,0.8311,0.8181,0.7807,0.695,0.7422,0.7587,0.6732,0.7349,0.7864,0.7864,0.7864,0.7864,0.7864,0.7864,0.7864,0.7864,0.7864,0.7864,0.7864,0.7897,0.7929,0.7929,0.7907,0.7884,0.7965,0.7975,0.8019,0.8151,0.8404,0.8572,0.0,0.0,0.0,0.0517,0.1222,0.1868,0.0,0.0,0.0,0.0,0.0,0.0,0.0,0.0,0.0,0.0,0.0,0.0,0.0,0.0,0.0,0.0,0.0,0.0,0.0,0.0,0.0,0.0,0.0,0.0,1.1597,1.1209,1.0909,1.0754,1.0646,1.0593,1.0593,1.0593,1.0593,1.0593,1.0593,1.0593,1.0593,1.0593,1.0593,1.0561,0.9939,0.9358,0.8844,0.8844,0.8517,0.7994,0.7994,0.7795,0.7567,0.7897,0.78,0.7567,0.7892,0.7994,0.7994,0.7994,0.7994,0.7994,0.7994,0.8017,0.8002,0.7624,0.7789,0.7997,0.7619,0.7762,0.8124,0.8716,0.8879,0.9044,0.963,0.903,0.8409,0.8393,0.8344,0.8297,0.8265,0.8163,0.7984,0.765,0.7816,0.7897,0.7567,0.7795,0.7994,0.7994,0.7994,0.7994,0.7994,0.7994,0.7994,0.7994,0.7994,0.7994,0.7994,0.8549,0.8844,0.8844,0.939,0.939,0.8844,0.9002,0.9086,0.9047,0.9543,0.9412,0.0,0.0,0.0,0.0,0.0,0.1259,0.0,0.0,0.0,0.0,0.0,0.0,0.0,0.0,0.0,0.0,0.0,0.0,0.0,0.0,0.0,0.0,0.0,0.0,0.0,0.0,0.0,0.0,0.0,0.0,1.1289,1.1002,1.0787,1.06,1.0593,1.0593,1.0593,1.0593,1.0593,1.0593,1.0593,1.0593,1.0593,1.0593,1.0593,1.0586,1.0486,1.0178,0.9716,0.9623,0.9281,0.886,0.8744,0.8601,0.8484,0.8775,0.8678,0.8484,0.8775,0.8815,0.871,0.871,0.8654,0.8572,0.8687,0.871,0.8669,0.8495,0.864,0.8807,0.8517,0.8646,0.9032,0.9594,0.9722,0.9888,1.0466,0.9827,0.9125,0.9129,0.9053,0.9017,0.9003,0.8945,0.8775,0.8484,0.8672,0.8775,0.8484,0.871,0.8871,0.8871,0.8871,0.8871,0.8871,0.8871,0.8871,0.8871,0.8871,0.8871,0.8871,0.9428,0.9722,0.9722,1.0301,1.0333,0.9722,0.99,0.9948,0.9888,1.0367,1.026,0.0,0.0,0.0,0.0,0.0,0.0,0.0,0.0,0.0,0.0,0.0,0.0,0.0,0.0,0.0,0.0,0.0,0.0,0.0,0.0,0.0,0.0,0.0,0.0,0.0,0.0,0.0,0.0,0.0,1.0995,1.0995,1.0754,1.0593,1.0593,1.0593,1.0593,1.0593,1.0593,1.0593,1.0593,1.0593,1.0593,1.0593,1.0593,1.0586,1.0566,1.0247,1.0287,1.0553,1.0234,1.0287,1.0553,1.0227,0.9786,0.941,1.0243,1.0028,0.9454,1.0281,1.0378,1.0083,1.0077,0.9913,0.974,1.002,1.01,0.9977,0.9465,0.9926,1.0376,0.955,0.9977,1.0593,1.0593,1.0593,1.0593,1.0593,1.0814,1.0895,1.0646,1.0821,1.0889,1.0626,1.0586,1.0301,0.9454,1.004,1.0301,0.9434,1.0079,1.0593,1.0593,1.0593,1.0593,1.0593,1.0593,1.0593,1.0593,1.0593,1.0593,1.0593,1.0593,1.0593,1.0593,1.0593,1.0593,1.0593,1.0593,1.0593,1.06,1.0894,1.1149,0.0,0.0,0.0,0.0,0.0,0.0,0.0,0.0,0.0,0.0,0.0,0.0,0.0,0.0,0.0,0.0,0.0,0.0,0.0,0.0,0.0,0.0,0.0,0.0,0.0,0.0,0.0,0.0,0.0,1.0995,1.0995,1.0754,1.0593,1.0593,1.0593,1.0593,1.0593,1.0593,1.0593,1.0593,1.0593,1.0593,1.0593,1.0593,1.0472,1.0247,1.0412,1.0392,1.0234,1.0147,1.0167,1.0234,1.0147,0.989,0.9622,0.9867,0.9903,0.9901,0.994,1.0013,1.008,0.9873,0.9746,0.9729,0.978,0.98,0.979,0.9632,0.9771,0.9943,0.9905,1.0238,1.0593,1.0593,1.0593,1.0593,1.0593,1.0653,1.0687,1.0606,1.066,1.062,1.0287,1.0445,1.0456,0.9959,1.0296,1.0498,1.0269,1.0466,1.0593,1.0593,1.0593,1.0593,1.0593,1.0593,1.0593,1.0593,1.0593,1.0593,1.0593,1.0593,1.0593,1.0593,1.0593,1.0593,1.0593,1.0593,1.0593,1.06,1.0894,1.1149,0.0551,0.0667,0.0,0.0,0.0,0.0,0.3424,0.4139,0.0,0.0,0.0,0.0,0.0,0.0,0.0,0.0,0.0,0.0,0.0,0.0,0.0,0.0,0.0,0.0,0.0,0.0,0.0,0.0,1.1109,1.0847,1.0847,1.068,1.0593,1.0593,1.0593,1.0593,1.0593,1.0593,1.0593,1.0593,1.0593,1.0593,1.0593,1.0593,1.0432,1.0097,1.0301,1.0207,0.9933,0.9933,1.0007,1.0057,0.9817,0.9726,0.9715,0.9715,0.9793,0.9913,0.974,0.9713,0.969,0.9552,0.9419,0.9339,0.9466,0.9499,0.9526,0.9653,0.9773,0.9907,1.0074,1.0341,1.0593,1.0593,1.0593,1.0593,1.0593,1.0492,1.0374,1.0374,1.0374,1.0281,0.9987,1.011,1.0164,0.996,1.0117,1.0271,1.0392,1.0374,1.0452,1.0579,1.0593,1.0593,1.0593,1.0593,1.0593,1.0593,1.0593,1.0744,1.1076,1.1108,1.1264,1.16,1.16,1.16,1.16,1.1264,1.1264,1.1608,1.1418,1.1596,0.1346,0.1691,0.2025,0.0,0.0,0.0,0.4589,0.4781,0.5004,0.0,0.0,0.0,0.0,0.0,0.0,0.0,0.0,0.0,0.0,0.0,0.0,0.0,0.0,0.0,0.0,0.0,0.0,1.0923,1.0754,1.0593,1.0593,1.0593,1.0593,1.0593,1.0593,1.0593,1.0593,1.0593,1.0593,1.0593,1.0593,1.0593,1.0593,1.0593,1.0412,1.0067,1.01,0.9933,0.9633,0.9633,0.9786,0.9937,0.9417,0.9351,0.9615,0.9615,0.9606,0.9626,0.9599,0.9432,0.9211,0.9178,0.8991,0.8851,0.9084,0.9164,0.9217,0.9512,0.9793,0.999,0.999,1.0241,1.0492,1.0492,1.0492,1.0492,1.0492,1.0254,1.003,0.9997,1.0017,0.9973,0.9686,0.9659,0.9702,0.9755,0.9804,0.9919,1.0237,1.0328,1.0458,1.0763,1.085,1.087,1.087,1.087,1.087,1.087,1.087,1.1202,1.1896,1.1919,1.2266,1.2978,1.3009,1.3039,1.313,1.2328,1.2297,1.2978,1.2266,1.2328,0.0,0.0,0.0,0.0,0.0,0.0,0.5478,0.5854,0.6028,0.0,0.0,0.0,0.0,0.0,0.0,0.0,0.0,0.0,0.0,0.0,0.0,0.0,0.0,0.0,0.0,0.0,1.0016,1.0923,1.0754,1.0593,1.0593,1.0593,1.0593,1.0593,1.0593,1.0593,1.0593,1.0593,1.0593,1.0593,1.0593,1.0593,1.0593,1.0593,1.0305,0.978,1.0013,0.979,0.9297,0.9297,0.9331,0.9371,0.9257,0.9104,0.8978,0.8978,0.9098,0.9264,0.9058,0.9064,0.9171,0.8938,0.8851,0.8818,0.8851,0.8891,0.8905,0.8958,0.9158,0.9384,0.9384,0.9633,0.9883,0.9883,0.9883,0.9883,0.9883,0.9836,0.9699,0.9431,0.9606,0.9673,0.9351,0.9526,0.98,1.0125,1.0383,1.073,1.1324,1.1734,1.1976,1.2039,1.2323,1.252,1.252,1.252,1.252,1.252,1.252,1.2612,1.2757,1.2765,1.2856,1.3009,1.3009,1.3312,1.3965,1.3152,1.2848,1.3009,1.2856,1.2848,0.0,0.0,0.0,0.5485,0.0,0.0,0.0,0.6135,0.6074,0.0,0.0,0.0,0.0,0.0,0.0,0.0,0.0,0.0,0.0,0.0,0.0,0.0,0.0,0.0,0.0,0.0,0.986,1.0743,1.0673,1.0593,1.0593,1.0593,1.0593,1.0593,1.0593,1.0593,1.0593,1.0593,1.0593,1.0593,1.0593,1.0593,1.0586,1.0439,1.01,0.9722,0.984,0.9566,0.9004,0.9151,0.9124,0.8998,0.8998,0.8911,0.8804,0.8804,0.8871,0.8978,0.8858,0.8898,0.8978,0.8851,0.8804,0.8804,0.8804,0.9035,0.9309,0.9309,0.9768,1.0253,1.0253,1.0463,1.0708,1.0708,1.0708,1.0708,1.0708,1.0581,1.0446,1.0282,1.0253,1.0092,0.959,0.965,0.9937,1.0472,1.0668,1.0922,1.1442,1.1721,1.1909,1.2024,1.2434,1.2715,1.2715,1.2879,1.3009,1.3009,1.3009,1.3191,1.3575,1.3606,1.3795,1.4183,1.4213,1.4392,1.4805,1.4392,1.4213,1.4183,1.3795,1.3816,0.0,0.0,0.0,0.0,0.0,0.6305,0.0,0.0,0.0,0.5935,0.0,0.0,0.0,0.0,0.0,0.0,0.0,0.0,0.0,0.0,0.0,0.0,0.0,0.0,0.0,0.0,0.9849,1.0561,1.0593,1.0593,1.0593,1.0593,1.0593,1.0593,1.0593,1.0593,1.0593,1.0593,1.0593,1.0593,1.0593,1.0593,1.0586,1.0314,1.0097,0.9882,0.9766,0.9429,0.9002,0.9085,0.8991,0.8804,0.8804,0.8804,0.8804,0.8804,0.8804,0.8804,0.8804,0.8804,0.8804,0.8804,0.8883,0.9008,0.9133,0.9562,0.9987,0.9987,1.0569,1.1206,1.1206,1.1366,1.1524,1.1524,1.1524,1.1524,1.1524,1.1358,1.1206,1.1206,1.0994,1.0644,1.009,0.9987,1.0218,1.0889,1.099,1.115,1.1566,1.1668,1.1803,1.2009,1.2541,1.285,1.285,1.3212,1.3455,1.3455,1.3455,1.3756,1.4392,1.4421,1.4746,1.5381,1.541,1.541,1.541,1.541,1.541,1.5381,1.4717,1.4776,0.0,0.0,0.0,0.0,0.6963,0.0,0.0,0.0,0.6139,0.5718,0.0,0.0,0.0,0.0,0.0,0.0,0.0,0.0,0.0,0.0,0.0,0.0,0.0,0.0,0.0,0.0,0.0,1.0593,1.0593,1.0593,1.0593,1.0593,1.0593,1.0593,1.0593,1.0593,1.0593,1.0593,1.0593,1.0593,1.0593,1.0593,1.0593,1.0559,1.056,1.0544,0.9962,0.9702,0.964,0.9069,0.8838,0.8804,0.8804,0.8804,0.8804,0.8804,0.8804,0.8804,0.8804,0.8804,0.8804,0.8804,0.9211,0.9788,1.0389,1.0644,1.0695,1.0695,1.077,1.0854,1.0854,1.0878,1.0911,1.0911,1.0911,1.0911,1.0911,1.0878,1.0854,1.0854,1.0821,1.0788,1.0686,1.0695,1.0914,1.1591,1.169,1.194,1.2635,1.3036,1.3259,1.3307,1.4016,1.4523,1.4523,1.4907,1.5147,1.5147,1.5147,1.5177,1.5264,1.5264,1.5323,1.541,1.541,1.541,1.541,1.541,1.541,1.541,1.5323,1.5323,0.0,0.0,0.0,0.0,0.0,0.0,0.6373,0.0,0.6074,0.0,0.0,0.0,0.0,0.0,0.0,0.0,0.0,0.0,0.0,0.0,0.0,0.0,0.0,0.0,0.0,0.0,0.0,0.0,0.0,1.0593,1.0593,1.0593,1.0593,1.0593,1.0593,1.0593,1.0593,1.0593,1.0593,1.0593,1.0593,1.0593,1.0618,1.0887,1.0885,1.07,1.073,1.0616,1.0364,1.009,0.9961,0.9961,0.9961,0.971,0.9439,0.9814,0.9961,0.9961,0.9961,0.9961,0.9961,0.9961,1.0141,1.044,1.0712,1.1065,1.1391,1.1391,1.1683,1.2024,1.2024,1.2024,1.2024,1.2024,1.2024,1.2024,1.2024,1.2024,1.2024,1.2024,1.2024,1.2024,1.2024,1.1658,1.1625,1.232,1.2452,1.2559,1.2847,1.3062,1.3145,1.3145,1.3906,1.4377,1.4377,1.5019,1.541,1.541,1.541,1.541,1.541,1.5806,1.6036,1.6036,1.6154,1.6202,1.6202,1.6202,1.6202,1.6212,1.5657,1.541,0.6136,0.0,0.0,0.0,0.0,0.0,0.0,0.0,0.0,0.0,0.0,0.0,0.0,0.0,0.0,0.0,0.0,0.0,0.0,0.0,0.0,0.0,0.0,0.0,0.0,0.0,0.0,0.0,1.0352,0.0,1.0466,1.0472,1.0506,1.0586,1.0593,1.0593,1.0593,1.0593,1.0593,1.0593,1.0593,1.0713,1.0944,1.1164,1.1349,1.1497,1.1456,1.1375,1.1243,1.093,1.0788,1.0813,1.099,1.0788,1.0389,1.0695,1.0788,1.0788,1.0788,1.0788,1.0838,1.1015,1.1065,1.1116,1.13,1.1733,1.2104,1.2104,1.2476,1.2905,1.2905,1.2905,1.2905,1.2905,1.2905,1.2905,1.2905,1.2905,1.2905,1.2905,1.2905,1.2905,1.2905,1.2452,1.2286,1.2822,1.2905,1.2905,1.2905,1.2905,1.2905,1.2905,1.3633,1.4104,1.4104,1.4894,1.5497,1.57,1.569,1.5806,1.5987,1.6528,1.6729,1.6601,1.6736,1.6732,1.6573,1.6573,1.6573,1.6558,1.5976,1.569,0.0,0.0,0.0,0.6555,0.0,0.0,0.0,0.0,0.6376,0.0,0.0,0.0,0.0,0.0,0.5742,0.5603,0.0,0.0,0.0,0.0,0.0,0.0,0.0,0.0,0.0,0.0,0.0,0.0,0.9742,0.0,1.0083,1.0134,1.0261,1.0586,1.0593,1.0593,1.0593,1.0593,1.0593,1.0593,1.0593,1.1021,1.1757,1.1308,1.1972,1.3422,1.1952,1.1737,1.2348,1.1251,1.0788,1.0864,1.1516,1.1765,1.1665,1.104,1.0788,1.0788,1.0788,1.0788,1.0914,1.1566,1.1765,1.1898,1.2618,1.2856,1.2847,1.2847,1.2881,1.2905,1.2905,1.2905,1.2905,1.2905,1.2905,1.2905,1.2905,1.2905,1.2905,1.2905,1.2905,1.2905,1.2905,1.2881,1.2881,1.2905,1.2905,1.2905,1.2905,1.2905,1.2905,1.2905,1.3633,1.4104,1.4104,1.4894,1.569,1.6436,1.6454,1.6782,1.7495,1.755,1.7327,1.6795,1.6799,1.6528,1.6036,1.6036,1.6036,1.6033,1.6328,1.6454,0.0,0.0,0.6555,0.6409,0.0,0.0,0.0,0.0,0.0,0.0,0.0,0.0,0.0,0.0,0.5755,0.5613,0.5589,0.5467,0.0,0.0,0.0,0.0,0.0,0.0,0.0,0.0,0.0,0.9735,0.9715,0.9813,0.0,1.0083,1.0254,1.0579,1.1108,1.1139,1.0624,1.167,1.1934,1.1406,1.1934,1.2336,1.2604,1.2989,1.3307,1.3571,1.3277,1.3165,1.3109,1.2448,1.2181,1.2206,1.2427,1.2535,1.251,1.228,1.2181,1.2181,1.2181,1.2181,1.223,1.2452,1.2535,1.2559,1.2822,1.2905,1.2905,1.2905,1.2905,1.2905,1.2905,1.2905,1.2905,1.2905,1.2905,1.2905,1.2905,1.2905,1.2905,1.2905,1.3214,1.3515,1.3515,1.3836,1.3823,1.3017,1.3238,1.3515,1.3515,1.3826,1.4095,1.4095,1.4931,1.5489,1.5489,1.6004,1.6579,1.7197,1.6547,1.6436,1.706,1.7191,1.7194,1.6995,1.7134,1.7122,1.6918,1.6918,1.6918,1.693,1.6912,1.6838,0.63,0.6368,0.0,0.0,0.6908,0.0,0.6856,0.0,0.0,0.0,0.0,0.0,0.0,0.0,0.639,0.6769,0.6414,0.5914,0.0,0.5227,0.0,0.0,0.0,0.0,0.0,0.0,0.9697,0.9539,0.9432,0.9546,0.0,0.0,1.0147,1.0579,1.1375,1.1555,1.1045,1.2336,1.2726,1.2235,1.2757,1.3161,1.3455,1.3832,1.4088,1.4239,1.3986,1.3821,1.3656,1.3115,1.2905,1.2905,1.2905,1.2905,1.2905,1.2905,1.2905,1.2905,1.2905,1.2905,1.2905,1.2905,1.2905,1.2905,1.2905,1.2905,1.2905,1.2905,1.2905,1.2905,1.2905,1.2905,1.2905,1.2905,1.2905,1.2905,1.2905,1.2905,1.2968,1.3176,1.3529,1.3862,1.4073,1.4445,1.4433,1.3658,1.3873,1.412,1.412,1.4468,1.4698,1.4698,1.5402,1.5961,1.6104,1.6354,1.677,1.7376,1.6769,1.6653,1.7278,1.7421,1.7497,1.7497,1.7432,1.741,1.741,1.7174,1.7074,1.7087,1.7163,1.7254]}]]